[[{"header":{"parameterUnit":"m.s-1","parameterCategory":1,"la1":30.6,"la2":28.766,"lo1":-90.7593,"lo2":-88.6598,"dx":0.0162,"dy":0.0183,"nx":116,"ny":114,"refTime":"2022-12-31T18:00:00:Z","depth":0,"parameterNumber":2,"parameterNumberName":"U-component_of_WINDS"},"data":[0.0,0.0,0.0,0.0,0.0,0.0,0.0,0.0,0.0,0.0,0.0,0.0,0.0,0.0,0.0,0.0,0.0,0.0,0.0,0.0,0.0,0.0,0.0,0.0,0.0,0.0,0.0,0.0,0.0,0.0,0.0,0.0,0.0,0.0,0.0,0.0,0.0,0.0,0.0,0.0,0.0,0.0,0.0,0.0,0.0,0.0,0.0,0.0,0.0,0.0,0.0,0.0,0.0,0.0,0.0,0.0,0.0,0.0,0.0,0.0,0.0,0.0,0.0,0.0,0.0,0.0,0.0,0.0,0.0,0.0,0.0,0.0,0.0,0.0,0.0,0.0,0.0,0.0,0.0,0.0,0.0,0.0,0.0,0.0,0.0,0.0,0.0,0.0,0.0,0.0,0.0,0.0,0.0,0.0,0.0,0.0,0.0,0.0,0.0,0.0,0.0,0.0,0.0,0.0,0.0,0.0,0.0,0.0,0.0,0.0,0.0,0.0,0.0,0.0,0.0,0.0,0.0,0.0,0.0,0.0,0.0,0.0,0.0,0.0,0.0,0.0,0.0,0.0,0.0,0.0,0.0,0.0,0.0,0.0,0.0,0.0,0.0,0.0,0.0,0.0,0.0,0.0,0.0,0.0,0.0,0.0,0.0,0.0,0.0,0.0,0.0,0.0,0.0,0.0,0.0,0.0,0.0,0.0,0.0,0.0,0.0,0.0,0.0,0.0,0.0,0.0,0.0,0.0,0.0,0.0,0.0,0.0,0.0,0.0,0.0,0.0,0.0,0.0,0.0,0.0,0.0,0.0,0.0,0.0,0.0,0.0,0.0,0.0,0.0,0.0,0.0,0.0,0.0,0.0,0.0,0.0,0.0,0.0,0.0,0.0,0.0,0.0,0.0,0.0,0.0,0.0,0.0,0.0,0.0,0.0,0.0,0.0,0.0,0.0,0.0,0.0,0.0,0.0,0.0,0.0,0.0,0.0,0.0,0.0,0.0,0.0,0.0,0.0,0.0,0.0,0.0,0.0,0.0,0.0,0.0,0.0,0.0,0.0,0.0,0.0,0.0,0.0,0.0,0.0,0.0,0.0,0.0,0.0,0.0,0.0,0.0,0.0,0.0,0.0,0.0,0.0,0.0,0.0,0.0,0.0,0.0,0.0,0.0,0.0,0.0,0.0,0.0,0.0,0.0,0.0,0.0,0.0,0.0,0.0,0.0,0.0,0.0,0.0,0.0,0.0,0.0,0.0,0.0,0.0,0.0,0.0,0.0,0.0,0.0,0.0,0.0,0.0,0.0,0.0,0.0,0.0,0.0,0.0,0.0,0.0,0.0,0.0,0.0,0.0,0.0,0.0,0.0,0.0,0.0,0.0,0.0,0.0,0.0,0.0,0.0,0.0,0.0,0.0,0.0,0.0,0.0,0.0,0.0,0.0,0.0,0.0,0.0,0.0,0.0,0.0,0.0,0.0,0.0,0.0,0.0,0.0,0.0,0.0,0.0,0.0,0.0,0.0,0.0,0.0,0.0,0.0,0.0,0.0,0.0,0.0,0.0,0.0,0.0,0.0,0.0,0.0,0.0,0.0,0.0,0.0,0.0,0.0,0.0,0.0,0.0,0.0,0.0,0.0,0.0,0.0,0.0,0.0,0.0,0.0,0.0,0.0,0.0,0.0,0.0,0.0,0.0,0.0,0.0,0.0,0.0,0.0,0.0,0.0,0.0,0.0,0.0,0.0,0.0,0.0,0.0,0.0,0.0,0.0,0.0,0.0,0.0,0.0,0.0,0.0,0.0,0.0,0.0,0.0,0.0,0.0,0.0,0.0,0.0,0.0,0.0,0.0,0.0,0.0,0.0,0.0,0.0,0.0,0.0,0.0,0.0,0.0,0.0,0.0,0.0,0.0,0.0,0.0,0.0,0.0,0.0,0.0,0.0,0.0,0.0,0.0,0.0,0.0,0.0,0.0,0.0,0.0,0.0,0.0,0.0,0.0,0.0,0.0,0.0,0.0,0.0,0.0,0.0,0.0,0.0,0.0,0.0,0.0,0.0,0.0,0.0,0.0,0.0,0.0,0.0,0.0,0.0,0.0,0.0,0.0,0.0,0.0,0.0,0.0,0.0,0.0,0.0,0.0,0.0,0.0,0.0,0.0,0.0,0.0,0.0,0.0,0.0,0.0,0.0,0.0,0.0,0.0,0.0,0.0,0.0,0.0,0.0,0.0,0.0,0.0,0.0,0.0,0.0,0.0,0.0,0.0,0.0,0.0,0.0,0.0,0.0,0.0,0.0,0.0,0.0,0.0,0.0,0.0,0.0,0.0,0.0,0.0,0.0,0.0,0.0,0.0,0.0,0.0,0.0,0.0,0.0,0.0,0.0,0.0,0.0,0.0,0.0,0.0,0.0,0.0,0.0,0.0,0.0,0.0,0.0,0.0,0.0,0.0,0.0,0.0,0.0,0.0,0.0,0.0,0.0,0.0,0.0,0.0,0.0,0.0,0.0,0.0,0.0,0.0,0.0,0.0,0.0,0.0,0.0,0.0,0.0,0.0,0.0,0.0,0.0,0.0,0.0,0.0,0.0,0.0,0.0,0.0,0.0,0.0,0.0,0.0,0.0,0.0,0.0,0.0,0.0,0.0,0.0,0.0,0.0,0.0,0.0,0.0,0.0,0.0,0.0,0.0,0.0,0.0,0.0,0.0,0.0,0.0,0.0,0.0,0.0,0.0,0.0,0.0,0.0,0.0,0.0,0.0,0.0,0.0,0.0,0.0,0.0,0.0,0.0,0.0,0.0,0.0,0.0,0.0,0.0,0.0,0.0,0.0,0.0,0.0,0.0,0.0,0.0,0.0,0.0,0.0,0.0,0.0,0.0,0.0,0.0,0.0,0.0,0.0,0.0,0.0,0.0,0.0,0.0,0.0,0.0,0.0,0.0,0.0,0.0,0.0,0.0,0.0,0.0,0.0,0.0,0.0,0.0,0.0,0.0,0.0,0.0,0.0,0.0,0.0,0.0,0.0,0.0,0.0,0.0,0.0,0.0,0.0,0.0,0.0,0.0,0.0,0.0,0.0,0.0,0.0,0.0,0.0,0.0,0.0,0.0,0.0,0.0,0.0,0.0,0.0,0.0,0.0,0.0,0.0,0.0,0.0,0.0,0.0,0.0,0.0,0.0,0.0,0.0,0.0,0.0,0.0,0.0,0.0,0.0,0.0,0.0,0.0,0.0,0.0,0.0,0.0,0.0,0.0,0.0,0.0,0.0,0.0,0.0,0.0,0.0,0.0,0.0,0.0,0.0,0.0,0.0,0.0,0.0,0.0,0.0,0.0,0.0,0.0,0.0,0.0,0.0,0.0,0.0,0.0,0.0,0.0,0.0,0.0,0.0,0.0,0.0,0.0,0.0,0.0,0.0,0.0,0.0,0.0,0.0,0.0,0.0,0.0,0.0,0.0,0.0,0.0,0.0,0.0,0.0,0.0,0.0,0.0,0.0,0.0,0.0,0.0,0.0,0.0,0.0,0.0,0.0,0.0,0.0,0.0,0.0,0.0,0.0,0.0,0.0,0.0,0.0,0.0,0.0,0.0,0.0,0.0,0.0,0.0,0.0,0.0,0.0,0.0,0.0,0.0,0.0,0.0,0.0,0.0,0.0,0.0,0.0,0.0,0.0,0.0,0.0,0.0,0.0,0.0,0.0,0.0,0.0,0.0,0.0,0.0,0.0,0.0,0.0,0.0,0.0,0.0,0.0,0.0,0.0,0.0,0.0,0.0,0.0,0.0,0.0,0.0,0.0,0.0,0.0,0.0,0.0,0.0,0.0,0.0,0.0,0.0,0.0,0.0,0.0,0.0,0.0,0.0,0.0,0.0,0.0,0.0,0.0,0.0,0.0,0.0,0.0,0.0,0.0,0.0,0.0,0.0,0.0,0.0,0.0,0.0,0.0,0.0,0.0,0.0,0.0,0.0,0.0,0.0,0.0,0.0,0.0,0.0,0.0,0.0,0.0,0.0,0.0,0.0,0.0,0.0,0.0,0.0,0.0,0.0,0.0,0.0,0.0,0.0,0.0,0.0,0.0,0.0,0.0,0.0,0.0,0.0,0.0,0.0,0.0,0.0,0.0,0.0,0.0,0.0,0.0,0.0,0.0,0.0,0.0,0.0,0.0,0.0,0.0,0.0,0.0,0.0,0.0,0.0,0.0,0.0,0.0,0.0,0.0,0.0,0.0,0.0,0.0,0.0,0.0,0.0,0.0,0.0,0.0,0.0,0.0,0.0,0.0,0.0,0.0,0.0,0.0,0.0,0.0,0.0,0.0,0.0,0.0,0.0,0.0,0.0,0.0,0.0,0.0,0.0,0.0,0.0,0.0,0.0,0.0,0.0,0.0,0.0,0.0,0.0,0.0,0.0,0.0,0.0,0.0,0.0,0.0,0.0,0.0,0.0,0.0,0.0,0.0,0.0,0.0,0.0,0.0,0.0,0.0,0.0,0.0,0.0,0.0,0.0,0.0,0.0,0.0,0.0,0.0,0.0,0.0,0.0,0.0,0.0,0.0,0.0,0.0,0.0,0.0,0.0,0.0,0.0,0.0,0.0,0.0,0.0,0.0,0.0,0.0,0.0,0.0,0.0,0.0,0.0,0.0,0.0,0.0,0.0,0.0,0.0,0.0,0.0,0.0,0.0,0.0,0.0,0.0,0.0,0.0,0.0,0.0,0.0,0.0,0.0,0.0,0.0,0.0,0.0,0.0,0.0,0.0,0.0,0.0,0.0,0.0,0.0,0.0,0.0,0.0,0.0,0.0,0.0,0.0,0.0,0.0,0.0,0.0,0.0,0.0,0.0,0.0,0.0,0.0,0.0,0.0,0.0,0.0,0.0,0.0,0.0,0.0,0.0,0.0,0.0,0.0,0.0,0.0,0.0,0.0,0.0,0.0,0.0,0.0,0.0,0.0,0.0,0.0,0.0,0.0,0.0,0.0,0.0,0.0,0.0,0.0,0.0,0.0,0.0,0.0,0.0,0.0,0.0,0.0,0.0,0.0,0.0,0.0,0.0,0.0,0.0,0.0,0.0,0.0,0.0,0.0,0.0,0.0,0.0,0.0,0.0,0.0,0.0,0.0,0.0,0.0,0.0,0.0,0.0,0.0,0.0,0.0,0.0,0.0,0.0,0.0,0.0,0.0,0.0,0.0,0.0,0.0,0.0,0.0,0.0,0.0,0.0,0.0,0.0,0.0,0.0,0.0,0.0,0.0,0.0,0.0,0.0,0.0,0.0,0.0,0.0,0.0,0.0,0.0,0.0,0.0,0.0,0.0,0.0,0.0,0.0,0.0,0.0,0.0,0.0,0.0,0.0,0.0,0.0,0.0,0.0,0.0,0.0,0.0,0.0,0.0,0.0,0.0,0.0,0.0,0.0,0.0,0.0,0.0,0.0,0.0,0.0,0.0,0.0,0.0,0.0,0.0,0.0,0.0,0.0,0.0,0.0,0.0,0.0,0.0,0.0,0.0,0.0,0.0,0.0,0.0,0.0,0.0,0.0,0.0,0.0,0.0,0.0,0.0,0.0,0.0,0.0,0.0,0.0,0.0,0.0,0.0,0.0,0.0,0.0,0.0,0.0,0.0,0.0,0.0,0.0,0.0,0.0,0.0,0.0,0.0,0.0,0.0,0.0,0.0,0.0,0.0,0.0,0.0,0.0,0.0,0.0,0.0,0.0,0.0,0.0,0.0,0.0,0.0,0.0,0.0,0.0,0.0,0.0,0.0,0.0,0.0,0.0,0.0,0.0,0.0,0.0,0.0,0.0,0.0,0.0,0.0,0.0,0.0,0.0,0.0,0.0,0.0,0.0,0.0,0.0,0.0,0.0,0.0,0.0,0.0,0.0,0.0,0.0,0.0,0.0,0.0,0.0,0.0,0.0,0.0,0.0,0.0,0.0,0.0,0.0,0.0,0.0,0.0,0.0,0.0,0.0,0.0,0.0,0.0,0.0,0.0,0.0,0.0,0.0,0.0,0.0,0.0,0.0,0.0,0.0,0.0,0.0,0.0,0.0,0.0,0.0,0.0,0.0,0.0,0.0,0.0,0.0,0.0,0.0,0.0,0.0,-4.3287,-4.2247,0.0,0.0,0.0,0.0,0.0,0.0,0.0,0.0,0.0,0.0,0.0,0.0,0.0,0.0,0.0,0.0,0.0,0.0,0.0,0.0,0.0,0.0,0.0,0.0,0.0,0.0,0.0,0.0,0.0,0.0,0.0,0.0,0.0,0.0,0.0,0.0,-2.2005,-2.2768,-2.4168,-2.6019,-2.8187,-2.7399,-2.6742,-2.6213,0.0,0.0,0.0,0.0,0.0,0.0,0.0,0.0,0.0,0.0,0.0,0.0,0.0,0.0,0.0,0.0,0.0,0.0,0.0,0.0,0.0,0.0,0.0,0.0,0.0,0.0,0.0,0.0,0.0,0.0,0.0,0.0,0.0,0.0,0.0,0.0,0.0,0.0,0.0,0.0,0.0,0.0,0.0,0.0,0.0,0.0,0.0,0.0,0.0,0.0,0.0,0.0,0.0,0.0,0.0,0.0,0.0,0.0,0.0,0.0,0.0,0.0,0.0,0.0,0.0,0.0,0.0,0.0,0.0,0.0,-4.5085,-4.4345,0.0,0.0,0.0,0.0,0.0,0.0,0.0,0.0,0.0,0.0,0.0,0.0,0.0,0.0,0.0,0.0,0.0,0.0,0.0,0.0,0.0,0.0,0.0,-2.2509,-2.3922,-2.4198,-2.4818,-2.4902,0.0,0.0,0.0,0.0,0.0,0.0,-2.2967,-2.3159,-2.4018,-2.5574,-2.7275,-2.9283,-3.1571,-3.1708,-3.1156,-3.0076,-2.971,0.0,0.0,0.0,0.0,0.0,0.0,0.0,0.0,0.0,0.0,0.0,0.0,0.0,0.0,0.0,0.0,0.0,0.0,0.0,0.0,0.0,0.0,0.0,0.0,0.0,0.0,0.0,0.0,0.0,0.0,0.0,0.0,0.0,0.0,0.0,0.0,0.0,0.0,0.0,0.0,0.0,0.0,0.0,0.0,0.0,0.0,0.0,0.0,0.0,0.0,0.0,0.0,0.0,0.0,0.0,0.0,0.0,0.0,0.0,0.0,0.0,0.0,0.0,-4.67,-4.7387,-4.7997,-4.8605,-4.9228,-4.9684,-4.7132,-4.704,-4.8512,-4.5896,0.0,0.0,0.0,0.0,0.0,0.0,0.0,0.0,0.0,0.0,0.0,0.0,0.0,0.0,0.0,0.0,0.0,0.0,0.0,-2.0682,-2.1371,-2.2854,-2.4336,-2.568,-2.5887,-2.5921,-2.5784,0.0,0.0,0.0,0.0,-2.3715,-2.366,-2.4524,-2.5665,-2.713,-3.0645,-3.3037,-3.4305,-3.4996,-3.501,-3.4407,-3.2524,-3.1568,-3.1279,0.0,0.0,0.0,0.0,0.0,0.0,0.0,0.0,0.0,0.0,0.0,0.0,0.0,0.0,0.0,0.0,0.0,0.0,0.0,0.0,0.0,0.0,0.0,0.0,0.0,0.0,0.0,0.0,0.0,0.0,0.0,0.0,0.0,0.0,0.0,0.0,0.0,0.0,0.0,0.0,0.0,-4.1349,-4.1571,0.0,0.0,0.0,0.0,0.0,0.0,0.0,0.0,0.0,0.0,0.0,0.0,0.0,-4.6301,-4.7159,-4.842,-4.9049,-4.9084,-4.9853,-5.0254,-5.0365,-5.0455,-5.0545,-5.0618,-5.0198,0.0,-4.941,-4.9005,0.0,0.0,0.0,0.0,0.0,0.0,0.0,0.0,0.0,0.0,0.0,0.0,0.0,0.0,0.0,0.0,0.0,0.0,0.0,0.0,0.0,-2.4956,-2.6818,-2.7937,-2.8799,-2.8765,-2.7489,-2.7109,0.0,0.0,-2.4502,-2.453,-2.4524,-2.5759,-2.7894,-3.0882,-3.3421,-3.5237,-3.6381,-3.6683,-3.672,-3.6487,-3.5553,-3.4247,-3.2763,-3.2757,0.0,0.0,0.0,0.0,0.0,0.0,0.0,0.0,0.0,0.0,0.0,0.0,0.0,0.0,0.0,0.0,0.0,0.0,0.0,0.0,0.0,0.0,0.0,0.0,0.0,0.0,0.0,0.0,0.0,0.0,0.0,0.0,0.0,0.0,0.0,0.0,0.0,0.0,0.0,-4.2203,-4.3132,-4.3615,-4.3243,-4.276,0.0,0.0,0.0,0.0,0.0,0.0,0.0,0.0,0.0,-4.7245,-4.8036,-4.8783,-4.9399,-5.0062,-5.0613,-5.1072,-5.138,-5.1765,-5.2206,-5.2181,-5.216,-5.216,-5.216,-5.194,-5.1536,-5.0161,-4.8822,-4.7537,0.0,0.0,0.0,0.0,-4.5037,-4.5147,0.0,0.0,0.0,0.0,0.0,0.0,0.0,0.0,0.0,0.0,0.0,0.0,-2.4543,-2.7247,-2.9351,-3.0282,-3.1248,-3.1076,-2.9386,-2.873,-2.7489,-2.5385,-2.5123,-2.5118,-2.5348,-2.7555,-3.0386,-3.3758,-3.519,-3.6376,-3.7267,-3.7265,-3.7246,-3.7246,-3.7377,-3.6272,-3.4393,-3.4764,-3.3385,-3.0887,0.0,0.0,0.0,0.0,0.0,0.0,0.0,0.0,0.0,0.0,0.0,0.0,0.0,0.0,0.0,0.0,0.0,0.0,0.0,0.0,0.0,0.0,0.0,0.0,0.0,0.0,0.0,0.0,0.0,0.0,0.0,0.0,0.0,0.0,0.0,0.0,0.0,-4.3689,-4.4655,-4.5509,-4.501,-4.4363,0.0,0.0,0.0,0.0,0.0,0.0,-4.6342,-4.7788,-4.8945,-4.9676,-5.034,-5.0954,-5.1494,-5.1494,-5.1825,-5.2357,-5.2373,-5.2704,-5.3256,-5.3209,-5.3203,-5.3203,-5.3203,-5.3203,-5.3057,-5.1242,-5.0659,-5.0681,-4.8916,-4.796,-4.7647,-4.7813,-4.7629,-4.75,0.0,0.0,0.0,0.0,0.0,0.0,0.0,0.0,0.0,0.0,0.0,-2.5419,-2.6937,-2.9195,-3.1145,-3.2593,-3.2145,-3.1731,-3.1627,-2.9592,-2.7696,-2.6094,-2.5443,-2.5389,-2.604,-3.0351,-3.3114,-3.4164,-3.5572,-3.6291,-3.6367,-3.6506,-3.6547,-3.6568,-3.7032,-3.725,-3.7202,-3.5773,-3.5075,-3.4629,-3.1446,0.0,0.0,0.0,0.0,0.0,0.0,0.0,0.0,0.0,0.0,0.0,0.0,0.0,0.0,0.0,0.0,0.0,0.0,0.0,0.0,0.0,0.0,0.0,0.0,0.0,0.0,0.0,0.0,0.0,0.0,0.0,0.0,0.0,0.0,0.0,0.0,0.0,0.0,-4.6327,-4.6298,0.0,0.0,0.0,0.0,-4.7342,-4.8235,-4.9071,-4.9713,-4.9913,-5.0637,-5.2097,-5.2055,-5.2401,-5.3171,-5.3171,-5.3182,-5.3151,-5.3151,-5.3188,-5.3188,-5.3225,-5.3203,-5.3203,-5.3203,-5.3203,-5.3167,-5.3057,-5.216,-5.0802,-5.0655,-4.9664,-4.8343,-4.917,-4.9941,-5.0692,0.0,0.0,0.0,-2.2716,-2.1854,-2.1337,-2.182,-2.0808,-2.0475,-2.1716,-2.4095,-2.6316,-2.7833,-3.0938,-3.3283,-3.4283,-3.4559,-3.4283,-3.3317,-3.1163,-2.9834,-2.9765,-2.8126,-2.8487,-3.1179,-3.2891,-3.4343,-3.5566,-3.6063,-3.6559,-3.7064,-3.712,-3.7383,-3.7854,-3.8362,-3.8571,-3.8565,-3.7326,-3.6078,-3.4836,-3.3839,-3.2565,0.0,0.0,0.0,0.0,0.0,0.0,0.0,0.0,0.0,0.0,0.0,0.0,0.0,0.0,0.0,0.0,0.0,0.0,0.0,0.0,0.0,0.0,0.0,0.0,0.0,0.0,0.0,0.0,0.0,0.0,0.0,0.0,0.0,0.0,0.0,0.0,0.0,-4.7048,-4.7477,0.0,-4.7194,-4.8235,-4.8975,-4.9011,-5.0324,-5.1194,-5.1337,-5.1951,-5.2505,-5.2937,-5.2897,-5.2982,-5.323,-5.323,-5.3209,-5.3203,-5.3203,-5.3203,-5.3203,-5.3203,-5.3203,-5.3203,-5.3203,-5.3203,-5.3203,-5.3203,-5.2858,-5.2344,-5.2344,-5.1977,-5.1499,-5.1793,-5.2123,-5.238,0.0,-2.2716,0.0,-2.2716,-2.2095,-2.1751,-2.2233,-2.1682,-2.182,-2.3612,-2.6059,-2.8316,-3.011,-3.3007,-3.5042,-3.5525,-3.6008,-3.5663,-3.4199,-3.2439,-3.1317,-3.1041,-2.9834,-3.061,-3.3667,-3.4239,-3.5241,-3.6697,-3.6697,-3.7111,-3.7892,-3.7914,-3.8212,-3.8684,-3.9033,-3.9161,-3.9091,-3.8364,-3.7553,-3.672,-3.6096,-3.4999,-3.3632,0.0,0.0,0.0,0.0,0.0,0.0,0.0,0.0,0.0,0.0,0.0,0.0,0.0,0.0,0.0,0.0,0.0,0.0,0.0,0.0,0.0,0.0,0.0,0.0,0.0,0.0,0.0,0.0,0.0,0.0,0.0,0.0,0.0,0.0,-4.6883,-4.8012,-4.8199,-4.8901,-4.9196,-4.8753,-4.9805,-5.0541,-5.058,-5.1831,-5.2585,-5.2508,-5.3064,-5.3375,-5.3256,-5.3256,-5.3251,-5.3203,-5.3203,-5.3314,-5.3592,-5.3592,-5.3739,-5.3995,-5.3995,-5.3995,-5.3995,-5.3995,-5.3995,-5.3995,-5.3995,-5.3995,-5.3995,-5.3702,-5.3592,-5.3665,-5.3922,-5.3849,-5.3592,-2.2716,-2.2716,-2.2716,-2.2716,-2.2095,-2.1613,-2.1613,-2.2268,-2.3543,-2.5784,-2.8799,-3.1577,-3.382,-3.5387,-3.6284,-3.6284,-3.6284,-3.5663,-3.4199,-3.3283,-3.1869,-2.9627,-3.0386,-3.1595,-3.3102,-3.453,-3.6008,-3.7547,-3.7547,-3.7927,-3.8651,-3.8775,-3.8841,-3.8876,-3.8951,-3.8951,-3.8898,-3.8898,-3.9575,-4.0435,-3.8107,-3.7238,-3.7165,0.0,0.0,0.0,0.0,0.0,0.0,0.0,0.0,0.0,0.0,0.0,0.0,0.0,0.0,0.0,0.0,0.0,0.0,0.0,0.0,0.0,0.0,0.0,0.0,0.0,0.0,0.0,0.0,0.0,0.0,0.0,0.0,0.0,-4.6281,-4.7664,-4.8919,-4.9732,-5.0485,-5.0942,-5.0942,-5.1597,-5.2075,-5.214,-5.281,-5.323,-5.3297,-5.323,-5.3203,-5.3203,-5.3203,-5.3261,-5.3261,-5.324,-5.3665,-5.4436,-5.4436,-5.484,-5.5596,-5.5596,-5.5596,-5.5596,-5.5596,-5.5596,-5.5596,-5.5596,-5.5537,-5.5486,-5.4693,-5.4399,-5.4473,-5.5244,-5.5023,-5.4252,-2.2716,-2.2716,-2.2716,-2.2716,-2.2543,-2.2406,-2.2406,-2.3026,-2.4129,-2.5853,-2.8799,-3.1351,-3.3041,-3.5076,-3.6284,-3.6284,-3.6284,-3.5663,-3.4199,-3.2352,-3.1007,-3.0386,-3.3179,-3.5235,-3.6256,-3.665,-3.734,-3.8284,-3.8284,-3.8663,-3.9388,-3.9433,-3.9744,-4.032,-4.065,-4.0771,-4.0749,-4.0749,-4.1167,-4.1655,-3.9589,-3.8886,-3.8935,0.0,0.0,0.0,0.0,0.0,0.0,0.0,0.0,0.0,0.0,0.0,0.0,0.0,0.0,0.0,0.0,0.0,0.0,0.0,0.0,0.0,0.0,0.0,0.0,0.0,0.0,0.0,0.0,0.0,0.0,0.0,-4.6101,-4.7114,-4.7776,-4.8753,-4.9673,-5.0441,-5.123,-5.1728,-5.1772,-5.2443,-5.2899,-5.2987,-5.3104,-5.3225,-5.323,-5.3188,-5.3203,-5.3203,-5.3775,-5.4069,-5.4069,-5.4656,-5.506,-5.5244,-5.5244,-5.539,-5.5596,-5.5596,-5.5596,-5.5596,-5.5596,-5.5596,-5.5559,-5.495,-5.473,-5.4693,-5.4473,-5.4399,-5.4363,-5.3995,-5.3739,-5.3518,-2.2716,-2.2716,-2.2716,-2.2716,-2.2716,-2.2716,-2.2716,-2.3612,-2.506,-2.7247,-2.9661,-3.1972,-3.4076,-3.5525,-3.6284,-3.6284,-3.6284,-3.5525,-3.3697,-3.2076,-3.1593,-3.2524,-3.4973,-3.6663,-3.7478,-3.7823,-3.8318,-3.9043,-3.9043,-3.9457,-4.0181,-4.0181,-4.0422,-4.0894,-4.114,-4.1255,-4.1255,-4.13,-4.1622,-4.1949,-4.0917,-4.0422,-4.0307,-4.0,-3.9375,-3.8695,-3.8462,-3.7764,-3.7147,-3.7849,0.0,0.0,0.0,0.0,0.0,0.0,0.0,0.0,0.0,0.0,0.0,0.0,0.0,0.0,0.0,0.0,0.0,0.0,0.0,0.0,0.0,0.0,0.0,0.0,-4.7959,-4.8949,-4.9853,-5.0387,-5.0845,-5.1242,-5.2013,-5.2511,-5.2537,-5.2973,-5.3209,-5.3272,-5.3209,-5.3203,-5.3203,-5.3518,-5.3702,-5.3702,-5.4473,-5.4913,-5.4913,-5.5354,-5.5757,-5.6088,-5.6088,-5.6271,-5.6602,-5.6602,-5.6418,-5.6088,-5.6088,-5.5904,-5.5574,-5.5464,-5.5427,-5.5354,0.0,0.0,0.0,0.0,-5.3922,-5.4179,-2.2716,-2.2716,-2.2716,-2.2716,-2.2716,-2.2716,-2.2819,-2.406,-2.6109,-2.9248,-3.0903,-3.2938,-3.5973,-3.6284,-3.6284,-3.6284,-3.6284,-3.5387,-3.3179,-3.2421,-3.3007,-3.5111,-3.5973,-3.6835,-3.7754,-3.8387,-3.9077,-3.9836,-3.9836,-4.0181,-4.0894,-4.0894,-4.0894,-4.0894,-4.0894,-4.0894,-4.0894,-4.1023,-4.129,-4.1644,-4.1846,-4.1752,-4.1425,-4.1195,-4.0988,-4.0932,-4.1399,-4.0991,-4.028,-4.048,0.0,0.0,0.0,0.0,0.0,0.0,0.0,0.0,0.0,0.0,0.0,0.0,0.0,0.0,0.0,0.0,0.0,0.0,0.0,0.0,0.0,0.0,0.0,0.0,-4.9921,-5.1206,-5.2013,-5.2123,-5.2123,-5.2123,-5.2784,-5.3203,-5.3203,-5.3203,-5.3203,-5.3203,-5.3203,-5.3261,-5.3335,-5.3995,0.0,0.0,0.0,-5.5721,-5.5721,-5.5831,-5.6235,-5.6932,-5.6932,-5.7299,-5.7997,-5.7997,-5.7593,-5.6932,-5.7042,-5.6675,-5.6051,-5.6785,-5.7042,-5.6785,-5.5354,-5.4803,-5.4803,-5.4693,-5.5133,-5.5611,-2.2716,-2.2716,-2.2716,-2.2716,-2.2716,-2.2888,-2.3509,-2.437,-2.6316,-2.9972,-3.1248,-3.2938,-3.5973,-3.6284,-3.6284,-3.6284,-3.6284,-3.5594,-3.3973,-3.3751,-3.4111,-3.5145,-3.6525,-3.7892,-3.925,-3.9388,-3.9871,-4.0687,-4.0687,-4.0756,-4.0894,-4.0894,-4.0894,-4.0894,-4.0894,-4.0894,-4.0894,-4.0918,-4.0989,-4.1105,-4.1578,-4.1991,-4.2366,-4.2372,-4.2123,-4.184,-4.1962,-4.1634,-4.136,-4.278,-4.2261,-4.123,-4.2603,-4.1594,0.0,0.0,0.0,0.0,0.0,0.0,0.0,0.0,0.0,0.0,0.0,0.0,0.0,0.0,0.0,0.0,0.0,0.0,0.0,-5.0167,-5.1193,-5.205,-5.2858,-5.2968,-5.2968,-5.2968,-5.3115,-5.3203,-5.3203,-5.3203,-5.3203,-5.3203,-5.3203,-5.3482,-5.4142,-5.4326,-5.4693,-5.5354,-5.6161,-5.6565,-5.6565,-5.7226,-5.7593,-5.7776,-5.7776,0.0,-5.7997,-5.7997,-5.7923,-5.7813,-5.8474,-5.8634,-5.8547,-5.8671,-5.8364,-5.774,-5.7409,-5.7299,-5.7226,-5.6602,-5.6455,-5.6455,-2.375,-2.3543,-2.3371,-2.3784,-2.3853,-2.3991,-2.4336,-2.5074,-2.6661,-2.9696,-3.0765,-3.2248,-3.4904,-3.4835,-3.4594,-3.4594,-3.4249,-3.4214,-3.4628,-3.4303,-3.4786,-3.6305,-3.7443,-3.8582,-3.9664,-4.0077,-4.0515,-4.0894,-4.0894,-4.0894,-4.0894,-4.0894,-4.0894,-4.0894,-4.0894,-4.0894,-4.0894,-4.0976,-4.0976,-4.0918,-4.13,-4.1609,-4.1994,-4.2696,-4.2869,-4.2664,-4.2924,-4.2836,-4.2712,-4.3606,-4.3378,-4.286,-4.3685,-4.2878,-4.1609,0.0,0.0,0.0,0.0,0.0,0.0,0.0,0.0,0.0,0.0,0.0,0.0,0.0,0.0,-4.7573,-4.8804,0.0,-5.0565,-5.1855,-5.2364,-5.2747,-5.313,-5.3203,-5.3203,-5.3203,-5.3203,-5.3203,-5.3203,-5.3203,-5.335,-5.3775,-5.3812,-5.4142,-5.495,-5.539,-5.5794,-5.6198,-5.6969,-5.7409,-5.7409,-5.7813,-5.7997,-5.7997,-5.7997,-5.8217,-5.8621,-5.8621,-5.8621,-5.8621,-5.9038,-5.8964,-5.8621,-5.8621,-5.8841,-5.9171,-5.8767,-5.8107,-5.7299,-5.6492,-5.6455,-5.6748,-2.5074,-2.4681,-2.4405,-2.4902,-2.5005,-2.504,-2.5178,-2.573,-2.6937,-2.9213,-3.0213,-3.1473,-3.344,-3.3214,-3.2904,-3.2904,-3.249,-3.3076,-3.5076,-3.4766,-3.5476,-3.7616,-3.8284,-3.9008,-3.9905,-4.0584,-4.0894,-4.0894,-4.0894,-4.0894,-4.0894,-4.0894,-4.0894,-4.0894,-4.0894,-4.0894,-4.0894,-4.1023,-4.1,-4.0918,-4.1163,-4.1277,-4.1401,-4.2734,-4.3196,-4.3178,-4.3631,-4.3816,-4.3853,-4.3853,-4.3865,-4.3913,-4.3913,-4.3515,-4.3042,-4.3243,-4.2708,0.0,0.0,0.0,0.0,0.0,0.0,0.0,0.0,-4.7887,-4.7997,-4.8839,-4.9554,-5.0308,-5.1132,-5.1793,-5.2454,-5.3093,-5.3203,-5.3203,-5.3203,-5.3203,-5.3203,-5.3203,-5.3203,-5.324,-5.3445,-5.3424,-5.3775,-5.4583,-5.462,-5.4987,-5.5794,-5.6455,-5.6859,-5.7042,-5.7666,-5.7997,-5.7997,-5.7997,-5.807,-5.8217,-5.8217,-5.8657,-5.9404,-5.9404,-5.9404,-5.9441,-5.9588,-5.9391,-5.8914,-5.8914,-5.9722,-6.0786,-5.9955,-5.8964,-5.785,-5.6895,-5.7042,-5.774,-2.5833,-2.5887,-2.5646,-2.5109,-2.5005,-2.5212,-2.5887,-2.6059,-2.6937,-2.9213,-3.0213,-3.1041,-3.1938,-3.2559,-3.2904,-3.2904,-3.349,-3.4234,-3.5145,-3.5732,-3.6766,-3.8387,-3.856,-3.9284,-4.0722,-4.086,-4.0894,-4.0894,-4.0894,-4.0894,-4.0894,-4.0894,-4.0894,-4.0894,-4.0894,-4.0894,-4.0894,-4.0894,-4.0894,-4.0918,-4.1288,-4.1468,-4.16,-4.2638,-4.2941,-4.2885,-4.33,-4.3677,-4.3992,-4.3992,-4.3955,-4.3971,-4.3971,-4.3886,-4.3929,-4.4788,-4.4321,-4.361,-4.3791,-4.3812,-4.414,-4.5722,-4.6577,-4.7629,0.0,-4.985,-4.9757,-5.13,-5.1646,-5.1977,-5.2784,-5.3004,-5.3093,-5.3188,-5.3203,-5.3203,-5.3203,-5.3203,-5.3203,-5.3203,-5.3203,-5.3482,-5.4216,-5.4289,-5.4583,-5.539,-5.5464,-5.5831,-5.6638,-5.6748,-5.7152,-5.785,-5.796,-5.7997,-5.7997,-5.7997,-5.8364,-5.9074,-5.9074,-5.9478,-6.0272,-6.0272,-6.0272,-6.0309,-6.1006,-6.1704,-6.223,-6.223,-6.234,-6.245,-6.1667,-6.1667,-6.1961,-6.0419,-6.0382,-6.1043,-2.6661,-2.6799,-2.6695,-2.6385,-2.635,-2.6454,-2.6764,-2.6799,-2.7282,-2.8696,-2.9144,-2.9627,-3.0386,-3.0351,-3.0455,-3.0869,-3.2041,-3.3248,-3.4456,-3.5663,-3.6801,-3.7927,-3.8353,-3.9077,-4.0181,-4.0653,-4.0894,-4.0894,-4.0894,-4.0894,-4.0894,-4.0894,-4.0894,-4.0894,-4.0894,-4.0894,-4.0894,-4.0894,-4.0894,-4.0942,-4.1333,-4.1556,-4.1731,-4.2638,-4.3014,-4.3069,-4.3546,-4.3795,0.0,-4.3945,-4.3945,-4.4019,-4.4436,-4.3923,-4.35,-4.5292,-4.4519,-4.343,-4.4901,-4.5941,-4.6905,-4.7996,-4.8845,-4.9723,-5.1213,-5.1246,-5.1316,-5.2454,-5.2711,-5.2821,-5.3151,-5.3203,-5.3203,-5.3203,-5.3203,-5.3203,-5.3203,-5.3203,-5.335,-5.3849,-5.3922,-5.4032,-5.4363,-5.4803,-5.5427,-5.6235,-5.6308,-5.6638,-5.7446,-5.7483,-5.7666,-5.7997,-5.8437,-5.8694,-5.8694,-5.9171,-5.9575,-5.9905,-5.9905,-6.0309,-6.108,-6.108,-6.1337,-6.1814,-6.2144,-6.2768,-6.3503,-6.3025,-6.3099,-6.3466,-6.2622,-6.2805,-6.3356,-6.1704,-6.1594,-6.2291,-2.7178,-2.7282,-2.7282,-2.7282,-2.7282,-2.7282,-2.7282,-2.7282,-2.7489,-2.804,-2.8282,-2.8592,-2.9144,-2.8558,-2.8385,-2.9144,-3.0593,-3.2145,-3.3662,-3.518,-3.6456,-3.7478,-3.8215,-3.8939,-3.9664,-4.048,-4.0894,-4.0894,-4.0894,-4.0894,-4.0894,-4.0894,-4.0894,-4.0894,-4.0894,-4.0894,-4.0894,-4.0894,-4.0894,-4.0918,-4.1232,-4.1378,-4.1578,-4.2442,-4.2682,-4.2686,-4.3316,-4.3564,-4.3526,-4.3304,-4.323,-4.3325,-4.3837,-4.3324,-4.3012,-4.552,-4.5167,-4.4297,-4.5798,-4.7203,-4.8477,-4.951,-5.0444,-5.1336,-5.2206,-5.2348,-5.2491,-5.3078,-5.3203,-5.3203,-5.3203,-5.3203,-5.3203,-5.3203,-5.3203,-5.3277,-5.3518,-5.3555,-5.3849,-5.462,-5.4913,-5.506,-5.506,-5.5574,-5.6271,-5.7079,-5.7152,-5.7409,-5.796,-5.8217,-5.8327,-5.8327,-5.9134,-5.9515,-5.9515,-6.0126,-6.0529,-6.075,-6.075,-6.1153,-6.1924,-6.1924,-6.2365,-6.3172,-6.3172,-6.3649,-6.4383,-6.3759,-6.387,-6.4383,-6.3759,-6.4016,-6.4604,-6.3392,-6.3172,-6.3514,-2.7282,-2.7282,-2.7282,-2.7282,-2.7282,-2.7282,-2.7282,-2.7282,-2.7332,-2.7316,-2.7971,-2.842,-2.842,-2.7764,-2.7627,-2.8351,-2.9834,-3.1351,-3.2835,-3.4387,-3.5904,-3.7443,-3.8215,-3.8939,-3.9664,-4.048,-4.0894,-4.0894,-4.0894,-4.0894,-4.0894,-4.0894,-4.0894,-4.0894,-4.0894,-4.0894,-4.0894,-4.0894,-4.0894,-4.0894,-4.0894,-4.0918,-4.1035,-4.1903,-4.1736,-4.1196,-4.2336,-4.2749,-4.2637,-4.186,-4.1563,-4.1585,-4.1508,-4.191,-4.2947,-4.5621,-4.6877,-4.7288,-4.6426,-4.6744,-4.7703,-4.9322,-5.0826,-5.216,-5.2968,-5.3188,-5.3167,-5.3167,-5.3203,-5.3203,-5.3203,-5.3203,-5.3203,-5.3203,-5.3203,-5.3482,-5.4252,-5.4363,-5.4656,-5.5464,-5.6235,-5.6748,-5.6748,-5.6748,-5.7116,-5.7886,-5.796,-5.796,-5.7997,-5.8767,-5.9148,-5.9148,-5.9942,-6.0382,-6.0382,-6.0382,-6.0786,-6.1557,-6.1557,-6.1998,-6.2768,-6.2768,-6.3246,-6.4053,-6.4053,-6.453,-6.5264,-6.5264,-6.5264,-6.5264,-6.5228,-6.5742,-6.6402,-6.6366,-6.5888,-6.5338,-2.7937,-2.804,-2.8178,-2.8661,-2.8351,-2.804,-2.804,-2.7592,-2.7282,-2.7282,-2.7937,0.0,0.0,0.0,0.0,0.0,-2.9799,-3.1317,-3.28,-3.4352,-3.5628,-3.6663,-3.7905,-3.872,-3.8939,-4.0239,-4.0894,-4.0894,-4.0894,-4.0894,-4.0894,-4.0894,-4.0894,-4.0894,-4.0894,-4.0894,-4.0894,-4.0894,-4.0894,-4.0918,-4.1186,-4.1288,-4.1506,-4.3483,-4.3087,-4.1557,0.0,-4.2611,-4.1667,-4.1434,-4.1329,-4.1393,-4.1899,-4.1445,-4.114,-4.3082,-4.5454,-4.7426,-4.7574,-4.8641,-4.9929,-5.0973,-5.2034,-5.2858,-5.3151,-5.3203,-5.3203,-5.3203,-5.3203,-5.3203,-5.3203,-5.3203,-5.3203,-5.3203,-5.3665,-5.4106,-5.4363,-5.484,-5.55,-5.6308,-5.6638,-5.7005,-5.7556,-5.7593,-5.7703,-5.796,-5.7997,-5.8217,-5.8767,-5.9038,-5.9441,-5.9979,-6.0786,-6.119,-6.119,-6.1741,-6.2144,-6.2401,-6.2989,-6.3392,-6.3686,-6.4237,-6.464,-6.4897,-6.4897,-6.5338,-6.6109,-6.6109,-6.6402,-6.688,-6.688,-6.7063,-6.7283,-6.7283,-6.71,-6.6916,0.0,-2.8799,-2.8937,-2.942,-2.8903,0.0,0.0,0.0,0.0,0.0,0.0,0.0,0.0,0.0,0.0,0.0,0.0,-3.1214,-3.2421,-3.3662,-3.4835,-3.587,-3.7111,-3.7905,-3.8203,-3.9445,-4.0204,-4.0457,-4.0457,-4.0618,-4.0894,-4.0894,-4.0894,-4.0894,-4.0894,-4.0894,-4.0894,-4.0894,-4.1263,-4.175,-4.1418,-4.1462,-4.1901,-4.3233,-4.2419,0.0,-4.1872,-4.1429,-4.0325,-4.0382,-4.0366,-4.0467,-4.1266,-4.1581,-4.1932,-4.3255,-4.5569,-4.7942,-4.8951,-5.0017,-5.114,-5.2181,-5.2821,-5.3203,-5.3203,-5.3203,-5.3203,-5.3203,-5.3203,-5.3203,-5.3203,-5.3424,-5.3628,-5.3628,-5.4546,-5.528,-5.528,-5.5941,-5.6638,-5.7189,-5.7226,-5.7446,-5.796,-5.7997,-5.7997,-5.7997,-5.7997,-5.8364,-5.9148,-5.9478,-6.0015,-6.0786,-6.1594,-6.2034,-6.2034,-6.2548,-6.2989,-6.3282,-6.3833,-6.4237,-6.453,-6.5081,-6.5485,-6.5742,-6.5742,-6.6182,-6.6916,-6.6916,-6.721,-6.7687,-6.7687,-6.7687,-6.765,-6.7357,-6.7247,-6.7247,0.0,0.0,-2.9592,0.0,0.0,0.0,0.0,0.0,0.0,0.0,0.0,0.0,0.0,0.0,0.0,0.0,0.0,0.0,-3.1731,-3.249,-3.3593,-3.5111,-3.5904,-3.6663,-3.7478,-3.8237,-3.8939,-3.9629,-3.9629,-4.0032,-4.0791,-4.0791,-4.0791,-4.0791,-4.0791,-4.0825,-4.086,-4.0825,-4.175,-4.3093,-4.1449,-4.1276,-4.1939,-4.1279,-4.0016,-3.8703,-3.9707,-3.9491,-3.8747,-3.8817,-3.8936,-3.9142,-3.9895,-4.2353,-4.5107,-4.5954,-4.7353,-4.8954,-5.0537,-5.0936,-5.1279,-5.28,-5.3203,-5.3203,-5.3203,-5.3203,-5.3203,-5.3203,-5.3203,-5.3188,-5.313,-5.3849,-5.4399,-5.4363,-5.5721,-5.6822,-5.6822,-5.7483,-5.7997,-5.7997,-5.7997,-5.7997,-5.7997,-5.7997,-5.8033,-5.807,-5.807,-5.84,-5.9221,-6.0015,-6.0823,-6.163,-6.2401,-6.278,-6.278,-6.278,-6.3246,-6.409,-6.4127,-6.4567,-6.5375,-6.5411,-6.5852,-6.6549,-6.6549,-6.699,-6.7687,-6.7687,-6.7687,-6.7687,-6.7687,-6.7687,-6.7614,-6.6843,-6.6549,-6.6549,0.0,0.0,0.0,0.0,0.0,0.0,0.0,0.0,0.0,0.0,0.0,0.0,0.0,0.0,0.0,0.0,0.0,0.0,-3.1731,-3.249,-3.3593,-3.5111,-3.5904,-3.6663,-3.7478,-3.8237,-3.8698,-3.887,-3.896,-3.9143,-3.9351,-3.9383,-3.9428,-3.9428,-3.9428,-3.974,-4.0261,-3.9671,-4.0006,-4.0862,-3.9777,-3.9477,-3.981,-4.1059,-4.015,-3.8514,-4.0528,-4.0358,-3.921,-3.9585,-4.0488,-4.1724,-4.3037,-4.4504,-4.5992,-4.7334,-4.8932,-5.0438,-5.1467,-5.2144,-5.2711,-5.3093,-5.3203,-5.3203,-5.3203,-5.3203,-5.3203,-5.3203,-5.3203,-5.3041,-5.2417,-5.3445,-5.4216,-5.3592,-5.5354,-5.6822,-5.6822,-5.7483,-5.7997,-5.7997,-5.7997,-5.7997,-5.7997,-5.7997,-5.8253,-5.8877,-5.8914,-5.9245,-6.0052,-6.086,-6.1667,-6.2475,-6.267,-6.278,-6.278,-6.278,-6.3246,-6.409,-6.4714,-6.5411,-6.6219,-6.6806,-6.7173,-6.7393,-6.7393,-6.7504,-6.7687,-6.7687,-6.7687,-6.7687,-6.7687,-6.7687,-6.7677,-6.7467,-6.7393,-6.7283,0.0,0.0,0.0,0.0,0.0,0.0,0.0,0.0,0.0,0.0,0.0,0.0,0.0,0.0,0.0,0.0,0.0,0.0,0.0,-3.2179,-3.311,-3.4628,-3.5111,-3.5835,-3.696,-3.7387,-3.7767,-3.8134,-3.8221,-3.846,-3.8807,-3.8881,-3.8925,-3.8925,-3.8925,-3.9147,-3.9551,-3.9077,-3.9586,0.0,0.0,-3.9188,-3.9879,-4.0416,-3.9751,-3.8772,-4.0298,-4.0871,-4.1016,-4.1815,-4.2904,-4.41,-4.4947,-4.6287,-4.7775,-4.9003,-5.0325,-5.1499,-5.2307,-5.2858,-5.3203,-5.3203,-5.3203,-5.3203,-5.3203,-5.3203,-5.3093,-5.2747,-5.2968,-5.2858,-5.1683,-5.3371,-5.4656,-5.3849,-5.6051,-5.774,-5.7373,-5.8033,-5.84,-5.8033,-5.7997,-5.8143,-5.851,-5.8547,-5.8877,-5.9685,-5.9404,-5.9698,-6.086,-6.1337,-6.1961,-6.2743,-6.278,-6.278,-6.278,-6.278,-6.3429,-6.464,-6.5081,-6.5925,-6.7026,-6.7467,-6.7687,-6.7687,-6.7687,-6.7687,-6.7687,-6.7687,-6.7687,-6.7687,-6.7687,-6.7687,-6.765,-6.7283,-6.7393,-6.7504,0.0,0.0,0.0,0.0,0.0,0.0,0.0,0.0,0.0,0.0,-2.8937,-2.9661,-2.9661,-3.0938,0.0,0.0,0.0,0.0,0.0,0.0,-3.249,-3.4027,-3.4096,-3.4766,-3.6284,-3.6284,-3.6628,-3.734,-3.7447,-3.7858,-3.8517,-3.859,-3.8655,-3.8655,-3.8655,-3.869,-3.8794,-3.8668,-3.9469,-4.0744,-3.9254,-3.9453,-4.0538,0.0,-3.9147,-3.921,-3.9787,-4.1221,-4.3139,-4.4547,-4.5553,-4.625,-4.6471,-4.8049,-4.9994,-5.0875,-5.161,-5.2307,-5.3004,-5.3203,-5.3203,-5.3203,-5.3203,-5.3203,-5.3203,-5.302,-5.2711,-5.2123,-5.238,-5.2344,-5.1059,-5.3261,-5.5097,-5.4509,-5.6932,-5.8694,-5.807,-5.8621,-5.8804,-5.807,-5.8107,-5.8437,-5.9111,-5.9294,-5.9685,-6.0493,-5.9905,-6.0126,-6.152,-6.1704,-6.2071,-6.278,-6.278,-6.278,-6.278,-6.278,-6.3649,-6.5301,-6.5301,-6.6145,-6.7687,-6.7687,-6.7687,-6.7687,-6.7687,-6.7687,-6.7687,-6.7577,-6.7577,-6.7687,-6.7577,-6.765,-6.776,-6.7063,-6.732,-6.7797,0.0,0.0,0.0,0.0,0.0,0.0,0.0,0.0,0.0,0.0,-3.0696,-3.0489,0.0,0.0,0.0,0.0,0.0,0.0,0.0,0.0,0.0,-3.4027,-3.4096,-3.4766,-3.6284,-3.6284,-3.6353,-3.649,-3.6735,-3.6942,-3.7081,-3.7251,-3.7351,-3.7351,-3.7351,-3.7647,-3.8187,-3.7455,-3.7714,-3.8517,-3.8026,-3.7975,-3.8252,-3.8589,0.0,0.0,-4.0349,-4.1763,-4.3284,-4.5828,-4.7223,-4.8122,-4.9517,-5.0692,-5.172,-5.2564,-5.2873,-5.3041,-5.3188,-5.3203,-5.3203,-5.3203,-5.3203,-5.3203,-5.3203,-5.216,-5.1353,-5.1867,-5.1022,-5.0325,-5.0729,-5.2344,-5.3812,-5.4326,-5.5978,-5.7409,-5.7923,-5.8107,-5.8143,-5.8033,-5.8584,-5.9038,-5.9184,-5.9795,-6.0529,-6.1337,-6.1263,-6.13,-6.1594,-6.2218,-6.2658,-6.278,-6.278,-6.278,-6.278,-6.278,-6.3649,-6.5301,-6.5301,-6.6145,-6.7687,-6.7687,-6.7687,-6.7687,-6.7687,-6.7687,-6.7677,-6.699,-6.71,-6.7614,-6.6953,-6.7504,-6.8678,-6.8531,-6.8972,-6.9633,0.0,0.0,0.0,0.0,0.0,0.0,0.0,-3.111,-3.2386,-3.3938,-3.4199,-3.3785,-3.2612,-3.2785,-3.2992,0.0,0.0,0.0,0.0,0.0,0.0,-3.4628,-3.4683,-3.518,-3.6284,-3.6284,-3.6284,-3.6284,0.0,-3.6684,-3.6684,-3.6926,-3.6989,-3.6989,-3.6989,-3.7161,-3.7396,-3.6986,-3.694,-3.7241,-3.7498,-3.7828,-3.82,-3.8893,0.0,0.0,-4.1277,-4.2733,-4.43,-4.5462,-4.7516,-4.9811,-5.1022,-5.1977,-5.2711,-5.3115,-5.3203,-5.3203,-5.3203,-5.3203,-5.3203,-5.3203,-5.3203,-5.3115,-5.2674,-5.1977,-5.1279,-5.0859,-5.0472,-5.0215,-5.0178,-5.183,-5.3335,-5.3702,-5.55,-5.6932,-5.7336,-5.774,-5.8143,-5.8584,-5.8964,-5.9515,-6.0382,-6.0786,-6.1374,-6.2181,-6.2218,-6.2218,-6.2218,-6.2585,-6.278,-6.278,-6.278,-6.278,-6.278,-6.278,-6.3649,-6.5301,-6.5301,-6.6145,-6.7687,-6.7687,-6.7687,-6.7687,-6.7687,-6.7467,-6.7026,-6.6659,-6.6476,-6.6439,-6.6476,-6.721,-6.8311,-6.8752,-6.9669,-7.066,0.0,0.0,0.0,0.0,0.0,0.0,0.0,-3.2938,-3.4456,-3.6732,-3.756,-3.7305,-3.5511,-3.4855,-3.4421,0.0,0.0,0.0,0.0,0.0,0.0,0.0,0.0,0.0,-3.6284,0.0,0.0,-3.6284,-3.6582,0.0,0.0,0.0,0.0,0.0,-3.6989,-3.6911,-3.6791,-3.6771,-3.665,0.0,0.0,-3.813,-3.872,0.0,0.0,0.0,0.0,-4.3391,-4.4726,-4.5185,-4.7328,-5.0094,-5.1193,-5.2297,-5.3167,-5.3004,-5.3078,-5.3203,-5.3203,-5.3203,-5.3203,-5.3203,-5.3203,-5.3004,-5.216,-5.172,-5.1116,-4.9867,-4.9811,-4.9994,-4.9904,-5.1426,-5.2858,-5.335,-5.506,-5.6418,-5.6748,-5.7336,-5.8107,-5.9074,-5.9331,-6.0015,-6.1447,-6.1741,-6.2108,-6.2743,-6.278,-6.278,-6.278,-6.278,-6.278,-6.278,-6.278,-6.278,-6.278,-6.278,-6.3551,-6.5044,-6.5228,-6.6035,-6.743,-6.7614,-6.7687,-6.7687,-6.7687,-6.7247,-6.6476,-6.6329,-6.5888,-6.5375,-6.5999,-6.6843,-6.7797,-6.8788,-7.0073,-7.1219,0.0,0.0,0.0,0.0,0.0,0.0,0.0,-3.4628,-3.6801,-3.9077,-3.9457,-3.9422,-3.9215,-3.7353,-3.5559,0.0,0.0,0.0,0.0,0.0,0.0,0.0,0.0,0.0,0.0,0.0,0.0,-3.6284,-3.6582,0.0,0.0,0.0,0.0,0.0,0.0,-3.6911,-3.6791,-3.6745,0.0,0.0,0.0,0.0,0.0,0.0,0.0,0.0,0.0,-4.2935,-4.3002,-4.6241,-4.713,-4.728,-4.951,-5.1551,-5.3078,-5.2307,-5.2637,-5.3203,-5.3203,-5.3203,-5.3203,-5.3203,-5.3203,-5.3004,-5.216,-5.0802,-4.9701,-4.961,-4.8453,-4.8103,-5.0288,-5.0875,-5.1756,-5.3922,-5.4473,-5.5133,-5.6602,-5.6859,-5.7483,-5.9001,-5.9832,-6.0639,-6.152,-6.2254,-6.2707,-6.278,-6.278,-6.278,-6.278,-6.278,-6.278,-6.278,-6.278,-6.278,-6.278,-6.278,-6.3282,-6.42,-6.4971,-6.5778,-6.6623,-6.7357,-6.7687,-6.7687,-6.7687,-6.7247,-6.6439,-6.5705,-6.5375,-6.5301,-6.5375,-6.6366,-6.7871,-6.9412,-7.055,-7.1366,0.0,0.0,0.0,0.0,0.0,0.0,-3.3421,-3.4766,-3.6628,-3.9353,-4.0112,-4.0446,-4.0446,-3.9181,-3.756,-3.5594,0.0,0.0,0.0,0.0,0.0,0.0,0.0,0.0,0.0,0.0,-3.6284,-3.6284,-3.6582,0.0,0.0,0.0,0.0,0.0,0.0,-3.6846,-3.6725,-3.6623,0.0,0.0,0.0,0.0,0.0,0.0,0.0,0.0,0.0,0.0,-4.4535,-4.6048,-4.7163,-4.7907,-4.819,-4.9854,-5.1793,-5.194,-5.2564,-5.3203,-5.3203,-5.3203,-5.3203,-5.3203,-5.3203,-5.2858,-5.1573,-5.0765,-4.9994,-4.9003,-4.871,-4.904,-5.0545,-5.1206,-5.2013,-5.3445,-5.4069,-5.462,-5.528,-5.5757,-5.6859,-5.8927,-5.9478,-6.0382,-6.2144,-6.2622,-6.278,-6.278,-6.278,-6.278,-6.278,-6.278,-6.278,-6.278,-6.278,-6.278,-6.278,-6.278,-6.3246,-6.409,-6.4934,-6.5742,-6.6512,-6.732,-6.7687,-6.765,-6.7173,-6.6512,-6.5742,-6.4897,-6.4567,-6.464,-6.5118,-6.6292,-6.7834,-6.8972,-7.0183,-7.1329,0.0,0.0,0.0,0.0,0.0,-3.2386,-3.4145,-3.5249,-3.687,-3.9664,-4.0549,-4.0998,-4.1205,-3.9905,-3.8491,-3.7111,-3.6559,0.0,0.0,0.0,0.0,0.0,0.0,0.0,0.0,0.0,-3.6339,-3.636,-3.6811,-3.6914,0.0,0.0,-3.72,-3.6989,0.0,0.0,0.0,0.0,0.0,0.0,0.0,0.0,0.0,0.0,0.0,0.0,0.0,0.0,0.0,0.0,0.0,-4.781,-4.7388,-4.8722,-5.0582,-5.1389,-5.2197,-5.2894,-5.3151,-5.3203,-5.3203,-5.3203,-5.3203,-5.2784,-5.1169,-5.0802,-5.0325,-4.8636,-4.8967,-4.9867,-5.0655,-5.1463,-5.227,-5.3057,-5.3702,-5.4142,-5.4363,-5.4876,-5.6051,-5.823,-5.8694,-5.9722,-6.1887,-6.2523,-6.278,-6.278,-6.278,-6.278,-6.278,-6.278,-6.278,-6.278,-6.278,-6.278,-6.278,-6.278,-6.3099,-6.3723,-6.4787,-6.5595,-6.6182,-6.721,-6.7687,-6.765,-6.6843,-6.6035,-6.5264,-6.442,-6.409,-6.4163,-6.5007,-6.6145,-6.7467,-6.8531,-6.9633,-7.066,0.0,0.0,0.0,0.0,0.0,0.0,-3.4835,-3.6512,-3.8306,-4.0584,-4.0894,-4.117,-4.193,-3.9341,-3.7823,-3.8491,-3.718,0.0,0.0,0.0,0.0,0.0,0.0,0.0,0.0,0.0,-3.6381,-3.6485,-3.7374,-3.7443,-3.6826,-3.7682,-3.7707,-3.6989,0.0,0.0,0.0,0.0,0.0,0.0,0.0,0.0,-4.2102,0.0,0.0,0.0,0.0,0.0,0.0,0.0,0.0,0.0,0.0,-4.8539,-4.9757,-5.0582,-5.1389,-5.2197,-5.3004,-5.3203,-5.3203,-5.3203,-5.3203,-5.2784,-5.1169,-5.0802,-5.0325,-4.8636,-4.8967,-4.9867,-5.0655,-5.1463,-5.227,-5.3057,-5.3203,-5.3482,-5.4289,-5.4399,-5.5023,-5.6638,-5.7519,-5.8657,-6.0272,-6.1887,-6.278,-6.278,-6.278,-6.278,-6.278,-6.278,-6.278,-6.278,-6.278,-6.278,-6.278,-6.278,-6.278,-6.2817,-6.4494,-6.5301,-6.5375,-6.6953,-6.7687,-6.765,-6.6843,-6.6035,-6.5264,-6.442,-6.409,-6.4163,-6.5007,-6.5815,-6.6696,-6.8311,-6.8898,-6.9155,0.0,0.0,0.0,0.0,0.0,0.0,0.0,-3.449,-3.5821,-3.7525,-3.8237,-3.9065,-4.0284,-3.8686,-3.7823,-3.8548,-3.718,0.0,0.0,0.0,0.0,0.0,0.0,0.0,0.0,-3.6284,-3.6657,-3.7317,-3.7652,-3.8,-3.8384,-3.8173,-3.7947,-3.7641,-3.703,-3.6664,0.0,0.0,0.0,0.0,0.0,-4.2137,-4.2861,0.0,0.0,0.0,0.0,0.0,0.0,0.0,0.0,0.0,0.0,0.0,0.0,-4.9738,-5.0912,-5.194,-5.1646,-5.236,-5.3078,-5.2527,-5.2784,-5.2784,-5.1169,-5.0802,-5.0508,-4.9407,-4.9427,-5.0014,-5.1353,-5.183,-5.2417,-5.3812,-5.4032,-5.4106,-5.4363,-5.4876,-5.5831,-5.7446,-5.9795,-6.1484,-6.1998,-6.2487,-6.278,-6.278,-6.278,-6.278,-6.278,-6.278,-6.278,-6.278,-6.278,-6.278,-6.278,-6.278,-6.278,-6.278,-6.3943,-6.4787,-6.5338,-6.6402,-6.7173,-6.7614,-6.6256,-6.5558,-6.5264,-6.442,-6.442,-6.5007,-6.5815,-6.6623,-6.7357,-6.7871,-6.8421,-6.8972,0.0,0.0,0.0,0.0,0.0,0.0,0.0,-3.3559,-3.4628,-3.6111,-3.6732,-3.7698,-3.9491,-3.8112,-3.7456,-3.8491,-3.718,0.0,0.0,0.0,0.0,0.0,0.0,0.0,-3.6284,-3.636,-3.7101,-3.8617,-3.9025,-3.9656,-4.0478,-4.0289,-3.9567,-3.8384,-3.7763,-3.7276,0.0,0.0,0.0,0.0,-4.2447,-4.3,-4.3207,0.0,0.0,0.0,0.0,0.0,0.0,0.0,0.0,0.0,0.0,0.0,0.0,0.0,-5.0031,-5.1116,-5.1206,-5.1977,-5.2711,-5.2491,-5.2601,-5.2417,-5.1096,-5.0582,-5.0105,-4.926,-4.9591,-5.0362,-5.1353,-5.1793,-5.2307,-5.3335,-5.3482,-5.3592,-5.3922,-5.462,-5.5868,-5.7776,-6.0052,-6.1679,-6.2291,-6.2622,-6.278,-6.278,-6.278,-6.278,-6.278,-6.278,-6.278,-6.278,-6.278,-6.278,-6.278,-6.278,-6.278,-6.278,-6.3686,-6.453,-6.5338,-6.6145,-6.6769,-6.7173,-6.5888,-6.5301,0.0,-6.442,-6.4751,-6.5815,-6.6292,-6.699,-6.7687,-6.7687,-6.8017,-6.8467,0.0,0.0,0.0,0.0,0.0,0.0,0.0,-3.349,-3.4525,-3.5939,-3.618,-3.7042,-3.9215,-3.756,-3.687,-3.8318,0.0,0.0,0.0,0.0,0.0,0.0,0.0,0.0,-3.6284,-3.6423,-3.7658,-4.0013,-4.0984,-4.1913,-4.288,-4.343,-4.2102,-3.9215,-3.8999,-3.8425,-3.785,-4.0607,-4.1861,-4.2137,-4.3552,-4.3724,0.0,0.0,0.0,0.0,0.0,0.0,0.0,0.0,0.0,0.0,0.0,0.0,0.0,0.0,0.0,0.0,0.0,-5.1867,-5.2087,-5.2784,-5.2417,-5.1683,-5.0912,-5.0141,0.0,-4.8563,-4.9591,-5.0692,-5.0839,-5.1389,-5.1903,-5.2123,-5.2103,-5.2339,-5.324,-5.4063,-5.5493,-5.784,-5.8783,-5.9859,-6.1422,-6.224,-6.2679,-6.2679,-6.2679,-6.2679,-6.2679,-6.2705,-6.273,-6.273,-6.278,-6.278,-6.278,-6.278,-6.278,-6.278,-6.3613,-6.442,-6.5264,-6.6035,-6.6402,-6.6366,-6.5705,-6.5375,-6.5264,-6.4567,-6.5128,-6.6423,-6.6496,-6.6946,-6.7542,-6.7542,-6.7569,-6.7625,0.0,0.0,0.0,0.0,0.0,0.0,0.0,0.0,0.0,0.0,-3.5111,-3.587,-3.6973,-3.6628,-3.6456,0.0,0.0,0.0,0.0,0.0,0.0,0.0,0.0,0.0,-3.6284,-3.6423,-3.7415,-3.9247,-4.0158,-4.1565,-4.3488,-4.3639,-4.2602,-4.0573,-3.9938,-3.9178,-3.8397,-3.91,-4.0388,-4.2009,-4.2388,-4.2447,0.0,0.0,0.0,0.0,-4.1447,-4.193,0.0,0.0,0.0,0.0,0.0,0.0,0.0,0.0,-4.707,-4.766,-4.9641,0.0,-5.0986,-5.0545,-5.0765,-5.0875,0.0,-4.9757,-4.9537,-4.9353,-4.9077,-4.9481,-5.1353,-5.0896,-5.0969,-5.3445,-5.2959,-5.2957,-5.4796,-5.5856,-5.7145,-5.8925,-5.9465,-6.0021,-6.0955,-6.1243,-6.135,-6.135,-6.135,-6.135,-6.135,-6.1833,-6.2086,-6.2086,-6.2541,-6.278,-6.278,-6.278,-6.278,-6.278,-6.3025,-6.3539,-6.442,-6.5228,-6.5595,-6.5632,-6.6035,-6.5888,-6.5338,-6.5778,-6.5842,-6.5719,-6.6401,-6.6438,-6.6095,-6.6095,-6.6464,-6.686,0.0,0.0,0.0,0.0,0.0,0.0,0.0,0.0,0.0,0.0,0.0,0.0,0.0,0.0,0.0,0.0,0.0,0.0,0.0,0.0,0.0,0.0,0.0,-3.6284,-3.6284,-3.6485,-3.7895,-4.0558,-4.1146,-4.2765,-4.5281,-4.5232,-4.375,-4.1047,-3.9489,-3.873,-3.8663,-3.9721,-4.0894,-4.2009,-4.2413,0.0,0.0,0.0,0.0,0.0,-4.0894,-4.1378,0.0,-4.2964,-4.4324,-4.5628,0.0,0.0,0.0,0.0,-4.5929,-4.6246,-4.755,-4.9334,-5.0765,-5.0692,-5.0729,-5.0692,-5.0251,-4.9554,-4.9003,-4.9003,-4.893,-4.9407,-5.1132,-5.1022,-5.1181,-5.2689,-5.317,-5.4023,-5.6015,-5.6848,-5.7675,-5.8961,-5.9473,-5.9916,-6.0373,-6.0701,-6.0879,-6.0879,-6.0879,-6.0879,-6.0879,-6.1236,-6.1472,-6.1472,-6.1778,-6.2219,-6.278,-6.278,-6.2679,-6.2386,-6.2679,-6.3119,-6.3653,-6.4427,-6.4971,-6.5338,-6.5778,-6.5925,-6.5862,-6.5961,-6.5985,-6.6033,-6.6133,-6.6156,-6.6064,-6.5716,-6.6064,-6.6559,0.0,0.0,0.0,0.0,0.0,0.0,0.0,0.0,0.0,0.0,0.0,0.0,0.0,0.0,0.0,0.0,0.0,0.0,0.0,0.0,0.0,0.0,-3.6284,-3.6422,-3.6671,-3.6686,-3.8481,-4.2056,-4.252,-4.4154,-4.6793,-4.7013,-4.5032,-4.1128,-3.8834,-3.8065,-3.8582,-4.0595,-4.155,-4.1723,-4.2516,0.0,0.0,0.0,0.0,0.0,0.0,0.0,0.0,-4.3045,-4.4317,-4.5374,-4.5058,0.0,0.0,0.0,0.0,0.0,-4.5808,-4.8173,-5.0591,-5.1051,-5.081,-5.0424,-5.0252,-4.9098,-4.8094,-4.819,-4.8759,-4.9621,-5.0643,-5.1323,-5.1725,-5.1759,-5.3436,-5.5143,-5.6479,-5.6912,-5.7391,-5.8167,-5.8863,-5.9337,-5.9473,-6.0184,-6.0615,-6.0615,-6.0615,-6.0615,-6.0615,-6.0706,-6.0766,-6.0766,-6.0855,-6.1436,-6.2515,-6.2515,-6.2245,-6.1751,-6.2386,-6.2777,-6.293,-6.3748,-6.4457,-6.5154,-6.5375,-6.5888,-6.6423,-6.5856,-6.6025,-6.6618,-6.5909,-6.5909,-6.6283,-6.5689,-6.5846,-6.6228,0.0,0.0,0.0,0.0,0.0,0.0,0.0,0.0,0.0,0.0,0.0,0.0,0.0,0.0,0.0,0.0,0.0,0.0,0.0,0.0,0.0,-3.6284,-3.6284,-3.6968,-3.8391,-3.7283,-3.7937,-4.0466,-4.1846,-4.3369,-4.4956,-4.6872,-4.565,-4.1781,-4.0101,-3.8732,-3.7754,-3.872,-3.9457,-4.0112,-4.0929,0.0,0.0,0.0,0.0,0.0,0.0,0.0,0.0,-4.1058,-4.2614,-4.3874,-4.2172,0.0,0.0,0.0,0.0,0.0,-4.5929,-4.7695,-4.8762,-4.7529,-4.8203,-4.8843,-4.7743,-4.7295,-4.7226,-4.7632,-4.7804,-4.8566,-5.0677,-5.0605,-5.1148,-5.3953,-5.524,-5.5598,-5.4755,-5.5254,-5.5971,-5.6746,-5.7067,-5.7513,-5.8137,-5.8866,-5.9317,-5.9317,-5.9317,-5.9317,-5.9317,-5.9841,-6.016,-6.016,-6.0646,-6.0967,-6.1207,-6.1207,-6.1149,-6.1062,-6.1723,-6.2051,-6.2141,-6.3492,-6.4163,-6.4347,-6.5705,-6.6402,-6.6496,-6.6502,-6.6569,-6.6618,-6.5909,-6.5335,-6.4905,-6.4806,-6.4839,-6.5083,0.0,0.0,0.0,0.0,0.0,0.0,0.0,0.0,0.0,0.0,0.0,0.0,0.0,0.0,0.0,0.0,0.0,0.0,0.0,0.0,0.0,-3.7491,-3.7146,-3.75,-3.8671,-3.8135,-3.9381,-4.2471,-4.3262,-4.4605,-4.6299,-4.5209,-4.3533,-4.1309,-3.8905,-3.7732,-3.7547,-3.8306,-3.9008,-3.9767,0.0,0.0,0.0,0.0,0.0,0.0,0.0,0.0,0.0,0.0,-4.1661,-4.253,-4.1752,0.0,0.0,0.0,0.0,0.0,-4.4157,-4.5797,-4.688,-4.6155,-4.8129,-5.0185,-4.9932,-4.9591,-4.9424,-4.9892,-4.9502,-4.9598,-5.1424,-5.1562,-5.2337,-5.5241,-5.5122,-5.4858,-5.5367,-5.5488,-5.58,-5.6564,-5.7105,-5.7529,-5.7874,-5.8564,-5.9012,-5.9012,-5.9012,-5.9012,-5.9012,-5.9283,-5.945,-5.945,-5.9744,-5.987,-5.987,-5.987,-6.0062,-6.0437,-6.1415,-6.1696,-6.1415,-6.2788,-6.3906,-6.4787,-6.5521,-6.6329,-6.7146,-6.6793,-6.6707,-6.6618,-6.5909,-6.5657,-6.576,-6.58,-6.5302,-6.4875,0.0,0.0,0.0,0.0,0.0,0.0,0.0,0.0,0.0,0.0,0.0,0.0,0.0,0.0,0.0,0.0,0.0,0.0,0.0,0.0,-3.6835,-3.8008,-3.7892,-3.8375,-3.9698,-3.9455,-4.1024,-4.4514,-4.4937,-4.6092,-4.7768,-4.4371,-4.2112,-4.0791,-3.8215,-3.7146,-3.7271,-3.8008,-3.8767,-3.9491,0.0,0.0,0.0,0.0,0.0,0.0,0.0,0.0,0.0,0.0,0.0,0.0,0.0,0.0,0.0,-4.16,-4.1283,-4.1441,-4.2362,-4.3769,-4.5023,-4.5169,-4.7749,-5.0478,-5.1381,-5.0905,-5.0545,-5.1525,-5.0988,-5.0773,-5.198,-5.2701,-5.3643,-5.5355,-5.465,-5.4406,-5.5837,-5.564,-5.5667,-5.6426,-5.7185,-5.7702,-5.7874,-5.8564,-5.9012,-5.9012,-5.9012,-5.9012,-5.9012,-5.9012,-5.9012,-5.9012,-5.9012,-5.9012,-5.9012,-5.9012,-5.9249,-5.9811,-6.1068,-6.1415,-6.0938,-6.2219,-6.3697,-6.5301,-6.5301,-6.6219,-6.766,-6.6975,-6.6765,-6.6852,-6.6125,-6.6238,-6.6704,-6.6589,-6.5865,-6.5152,0.0,0.0,0.0,0.0,0.0,0.0,0.0,0.0,0.0,0.0,0.0,0.0,0.0,0.0,0.0,0.0,0.0,0.0,0.0,0.0,-3.6353,-3.6456,-3.7767,-3.994,-4.2989,-4.1613,-4.2029,-4.4514,-4.5875,-4.6973,-4.7665,-4.5949,-4.363,-4.086,-3.9871,-3.8318,-3.6422,-3.7236,-3.7974,-3.8732,-3.9491,0.0,0.0,0.0,0.0,0.0,0.0,0.0,0.0,0.0,0.0,0.0,0.0,0.0,-4.1909,-4.1149,-4.0722,-4.0643,-4.1454,-4.229,-4.3089,-4.3815,-4.5305,-4.7011,-4.8695,-4.7941,-4.7688,-5.0241,-5.0716,-5.0908,-5.1673,-5.3246,-5.4205,-5.3718,-5.4661,-5.5253,-5.473,-5.4629,-5.4874,-5.5598,-5.6391,-5.715,-5.784,-5.8564,-5.9012,-5.9012,-5.9012,-5.9012,-5.9012,-5.9012,-5.9012,-5.9012,-5.9012,-5.9012,-5.9012,-5.9012,-5.9012,-5.9115,-6.0371,-6.0974,-6.0938,-6.2219,-6.3697,-6.5301,-6.5301,-6.6219,-6.766,-6.6975,-6.7061,-6.7542,-6.6881,-6.669,-6.6699,-6.6035,-6.5786,-6.5911,0.0,0.0,0.0,0.0,0.0,0.0,0.0,0.0,0.0,0.0,0.0,0.0,0.0,0.0,0.0,0.0,0.0,0.0,0.0,-3.6284,-3.6732,-3.7698,-3.8284,-3.964,-4.1795,-4.2659,-4.4397,-4.7161,-4.772,-4.7658,-4.6975,-4.4458,-4.2181,-4.0077,-3.8353,-3.7387,-3.7064,-3.7374,-3.7927,-3.8594,-3.8905,-3.8732,0.0,0.0,0.0,0.0,0.0,0.0,0.0,0.0,-3.8858,-3.9479,-3.9479,-4.0342,-4.117,-4.0377,-4.0078,-4.0073,-4.0683,-4.2219,-4.3621,-4.3232,-4.4803,-4.71,-4.9497,-5.0055,-5.0714,-5.296,-5.2439,-5.161,-5.1373,-5.3065,-5.4253,-5.3529,-5.4253,-5.4839,-5.4563,-5.4494,-5.4977,-5.6219,-5.6598,-5.7288,-5.8495,-5.884,-5.9012,-5.9012,-5.9012,-5.9012,-5.9012,-5.9012,-5.9012,-5.9012,-5.9012,-5.9012,-5.9012,-5.9012,-5.9012,-5.9012,-6.0278,-6.0879,-6.0938,-6.2219,-6.3445,-6.4594,-6.4594,-6.5568,-6.7061,-6.6794,-6.7089,-6.767,-6.7455,-6.7153,-6.6877,-6.754,-6.7868,-6.8011,0.0,0.0,0.0,0.0,0.0,0.0,0.0,0.0,0.0,0.0,0.0,0.0,0.0,0.0,0.0,0.0,0.0,0.0,-3.6284,-3.6284,-3.6766,-3.7836,-3.8318,-3.9181,-4.0515,-4.3,-4.5312,-4.7389,-4.7603,-4.6948,-4.5458,-4.2871,-4.1078,-3.9974,-3.7939,-3.7318,-3.7823,-3.7616,-3.7789,-3.8272,-3.8272,-3.7961,0.0,0.0,0.0,0.0,0.0,0.0,0.0,0.0,-3.7858,-3.8306,-3.8525,-3.9457,-4.0377,-3.956,-3.9871,-4.0423,-4.0523,-4.2031,-4.3558,-4.3565,-4.4896,-4.7049,-5.0195,-5.102,-5.1765,-5.407,-5.3125,-5.1774,-5.1498,-5.2735,-5.3701,-5.3425,-5.4011,-5.4494,-5.4494,-5.4494,-5.5081,-5.6633,-5.6805,-5.7391,-5.8875,-5.9012,-5.9012,-5.9012,-5.9012,-5.9012,-5.9012,-5.9012,-5.9012,-5.9012,-5.9012,-5.9012,-5.9012,-5.9012,-5.9012,-5.9012,-6.0093,-6.0615,-6.0646,-6.2205,-6.323,-6.3935,-6.4151,-6.517,-6.6707,-6.6707,-6.7235,-6.81,-6.813,-6.8072,-6.7984,-6.9063,-6.9501,-6.9552,0.0,0.0,0.0,0.0,0.0,0.0,0.0,0.0,-3.6284,-3.6284,-3.6284,0.0,0.0,0.0,0.0,0.0,0.0,0.0,-3.6284,-3.6284,-3.6284,-3.6284,-3.7767,-3.8905,-3.9629,-4.2689,-4.4276,-4.4311,-4.5044,-4.463,-4.3172,-4.1619,-4.0894,-4.0825,-3.9307,-3.8594,-3.8525,-3.7823,-3.7512,-3.7512,-3.7512,-3.7512,-3.7478,0.0,0.0,0.0,0.0,0.0,0.0,0.0,-3.7512,-3.765,-3.8375,-3.9077,-3.956,-3.8801,-4.0181,-4.1826,-4.1067,-4.1447,-4.2561,-4.4811,-4.5432,-4.6466,-5.0223,-4.9913,-4.9671,-5.277,-5.2183,-5.1356,-5.205,-5.2188,-5.2494,-5.3287,-5.4011,-5.4494,-5.4494,-5.4494,-5.5081,-5.6633,-5.6805,-5.7391,-5.8875,-5.9012,-5.9012,-5.9012,-5.9012,-5.9012,-5.9012,-5.9012,-5.9012,-5.9012,-5.9012,-5.9012,-5.9012,-5.9012,-5.9012,-5.9012,-5.9714,-6.0036,-6.0068,-6.2061,-6.312,-6.3341,-6.4095,-6.5254,-6.6677,-6.6707,-6.7563,-6.8871,-6.8908,-6.942,-7.0227,-7.0227,-7.0253,-7.0334,0.0,0.0,0.0,0.0,0.0,0.0,0.0,0.0,-3.6284,-3.6284,-3.6284,0.0,0.0,0.0,0.0,0.0,0.0,0.0,-3.6284,-3.6284,-3.6284,-3.6284,-3.7284,-3.7663,-3.7318,-3.925,-4.1836,-4.5079,-4.4768,-4.3837,-4.2344,-4.1378,-4.0342,-3.9284,-3.9353,-3.8801,-3.7823,-3.7581,-3.7512,-3.7512,-3.7512,-3.7167,-3.6697,0.0,0.0,0.0,0.0,0.0,0.0,0.0,0.0,0.0,-3.7077,-3.8594,-4.0204,-3.8375,-3.9065,-4.0112,-3.8858,-4.1388,-4.4182,-4.3251,-4.6631,-5.0326,-5.0976,-5.074,-5.0809,-5.2287,-5.2632,-5.2632,-5.2257,-5.3115,-5.3736,-5.346,-5.4011,-5.4494,-5.4494,-5.4494,-5.5081,-5.6633,-5.6805,-5.7391,-5.8875,-5.9012,-5.9012,-5.9012,-5.9012,-5.9012,-5.9012,-5.9012,-5.9012,-5.9012,-5.9012,-5.9012,-5.9012,-5.9012,-5.9012,-5.9012,-6.0755,-6.1534,-6.1564,-6.2111,-6.2993,-6.4095,-6.4309,-6.497,-6.6038,-6.7586,-6.8252,-6.8313,-6.9375,-7.0012,-7.033,-7.0842,-7.1361,-7.1702,0.0,0.0,0.0,0.0,0.0,0.0,-3.6284,-3.6284,-3.6284,-3.6284,-3.6284,-3.6284,0.0,0.0,0.0,-3.6284,-3.6284,-3.6284,-3.6284,-3.6284,-3.6284,-3.6284,-3.6766,-3.7077,-3.7215,-3.8387,-4.025,-4.2699,-4.2561,-4.1861,-4.0629,-4.0825,-4.0584,-3.9974,-4.0733,-4.0273,-3.8824,-3.8513,-3.803,-3.7512,-3.7512,-3.7202,-3.6835,0.0,0.0,0.0,0.0,0.0,0.0,0.0,0.0,0.0,-3.6456,-3.7801,-3.941,-3.8617,-3.9894,-4.1526,-4.1561,-4.4113,-4.6707,-4.6562,-4.9183,-5.1705,-5.1567,-5.1563,-5.1636,-5.2084,-5.2356,-5.2528,-5.2666,-5.346,-5.4011,-5.3873,-5.4218,-5.4494,-5.4494,-5.477,-5.5426,-5.6633,-5.7047,-5.7702,-5.8909,-5.9012,-5.9012,-5.9012,-5.9012,-5.9012,-5.9012,-5.9012,-5.9012,-5.9012,-5.9012,-5.9012,-5.9012,-5.9323,-5.9495,-5.9495,-6.1101,-6.2273,-6.3122,-6.3328,-6.3648,-6.4102,-6.4961,-6.5782,-6.6665,-6.8252,-6.9043,-6.9347,-7.0264,-7.0841,-7.1235,-7.1678,-7.2137,-7.238,0.0,0.0,0.0,0.0,0.0,0.0,-3.6284,-3.6284,-3.6284,-3.6284,-3.6284,-3.6284,0.0,0.0,0.0,-3.6284,-3.6284,-3.6284,-3.6284,-3.6284,-3.6284,-3.6284,-3.6387,-3.7077,-3.8456,-3.9146,-3.9112,-3.8284,-3.9112,-3.9181,-3.8629,-4.0032,-4.1101,-4.1826,-4.262,-4.2068,-4.0446,-3.9698,-3.8582,-3.7305,-3.7374,-3.7409,-3.7409,-3.7478,0.0,0.0,0.0,0.0,0.0,0.0,0.0,0.0,-3.6284,-3.6904,-3.7858,-3.9043,-4.1619,-4.4552,-4.6562,-4.7913,-4.9465,-5.239,-5.2183,-5.1494,-5.205,-5.2188,-5.2188,-5.2188,-5.1735,-5.177,-5.3218,-5.3494,-5.3736,-5.4391,-5.4494,-5.4494,-5.4494,-5.515,-5.5908,-5.6702,-5.746,-5.8185,-5.8944,-5.9012,-5.9012,-5.9012,-5.9012,-5.9012,-5.9012,-5.9012,-5.9012,-5.9012,-5.9012,-5.9047,-5.9116,-5.984,-6.0255,-6.0393,-6.1189,-6.2607,-6.451,-6.4999,-6.4701,-6.3919,-6.5945,-6.728,-6.8057,-6.8823,-7.0,-7.1293,-7.1366,-7.1872,-7.2496,-7.2496,-7.2496,-7.2496,0.0,0.0,0.0,0.0,0.0,0.0,-3.6284,-3.6284,-3.6284,-3.6284,-3.6284,-3.6284,-3.6284,-3.6284,0.0,-3.6284,-3.6284,-3.6284,-3.6284,-3.6284,-3.6284,-3.6284,-3.6904,-3.7409,-3.7754,-3.7892,-3.7284,-3.5939,-3.7284,-3.818,-3.8617,-3.8939,-3.9491,-4.0215,-4.1032,-3.9894,-3.7284,-3.7111,-3.6588,-3.589,-3.636,-3.6623,-3.679,-3.7292,-3.6973,0.0,0.0,0.0,0.0,0.0,0.0,0.0,-3.6284,-3.7249,-3.818,-3.7284,-3.9629,-4.2482,-4.2388,-4.5527,-4.9085,-5.0424,-5.1839,-5.277,-5.2321,-5.2188,-5.2188,-5.2188,-5.2597,-5.3184,-5.4115,-5.4253,-5.4322,-5.4494,-5.4494,-5.4494,-5.4494,-5.515,-5.5908,-5.6702,-5.746,-5.8185,-5.8944,-5.9012,-5.9012,-5.9012,-5.9012,-5.9012,-5.9012,-5.9012,-5.9012,-5.9012,-5.9012,-5.9323,-5.9944,-6.0116,-6.0739,-6.1838,-6.3173,-6.4053,-6.4479,-6.4102,-6.4678,-6.6067,-6.7168,-6.8059,-6.8778,-7.0201,-7.0991,-7.1329,-7.2018,-7.2349,-7.2496,-7.2496,-7.2496,-7.2409,0.0,0.0,0.0,0.0,0.0,0.0,0.0,0.0,-3.6732,-3.6353,-3.6284,-3.6284,-3.6284,-3.6284,0.0,0.0,-3.6284,-3.6284,-3.6284,-3.6284,-3.6284,-3.6284,-3.7077,-3.734,-3.6939,-3.7305,-3.6732,-3.518,-3.5649,-3.665,-3.8099,-3.8422,-3.9388,-4.0802,-4.086,-3.9674,-3.7575,-3.6679,-3.6222,-3.6078,-3.6018,-3.618,-3.6423,-3.6582,-3.6277,-3.5766,-3.5766,0.0,0.0,0.0,0.0,0.0,0.0,0.0,-3.756,-3.7836,-3.9319,-4.1457,-4.3975,-4.67,-4.9327,-5.1597,-5.2494,-5.2735,-5.2291,-5.2188,-5.2188,-5.2188,-5.2839,-5.3632,-5.4356,-5.4494,-5.4494,-5.4494,-5.4494,-5.4632,-5.4977,-5.5701,-5.646,-5.7219,-5.7978,-5.8599,-5.8978,-5.9012,-5.9012,-5.9012,-5.9012,-5.9012,-5.9012,-5.9012,-5.9012,-5.9012,-5.9392,-5.9771,-6.0185,-6.1259,-6.2158,-6.2879,-6.434,-6.5386,-6.6089,-6.539,-6.6012,-6.7794,-6.8231,-6.9023,-7.011,-7.0926,-7.1513,-7.1945,-7.2349,-7.2496,-7.2496,-7.2496,-7.2496,-7.2438,0.0,0.0,0.0,0.0,0.0,0.0,0.0,0.0,0.0,-3.6387,-3.6284,-3.6284,-3.6284,-3.6284,-3.6249,0.0,0.0,0.0,-3.5939,-3.6042,-3.618,-3.6284,-3.7077,-3.7133,-3.6318,-3.6939,-3.6477,-3.48,-3.418,-3.5062,-3.7305,-3.7905,-3.9422,-4.1585,-4.0722,-3.9604,-3.8321,-3.6499,-3.5882,-3.6112,-3.5483,-3.5496,-3.5897,-3.554,-3.5253,-3.5007,-3.5007,-3.5387,-3.5939,-3.6077,0.0,0.0,0.0,0.0,-3.6663,-3.856,-3.9388,-4.0836,-4.6044,-4.8189,-4.9878,-5.3598,-5.346,-5.2425,-5.2425,-5.2425,-5.2425,-5.2425,-5.3046,-5.377,-5.4391,-5.4494,-5.4494,-5.4494,-5.4494,-5.477,-5.5529,-5.6288,-5.7081,-5.7805,-5.8564,-5.9012,-5.9012,-5.9012,-5.9012,-5.9012,-5.9012,-5.9012,-5.9012,-5.9012,-5.9081,-5.9219,-5.984,-6.0393,-6.0774,-6.2575,-6.3716,-6.4054,-6.5479,-6.6854,-6.8051,-6.7542,-6.7976,-6.9119,-6.9265,-7.0073,-7.1293,-7.1439,-7.1908,-7.2496,-7.2496,-7.2496,-7.2496,-7.2496,-7.2496,-7.2496,0.0,0.0,0.0,0.0,0.0,0.0,0.0,0.0,0.0,0.0,-3.6284,-3.6284,-3.6284,-3.6284,-3.6042,-3.5387,-3.5939,-3.5766,-3.4456,0.0,0.0,-3.6284,-3.7077,-3.7133,-3.6318,-3.6422,-3.5387,-3.3214,-3.311,-3.4214,-3.6456,-3.6559,-3.7801,-3.9939,-3.8582,-3.712,-3.5607,-3.4027,-3.3429,-3.3562,-3.3363,-3.3759,-3.4491,-3.4347,-3.4273,-3.4268,-3.4268,-3.4303,-3.451,-3.5111,-3.5352,0.0,0.0,0.0,-3.6353,-3.6663,-3.8146,-4.0008,-4.1526,-4.5803,-5.0597,-5.3736,-5.3873,-5.3253,-5.3253,-5.3253,-5.3253,-5.3253,-5.3839,-5.4391,-5.4494,-5.4494,-5.4494,-5.4494,-5.4494,-5.477,-5.5529,-5.6288,-5.7081,-5.7805,-5.8564,-5.9012,-5.9012,-5.9012,-5.9012,-5.9012,-5.9012,-5.9012,-5.9012,-5.9012,-5.9323,-6.0013,-6.0151,-6.112,-6.3026,-6.3338,-6.4457,-6.6259,-6.7773,-6.8558,-6.8788,-6.9375,-6.976,-6.9963,-7.0697,-7.1073,-7.1329,-7.2055,-7.2422,-7.2496,-7.2496,-7.2496,-7.2496,-7.2496,-7.2496,-7.2496,0.0,0.0,0.0,0.0,0.0,0.0,0.0,0.0,0.0,0.0,0.0,-3.6284,-3.6284,-3.6284,-3.6008,-3.5249,-3.549,-3.5214,-3.4165,-3.4387,-3.4904,-3.5663,-3.6008,-3.6063,-3.5697,-3.5663,-3.4766,-3.2904,-3.2904,-3.4076,-3.6284,-3.6284,-3.7884,-4.0593,-3.8216,-3.6896,-3.6309,-3.3227,-3.2457,-3.3191,-3.2511,-3.3488,-3.5232,-3.3876,-3.4184,-3.5145,-3.3869,-3.3697,-3.4234,-3.4938,-3.518,-3.5318,-3.6077,0.0,0.0,0.0,-3.7008,-3.8629,-4.2388,-4.6631,-5.0735,-5.377,-5.3942,-5.3391,-5.3391,-5.3391,-5.3391,-5.3391,-5.4011,-5.4494,-5.4494,-5.4494,-5.4494,-5.4494,-5.4874,-5.5391,-5.6184,-5.6943,-5.7702,-5.8426,-5.8806,-5.9012,-5.9012,-5.9012,-5.9012,-5.9012,-5.9012,-5.9012,-5.9012,-5.9426,-5.984,-6.0185,-6.1398,-6.2506,-6.3511,-6.4689,-6.6175,-6.796,-6.9045,-6.9816,-7.0257,-7.0624,-7.077,-7.0807,-7.1174,-7.155,-7.2018,-7.2349,-7.2496,-7.2496,-7.2496,-7.2496,-7.2496,-7.2496,-7.2496,-7.2496,0.0,0.0,0.0,0.0,0.0,0.0,0.0,0.0,0.0,0.0,0.0,-3.6284,-3.6284,0.0,0.0,0.0,-3.4731,-3.4214,-3.3302,-3.3406,-3.3766,-3.4318,-3.4697,-3.48,-3.4628,-3.4421,-3.3805,-3.2743,-3.2477,-3.3755,-3.643,-3.6471,-3.8356,-4.1547,-3.8622,-3.72,-3.6788,-3.3178,-3.2284,-3.321,-3.2559,-3.3808,-3.5897,-3.4706,-3.5467,-3.6835,-3.4352,-3.3869,-3.4387,-3.4559,-3.4628,-3.4731,-3.549,-3.587,0.0,0.0,0.0,-3.7456,-4.2837,-4.6079,-4.8838,-5.2459,-5.2942,-5.2735,-5.3494,-5.3529,-5.346,-5.3632,-5.4115,-5.4494,-5.4494,-5.4494,-5.4494,-5.4494,-5.515,-5.5908,-5.6702,-5.7426,-5.8185,-5.8909,-5.9012,-5.9012,-5.9012,-5.9012,-5.9012,-5.9012,-5.9012,-5.9081,-5.9288,-5.9875,-6.0358,-6.0771,-6.2577,-6.3648,-6.4025,-6.6211,-6.7932,-6.9229,-7.0036,-7.0734,-7.1293,-7.1541,-7.1615,-7.1615,-7.1615,-7.1945,-7.2496,-7.2496,-7.2496,-7.2496,-7.2496,-7.2496,-7.2496,-7.2496,-7.2496,-7.2496,0.0,0.0,0.0,0.0,0.0,0.0,0.0,0.0,0.0,0.0,0.0,-3.6284,-3.6284,-3.5663,-3.4938,-3.4234,-3.3455,-3.2421,-3.099,-3.1524,-3.1938,-3.1972,-3.3371,0.0,-3.3041,-3.2317,-3.2086,-3.2319,-3.1323,-3.285,-3.6781,-3.69,-3.8812,-4.2062,-3.9613,-3.7505,-3.5649,-3.3647,-3.2873,-3.3011,-3.3686,-3.4495,-3.5476,-3.75,-3.8812,-3.9112,-3.6146,-3.5111,-3.4938,-3.349,-3.3007,-3.3145,-3.3938,-3.4683,-3.5249,0.0,0.0,0.0,-4.0273,-4.1757,-4.3664,-4.8907,-5.0218,-5.0942,-5.3804,-5.3908,-5.3598,-5.4322,-5.4494,-5.4494,-5.4494,-5.4494,-5.4494,-5.4494,-5.515,-5.5908,-5.6702,-5.7426,-5.8185,-5.8909,-5.9012,-5.9012,-5.9012,-5.9012,-5.9012,-5.9012,-5.9012,-5.9323,-6.0082,-6.0185,-6.0875,-6.2324,-6.3136,-6.4129,-6.5454,-6.7666,-6.9201,-7.0036,-7.0844,-7.1284,-7.1329,-7.2092,-7.2459,-7.2459,-7.2459,-7.2459,-7.2496,-7.2496,-7.2496,-7.2496,-7.2496,-7.2496,-7.2496,-7.2496,-7.2496,-7.2496,0.0,0.0,0.0,0.0,0.0,0.0,0.0,0.0,0.0,0.0,0.0,0.0,0.0,-3.5352,-3.4697,-3.3421,-3.2628,-3.1972,-3.142,-3.1662,-3.2007,-3.249,-3.3524,-3.3697,-3.2938,-3.3357,-3.2913,-3.1529,-3.1655,-3.2827,-3.496,-3.5289,-3.6643,-3.8708,-3.8135,-3.7559,-3.6771,-3.3283,-3.2091,-3.2666,-3.4409,-3.6481,-3.862,-3.9909,-4.1036,-4.1619,-3.9008,-3.6835,-3.518,-3.5111,-3.4456,-3.3697,-3.4027,-3.4594,-3.518,-3.518,-3.5732,-3.6973,-4.0066,-4.1101,-4.2344,-4.6734,-4.8941,-5.0424,-5.1977,-5.3253,-5.4184,-5.446,-5.4494,-5.4494,-5.4494,-5.4494,-5.4667,-5.515,-5.5874,-5.6633,-5.7391,-5.815,-5.8702,-5.8978,-5.9012,-5.9012,-5.9012,-5.9012,-5.9012,-5.9012,-5.9495,-5.9909,-6.0185,-6.1116,-6.2125,-6.3136,-6.4235,-6.5529,-6.6939,-6.8778,-6.9816,-7.011,-7.1431,-7.2092,-7.2092,-7.2386,-7.2496,-7.2496,-7.2496,-7.2496,-7.2496,-7.2496,-7.2496,-7.2496,-7.2496,-7.2496,-7.2496,-7.2496,-7.2496,-7.2496,0.0,0.0,0.0,0.0,0.0,0.0,0.0,0.0,-3.6284,-3.6284,0.0,0.0,0.0,0.0,-3.449,-3.2697,-3.1869,-3.1317,-3.1041,-3.1282,-3.1662,-3.2145,-3.3145,-3.3317,-3.2559,-3.3531,-3.3246,-3.1677,-3.1843,-3.2786,-3.4467,-3.4532,-3.5506,-3.7169,-3.6879,-3.6899,-3.7024,-3.3723,-3.2459,-3.2897,-3.5735,-3.7746,-3.9384,-4.1812,-4.2746,-4.2551,-4.0733,-3.8629,-3.6801,-3.7284,-3.6801,-3.5835,-3.5076,-3.4628,-3.4525,-3.5042,-3.5559,-3.6422,-3.8732,-3.9549,-4.0687,-4.4492,-4.6389,-4.8045,-5.0838,-5.2252,-5.3287,-5.4287,-5.4494,-5.4494,-5.4494,-5.4494,-5.4736,-5.5495,-5.6288,-5.7047,-5.7805,-5.853,-5.9012,-5.9012,-5.9012,-5.9012,-5.9012,-5.9254,-5.9392,-5.9392,-6.0116,-6.0703,-6.0944,-6.1944,-6.3031,-6.4197,-6.534,-6.6668,-6.8091,-6.9155,-6.9816,-7.011,-7.1468,-7.2092,-7.2129,-7.2386,-7.2496,-7.2496,-7.2496,-7.2496,-7.2496,-7.2496,-7.2496,-7.2496,-7.2496,-7.2496,-7.2496,-7.2496,-7.2496,-7.2496,0.0,0.0,0.0,0.0,0.0,0.0,-3.6353,-3.6318,-3.6284,-3.6284,0.0,0.0,0.0,0.0,0.0,-3.2076,-3.1214,-3.0455,-2.9661,-3.0317,-3.0731,-3.0731,-3.2145,-3.2593,-3.1853,-3.2596,-3.293,-3.2811,-3.1694,-3.2636,-3.5491,-3.4759,-3.5664,-3.7819,-3.5981,-3.556,-3.6168,-3.5027,-3.4125,-3.3792,-3.7536,-3.8237,-3.7621,-4.3227,-4.4035,-4.2058,-4.1367,-4.0515,-3.9767,-3.9767,-3.9698,-3.925,-3.6939,-3.4697,-3.3214,-3.4731,-3.518,-3.5352,0.0,0.0,0.0,-4.2102,-4.2516,-4.3699,-5.0424,-5.0907,-5.0769,-5.3804,-5.4425,-5.4425,-5.4494,-5.4529,-5.477,-5.5529,-5.6288,-5.7081,-5.784,-5.8564,-5.9012,-5.9012,-5.9012,-5.9012,-5.9047,-5.9737,-6.022,-6.022,-6.0909,-6.1668,-6.2461,-6.2532,-6.352,-6.5558,-6.6313,-6.7396,-6.8862,-6.8898,-6.9302,-7.0073,-7.0881,-7.1256,-7.1321,-7.2092,-7.2459,-7.2459,-7.2496,-7.2496,-7.2496,-7.2496,-7.2496,-7.2496,-7.2496,-7.2496,-7.2496,-7.2496,-7.2496,-7.2496,0.0,0.0,0.0,0.0,0.0,-3.7167,-3.7167,-3.6663,-3.6284,0.0,0.0,0.0,-3.5559,-3.5318,-3.4938,-3.4318,-3.3613,-3.28,-3.2007,-3.1662,-3.1489,-3.1489,-3.2957,-3.354,-3.3054,-3.3988,-3.4034,-3.3136,-3.2596,-3.2572,-3.3059,-3.2957,-3.3827,-3.5426,-3.4657,-3.4569,-3.4907,-3.3509,-3.3773,-3.5225,-3.6863,-3.9277,-4.2159,-4.4308,-4.5386,-4.583,-4.5621,-4.3736,-4.1354,-4.1354,-3.9928,-3.7719,-3.5442,-3.3869,-3.311,-3.4111,-3.4766,-3.5352,-3.6111,0.0,0.0,0.0,0.0,0.0,-4.5001,-4.6665,-4.839,-5.1425,-5.2046,-5.2563,-5.4218,-5.4943,-5.5563,-5.6357,-5.6667,-5.7253,-5.853,-5.8875,-5.9012,-5.9012,-5.9012,-5.9254,-5.9806,-6.0082,-6.0427,-6.0944,-6.1703,-6.2255,-6.2461,-6.3484,-6.4491,-6.5558,-6.6313,-6.7141,-6.8017,-6.8605,-6.9009,-6.9229,-7.0036,-7.044,-7.0477,-7.1284,-7.1651,-7.1688,-7.2275,-7.2496,-7.2496,-7.2496,-7.2496,-7.2496,-7.2496,-7.2496,-7.2496,-7.2496,-7.2496,-7.2496,0.0,0.0,-3.8939,-3.8629,-3.8513,-3.8306,-3.803,-3.756,-3.7249,0.0,0.0,0.0,-3.6215,-3.6422,-3.6249,-3.5283,-3.4545,-3.3766,-3.2938,-3.2214,-3.18,-3.18,-3.3302,-3.3833,-3.3242,-3.4791,-3.4836,-3.3343,-3.3147,-3.2902,-3.2618,-3.2337,-3.2834,-3.3958,-3.3347,-3.3299,-3.3707,-3.2412,-3.2866,-3.4747,-3.7647,-3.9792,-4.16,-4.441,-4.5364,-4.5317,-4.6066,-4.4596,-4.2484,-4.3771,-4.1845,-3.8755,-3.7719,-3.5766,-3.3869,-3.4061,-3.4855,-3.5732,-3.618,-3.6284,-3.6559,-3.7663,0.0,0.0,-4.4216,-4.5872,-4.7734,-5.1701,-5.2528,-5.2942,-5.4253,-5.5115,-5.5874,-5.6667,-5.7047,-5.7667,-5.884,-5.9012,-5.9012,-5.9012,-5.9012,-5.9323,-6.0116,-6.0461,-6.0978,-6.1737,-6.2496,-6.2944,-6.2944,-6.4252,-6.5204,-6.559,-6.6582,-6.7468,-6.8201,-6.8678,-6.9082,-6.9412,-7.022,-7.0587,-7.0624,-7.1431,-7.1798,-7.1835,-7.2312,-7.2496,-7.2496,-7.2496,-7.2496,-7.2496,-7.2496,-7.2496,-7.2496,-7.2496,-7.2496,-7.2496,0.0,0.0,-3.956,-3.9043,-3.9457,-3.9629,-3.9077,-3.8836,-3.8732,0.0,-3.8272,-3.7927,-3.7996,-3.8422,-3.7927,-3.587,-3.4869,-3.3973,-3.3076,-3.2352,-3.1903,-3.18,-3.3302,-3.3805,-3.3118,-3.5137,-3.5352,-3.3582,-3.3493,-3.3349,-3.3166,-3.2415,-3.2487,-3.3151,-3.2118,-3.2065,-3.2743,-3.1691,-3.1955,-3.3566,-3.878,-3.9749,-3.8685,-4.3893,-4.4594,-4.3007,-4.4691,-4.439,-4.3629,-4.6305,-4.4714,-4.1585,-4.1723,-3.9146,-3.5856,-3.4683,-3.5456,-3.6628,-3.649,-3.6422,-3.6732,-3.8008,-3.7974,0.0,-4.5216,-4.6182,-4.7251,-5.2218,-5.3322,-5.3494,-5.3804,-5.4563,-5.5357,-5.6046,-5.7048,-5.8048,-5.8909,-5.9012,-5.9012,-5.9012,-5.9081,-5.9461,-6.0254,-6.1013,-6.1772,-6.2565,-6.322,-6.36,-6.36,-6.477,-6.5526,-6.559,-6.691,-6.7963,-6.8752,-6.8788,-6.9119,-6.9816,-7.066,-7.0999,-7.1036,-7.1982,-7.2386,-7.2386,-7.2459,-7.2496,-7.2496,-7.2496,-7.2496,-7.2496,-7.2496,-7.2496,-7.2496,-7.2496,-7.2496,-7.2496,-3.9077,-3.9491,-4.0043,-4.117,-4.0963,-4.0825,-4.1274,-4.0284,-3.9698,-4.0377,-4.0342,-4.048,-4.1067,-4.0146,-3.9319,-3.887,-3.7008,-3.5283,-3.3938,-3.311,-3.2421,-3.1834,-3.3302,-3.4183,-3.4368,-3.5308,-3.5498,-3.4852,-3.3882,-3.3073,-3.2487,-3.2057,-3.2074,-3.2452,-3.1661,-3.1878,-3.2759,-3.1927,-3.2977,-3.5235,-3.6366,-3.8651,-4.1582,-4.3337,-4.487,-4.6101,-4.6852,-4.6809,-4.6445,-4.6673,-4.6159,-4.4872,-4.1285,-4.0825,-4.0894,-3.7008,-3.7353,-3.8767,-3.7616,-3.7271,-3.7202,-3.6835,-3.756,0.0,-3.9319,-4.0284,-4.1871,-4.4794,-4.5898,-4.701,-4.9465,-5.1016,-5.2046,-5.2183,-5.478,-5.7293,-5.8806,-5.9012,-5.9012,-5.9012,-5.9564,-6.0254,-6.1013,-6.1806,-6.2565,-6.3324,-6.3531,-6.36,-6.36,-6.4358,-6.5039,-6.559,-6.6434,-6.7219,-6.7907,-6.7907,-6.7981,-6.8164,-6.8972,-6.9376,-6.9412,-7.0881,-7.1513,-7.1578,-7.2239,-7.2496,-7.2496,-7.2496,-7.2496,-7.2496,-7.2496,-7.2496,-7.2496,-7.2496,-7.2496,-7.2496,-3.9008,-3.9767,-4.0687,-4.1826,-4.2033,-4.2171,-4.2551,-4.1964,-4.1585,-4.1999,-4.2378,-4.2171,-4.0974,-4.0836,-4.0077,-3.818,-3.6973,-3.5835,-3.4697,-3.3938,-3.3145,-3.2386,-3.3835,-3.4575,-3.4406,-3.5446,-3.5734,-3.5196,-3.4219,-3.3452,-3.2827,-3.2301,-3.2947,-3.4457,-3.2213,-3.2459,-3.4405,-3.2125,-3.2407,-3.4565,-3.7534,-4.0672,-4.3754,-4.5917,-4.7861,-4.9401,-4.91,-4.8745,-4.8469,-4.8652,-4.7002,-4.4699,-4.3526,-4.2871,-4.193,-3.8456,-3.8801,-3.9802,-3.7525,-3.6904,-3.6904,-3.6904,-3.718,0.0,0.0,-4.0032,-4.117,-4.4251,-4.4872,-4.5423,-4.7327,-4.8913,-5.0085,-5.0493,-5.3579,-5.6022,-5.6186,-5.7671,-5.8909,-5.9391,-5.9699,-6.0386,-6.1626,-6.1966,-6.2515,-6.3383,-6.3452,-6.3639,-6.4075,-6.4702,-6.5433,-6.6125,-6.6765,-6.7449,-6.8202,-6.8202,-6.8385,-6.8788,-6.9678,-7.011,-7.0146,-7.1358,-7.1908,-7.1945,-7.2312,-7.2496,-7.2496,-7.2496,-7.2496,-7.2496,-7.2496,-7.2496,-7.2496,-7.2496,-7.2496,-7.2496,-3.8767,-3.9963,-4.1136,-4.1895,-4.2654,-4.3207,-4.3207,-4.3207,-4.3207,-4.3207,-4.3966,-4.3595,-4.1285,-4.2009,-4.1423,-3.8318,-3.7801,-3.7111,-3.5939,-3.5304,-3.4525,-3.3593,-3.4594,-3.4993,-3.4525,-3.5559,-3.5732,-3.4993,-3.4234,-3.3679,-3.328,-3.2564,-3.349,-3.5723,-3.328,-3.3464,-3.549,-3.2869,-3.2904,-3.5059,-3.9849,-4.2426,-4.3757,-4.7729,-5.001,-5.1003,-5.0713,-5.0338,-5.0031,-5.0328,-4.7779,-4.4691,-4.563,-4.4837,-4.2906,-3.9733,-4.0342,-4.1285,-3.8043,-3.7284,-3.7456,-3.765,-3.7456,-3.7836,0.0,0.0,0.0,-4.4458,-4.4777,-4.4751,-4.5561,-4.6672,-4.7803,-4.8875,-5.1718,-5.3547,-5.2814,-5.5235,-5.7465,-5.8461,-5.9452,-6.0406,-6.141,-6.13,-6.1742,-6.3124,-6.2787,-6.309,-6.4462,-6.5204,-6.5878,-6.6618,-6.7154,-6.7771,-6.8401,-6.8429,-6.886,-6.9636,-7.0584,-7.1118,-7.1207,-7.2042,-7.2409,-7.2438,-7.2438,-7.2467,-7.2496,-7.2496,-7.2496,-7.2496,-7.2496,-7.2496,-7.2496,-7.2496,-7.2496,-7.2496,-3.9319,-4.0308,-4.1136,-4.1895,-4.2654,-4.3207,-4.3207,-4.3207,-4.3207,-4.3207,-4.4423,-4.5397,-4.5803,-4.5328,-4.4846,-4.4397,-4.3147,-4.124,-3.841,-3.8134,-3.7422,-3.5973,-3.5456,-3.5456,-3.6042,-3.5559,-3.4938,-3.4234,-3.3421,-3.2992,-3.2926,-3.2219,-3.2046,-3.2461,-3.4723,-3.4806,-3.3386,-3.4973,-3.7698,-4.1011,-4.1508,-4.0362,-3.8929,-4.4507,-4.7026,-4.7936,-5.0532,-5.1383,-5.1073,-4.9527,-4.9136,-4.8562,-4.4794,-4.614,-4.7838,-4.1457,-4.2595,-4.5147,-4.1388,-4.086,-4.0894,-3.8939,-3.9445,-3.979,-3.7456,0.0,-3.9767,-3.9526,0.0,-4.1484,-4.2354,0.0,0.0,-4.5226,-4.6995,-4.8621,-4.9995,-5.1266,-5.2461,-5.3727,-5.8425,-6.0847,-5.9072,-5.9009,-6.0174,-6.2833,-6.0902,-6.0982,-6.4183,-6.5041,-6.5721,-6.6404,-6.6975,-6.7275,-6.7384,-6.7561,-6.7963,-6.8588,-6.9571,-7.0368,-7.088,-7.1683,-7.2174,-7.2329,-7.2329,-7.238,-7.2496,-7.2496,-7.2496,-7.2496,-7.2496,-7.2496,-7.2496,-7.2496,-7.2496,-7.2496,-3.8284,-3.9388,-4.0422,-4.124,-4.1999,-4.2654,-4.3138,-4.3906,-4.432,-4.3897,-4.5147,-4.5906,-4.532,-4.4561,-4.4113,-4.4113,-4.3138,-4.1585,-3.9388,-3.925,-3.818,-3.5766,-3.5766,-3.5594,-3.5042,-3.5145,-3.5042,-3.4731,-3.349,-3.3145,-3.3559,-3.2352,-3.2972,-3.5166,-3.6422,-3.7698,-3.8824,-3.7974,-3.856,-3.9997,-3.9959,-3.9382,-3.9434,-4.6929,-4.9984,-5.0568,-5.2713,-5.2712,-5.1608,-5.0892,-4.9393,-4.7779,-4.7775,-4.6975,-4.563,-4.363,-4.3768,-4.4,-4.1009,-4.1447,-4.2137,-3.9802,-4.0101,-4.0204,-3.7616,-3.7914,-3.8695,-3.8515,0.0,0.0,0.0,0.0,0.0,0.0,-4.566,-4.7291,-4.7209,-4.9604,-5.1877,-5.3276,-5.514,-5.6951,-5.8634,-5.8737,-6.022,-6.3832,-6.1358,-6.1371,-6.5193,-6.5693,-6.6161,-6.6823,-6.7011,-6.7069,-6.7069,-6.7628,-6.8036,-6.8306,-6.9756,-7.0551,-7.0821,-7.1623,-7.2048,-7.2144,-7.2144,-7.2174,-7.2233,-7.2321,-7.2351,-7.238,-7.2467,-7.2496,-7.2496,-7.2496,-7.2496,-7.2467,-3.7146,-3.8525,-3.9871,-4.048,-4.1378,-4.2206,-4.2792,-4.3595,-4.4147,-4.4,-4.5147,-4.5768,-4.5285,-4.4906,-4.4829,-4.5036,-4.4527,-4.3457,-4.1698,-4.1009,-3.9871,-3.8077,-3.6904,-3.618,-3.5959,-3.5456,-3.518,-3.518,-3.3869,-3.3628,-3.4372,-3.3041,-3.3904,-3.6615,-3.7892,-3.9859,-4.2137,-4.0756,-4.0629,-4.1354,-4.0733,-4.137,-4.3385,-4.9333,-5.2126,-5.3017,-5.3952,-5.3304,-5.1945,-5.1254,-4.931,-4.7477,-4.9437,-4.787,-4.5449,-4.6237,-4.6082,-4.505,-4.2482,-4.3089,-4.3724,-4.0767,-4.048,-4.0331,-3.817,-3.8419,-3.9161,-3.9434,-4.0267,0.0,0.0,0.0,-4.2185,-4.3049,0.0,-4.5965,-4.5436,-4.7663,-4.9943,-5.1499,-5.1955,-5.3661,-5.7555,-5.7075,-5.8479,-6.3121,-6.065,-6.1056,-6.5859,-6.6136,-6.6476,-6.7126,-6.7048,-6.707,-6.7288,-6.7898,-6.8407,-6.8813,-7.0125,-7.0841,-7.0999,-7.1612,-7.1897,-7.1964,-7.1964,-7.1957,-7.2018,-7.2174,-7.2204,-7.2233,-7.2321,-7.238,-7.238,-7.2409,-7.2409,-7.2351,-3.6353,-3.8146,-3.9698,-3.9733,-4.0974,-4.2033,-4.2009,-4.1481,-4.1585,-4.3034,-4.3897,-4.5208,-4.7355,-4.8189,-4.8913,-4.9735,-4.9769,-4.8803,-4.6527,-4.4285,-4.3664,-4.5018,-3.9457,-3.7663,-4.0618,-3.7077,-3.518,-3.518,-3.4441,-3.4421,-3.5145,-3.4387,-3.4096,-3.4407,-3.8824,-4.0446,-4.0008,-4.2896,-4.5803,-4.8258,-4.6052,-4.7595,-5.1101,-4.9937,-5.1131,-5.3424,-5.3007,-5.2664,-5.2004,-4.9468,-4.8977,-4.9258,-4.793,-4.8914,-5.0365,-4.9507,-5.0409,-5.1068,-4.7965,-4.7352,-4.6493,-4.1999,-4.0894,-4.0389,-3.8523,-3.9884,-4.1711,-4.2103,-4.3857,-4.5098,-4.4454,-4.3589,-4.3363,-4.4719,-4.3871,0.0,0.0,-4.4591,-4.4576,-4.6347,-4.9608,-5.2619,-5.4899,-5.2663,-5.3519,-5.9491,-5.751,-5.8905,-6.556,-6.5985,-6.6294,-6.7019,-6.6874,-6.7184,-6.7945,-6.813,-6.8929,-7.033,-7.052,-7.0919,-7.1458,-7.1494,-7.1625,-7.1816,-7.1816,-7.1872,-7.1988,-7.2018,-7.2018,-7.2018,-7.2018,-7.2018,-7.2048,-7.2233,-7.2174,-7.2018,-3.7077,-3.8112,-3.8801,-3.8341,-3.9457,-4.0802,-4.1836,-4.224,-4.2965,-4.4458,-4.5354,-4.6493,-4.8224,-4.8189,-4.8568,-4.9907,-4.9499,-4.8459,-4.6734,-4.4906,-4.4173,-4.463,-4.025,-3.8525,-4.0077,-3.7353,-3.5697,-3.518,-3.4456,-3.4456,-3.518,-3.4476,-3.4372,-3.4973,-3.8525,-4.1078,-4.2827,-4.3862,-4.5458,-4.7272,-4.6709,-4.7903,-5.0175,-5.107,-5.1943,-5.2759,-5.2582,-5.2569,-5.2455,-5.1617,-5.116,-5.1089,-5.2145,-5.1272,-5.01,-5.1343,-5.1769,-5.1643,-5.0599,-5.1844,-5.2219,-4.7038,-4.6094,-4.5328,-4.1008,-4.1288,-4.2353,-4.2008,-4.3636,-4.4922,-4.4356,-4.4248,-4.4378,-4.4806,-4.4263,-4.4009,0.0,-4.4237,-4.457,-4.6241,-4.9185,-5.1579,-5.2697,-5.3716,-5.6261,-6.0905,-6.0431,-6.1831,-6.6265,-6.6512,-6.6638,-6.6845,-6.7359,-6.7728,-6.8017,-6.9092,-6.989,-7.0439,-7.0941,-7.1303,-7.1494,-7.1494,-7.1562,-7.1625,-7.1625,-7.1656,-7.1682,-7.1811,-7.1872,-7.1872,-7.1957,-7.1964,-7.1872,-7.2054,-7.2048,-7.1988,-3.7961,-3.8272,-3.8525,-3.8318,-3.9526,-4.0836,-4.1861,-4.2896,-4.4035,-4.5225,-4.6086,-4.7155,-4.8637,-4.8361,-4.8706,-5.0252,-4.9913,-4.8982,-4.7465,-4.6458,-4.5906,-4.5906,-4.2768,-4.1715,-4.3214,-4.0043,-3.807,-3.754,-3.6028,-3.5407,-3.5594,-3.5111,-3.5145,-3.5697,-3.7905,-4.1078,-4.4699,-4.4699,-4.6355,-4.8998,-4.8881,-4.9699,-5.1068,-5.2401,-5.2414,-5.1825,-5.263,-5.3145,-5.3426,-5.3476,-5.3322,-5.3394,-5.4938,-5.4115,-5.2918,-5.4627,-5.4866,-5.4453,-5.3902,-5.5056,-5.5293,-5.0653,-4.9877,-4.8994,-4.4405,-4.4381,-4.5328,-4.5301,-4.5881,-4.6888,-4.8529,-4.7218,-4.608,-4.6593,-4.5538,-4.4409,0.0,-4.4403,-4.5236,-4.5997,-4.7957,0.0,-5.1825,-5.2684,-5.5574,-6.1552,-6.0955,-6.2223,-6.6569,-6.6786,-6.6786,-6.6786,-6.7583,-6.8162,-6.8416,-6.972,-7.0517,-7.0806,-7.1277,-7.1494,-7.1494,-7.1494,-7.1494,-7.1494,-7.1494,-7.1494,-7.1494,-7.1656,-7.1687,-7.1687,-7.1775,-7.178,-7.1718,-7.1872,-7.1866,-7.1805,-3.8767,-3.872,-3.8974,-3.9698,-4.0905,-4.1895,-4.2102,-4.331,-4.4492,-4.5397,-4.6155,-4.7251,-4.8741,-4.8913,-4.9499,-5.1045,-5.1149,-5.0533,-4.9051,-4.8879,-4.8913,-4.9016,-4.6776,-4.6829,-4.9635,-4.4649,-4.1939,-4.1815,-3.889,-3.7064,-3.6353,-3.6318,-3.6284,-3.6353,-3.7133,-4.0422,-4.5328,-4.5484,-4.8646,-5.351,-5.2684,-5.3,-5.3901,-5.3973,-5.2554,-5.084,-5.3141,-5.4306,-5.4774,-5.4846,-5.539,-5.5957,-5.6067,-5.7119,-5.8391,-5.8992,-5.9346,-5.9258,-5.7785,-5.7021,-5.5972,-5.3023,-5.2257,-5.1538,-4.8685,-4.922,-5.0591,-5.1624,-5.0583,-5.1064,-5.6237,-5.2114,-4.8387,-4.9713,-4.7337,-4.4838,-4.3353,-4.5091,-4.6323,-4.5635,0.0,0.0,0.0,0.0,-5.1973,-6.1073,-5.9072,-6.0194,-6.646,-6.6677,-6.6677,-6.6858,-6.7692,-6.8488,-6.9243,-7.0046,-7.0806,-7.1494,-7.1494,-7.1494,-7.1494,-7.1494,-7.1494,-7.1494,-7.1494,-7.1494,-7.1494,-7.1494,-7.1494,-7.1494,-7.1494,-7.1494,-7.1526,-7.1718,-7.1656,-7.1494,-3.9457,-4.0319,-4.1205,-4.1378,-4.0342,-4.0422,-4.3276,-4.3069,-4.3664,-4.6707,-4.7293,-4.8189,-5.0257,-5.0528,-5.0878,-5.1839,-5.1912,-5.174,-5.1326,-5.0321,-5.0459,-5.2149,-4.8941,-4.7997,-4.9888,-4.4733,-4.1968,-4.1962,-3.8372,-3.6801,-3.7202,-3.6559,-3.6284,-3.6353,-3.7133,-4.0135,-4.4682,-4.6269,-5.0545,-5.6151,-5.5336,-5.4511,-5.3869,-5.4988,-5.408,-5.2516,-5.447,-5.534,-5.5644,-5.6121,-5.649,-5.6865,-5.7326,-5.7737,-5.8126,-5.8244,-5.8783,-5.9237,-5.8798,-5.9457,-5.9784,-5.7837,-5.7326,-5.6755,-5.4619,-5.4464,-5.4782,-5.4845,-5.5015,-5.4846,-5.394,-5.2394,-5.0416,-4.7844,-4.6721,-4.625,-4.6432,-4.7011,-4.7772,-4.8749,-5.009,-5.0416,-4.9075,-5.248,-5.5776,-5.8239,-5.9905,-6.2549,-6.6569,-6.5084,-6.5229,-6.7619,-6.9032,-6.9865,-7.0113,-7.0842,-7.1313,-7.1494,-7.1494,-7.1494,-7.1494,-7.1494,-7.1494,-7.1494,-7.1494,-7.1494,-7.1494,-7.1494,-7.1494,-7.1494,-7.1494,-7.1494,-7.1494,-7.1562,-7.1526,-7.1494,-4.0767,-4.1964,-4.3,-4.3,-4.1964,-4.193,-4.4389,-4.4354,-4.4906,-4.7389,-4.8321,-4.9217,-5.0493,-5.1218,-5.1908,-5.2666,-5.2394,-5.1912,-5.1287,-5.108,-5.1198,-5.1738,-5.0967,-5.1179,-5.2544,-4.8755,-4.6033,-4.4549,-4.1137,-3.8775,-3.7486,-3.6864,-3.6676,-3.6836,-3.7477,-4.0044,-4.413,-4.8438,-5.2258,-5.5515,-5.6309,-5.6277,0.0,-5.6235,-5.5884,-5.5269,-5.6296,-5.6536,-5.6502,-5.7138,-5.7408,-5.7546,-5.7867,-5.8253,-5.8584,-5.8951,-5.9612,-6.0346,-6.0652,-6.1447,-6.1924,-6.0982,-6.108,-6.075,-5.8495,-5.8264,-5.8566,-5.8616,-5.7876,-5.7514,-5.8565,-5.5341,-5.1176,-4.7156,-4.6214,-4.6142,-4.6613,-4.7265,-4.7916,-4.846,-5.0234,-5.0452,-4.7932,-5.3458,0.0,-5.7188,-5.9542,-6.2223,-6.5084,-6.4613,-6.5555,-6.8416,-6.9394,-7.004,-7.0372,-7.0806,-7.1168,-7.1494,-7.1494,-7.1494,-7.1494,-7.1494,-7.1494,-7.1494,-7.1494,-7.1494,-7.1494,-7.1494,-7.1494,-7.1494,-7.1494,-7.1494,-7.1494,-7.1494,-7.1494,-7.1494,-4.2561,-4.3621,-4.4587,-4.4483,-4.4621,-4.4975,-4.5742,-4.6362,-4.7044,-4.7879,-4.9355,-5.0321,-5.0424,-5.1528,-5.2528,-5.3322,-5.2666,-5.1666,-5.039,-5.1494,-5.1552,-5.0109,-5.2593,-5.4603,-5.576,-5.3681,-5.1012,-4.7829,-4.471,-4.1241,-3.7487,-3.7026,-3.7029,-3.738,-3.7913,-4.045,-4.4771,-5.1305,-5.4145,-5.4496,-5.6893,-5.8096,-5.833,-5.7506,-5.7546,-5.7997,-5.8107,-5.7752,-5.729,-5.7821,-5.807,-5.8143,-5.8143,-5.8731,-5.9478,-6.0199,-6.0896,-6.1594,-6.2291,-6.256,-6.2695,-6.2915,-6.3587,-6.3647,-6.1452,-6.1521,-6.2172,-6.2567,-6.0412,-6.005,-6.5229,-5.8927,-5.1719,-4.7916,-4.6685,-4.6432,-4.6939,-4.7953,-4.8387,-4.7699,-4.98,0.0,-4.8098,0.0,0.0,0.0,-5.7876,-6.0013,-6.3019,-6.4215,-6.6207,-6.9279,-6.9461,-6.9859,-7.0517,-7.0517,-7.0879,-7.1494,-7.1494,-7.1494,-7.1494,-7.1494,-7.1494,-7.1494,-7.1494,-7.1494,-7.1494,-7.1494,-7.1494,-7.1494,-7.1494,-7.1494,-7.1494,-7.1494,-7.1494,-7.1531,-4.4708,-4.5561,-4.601,-4.5328,-4.6259,-4.7327,-4.8086,-4.781,-4.801,-4.9424,-5.0907,-5.208,-5.2735,-5.2459,-5.2528,-5.3322,-5.2666,-5.2084,-5.1808,-5.205,-5.225,-5.2404,-5.2923,-5.3851,-5.5205,-5.2405,-4.9973,-4.7969,-4.3641,-4.0113,-3.7396,-3.6701,-3.6434,-3.6577,-3.7893,-4.2757,-5.0154,-5.3917,-5.73,-6.0113,-5.9943,-5.9542,-5.8956,-5.815,-5.7927,-5.8107,-5.8767,-5.8477,-5.7844,-5.7973,-5.8437,-5.8964,-5.8964,-5.9538,-6.0236,-6.0382,-6.0493,-6.0639,-6.0786,-6.13,-6.2144,-6.3539,-6.438,-6.5018,-6.5743,-6.5996,-6.6001,-6.5982,-6.5518,-6.4649,-6.3128,-5.8746,-5.4508,-5.1864,-5.1321,-5.2371,-5.5631,-5.4689,-5.3603,-5.3458,-5.6102,-5.5522,-4.9271,-5.2118,0.0,0.0,0.0,-5.65,-6.2838,-6.1571,-6.3563,-7.0004,-7.077,-7.1168,-7.1313,-7.1313,-7.1386,-7.1494,-7.1494,-7.1494,-7.1494,-7.1494,-7.1494,-7.1494,-7.1494,-7.1494,-7.1494,-7.1494,-7.1494,-7.1494,-7.1494,-7.1494,-7.1494,-7.1494,-7.1494,-7.1603,-4.6431,-4.6879,-4.7052,-4.6638,-4.7844,-4.901,-4.939,-4.974,-5.0154,-5.0528,-5.1218,-5.1804,-5.2183,-5.2218,-5.236,-5.2735,-5.208,-5.1602,-5.1602,-5.1546,-5.1899,-5.2829,-5.354,-5.4563,-5.5957,-5.4967,-5.2331,-4.817,-4.5932,-4.2304,-3.7433,-3.6888,-3.6725,-3.7087,-4.0745,-4.4788,-4.9183,-5.4656,-5.7923,-5.953,-6.0604,-6.0786,-6.0346,-5.9538,-5.9245,-5.9318,-5.9685,-5.9575,-5.9245,-5.9245,-5.9501,-5.9808,-5.9808,-6.0089,-6.0493,-6.0896,-6.1006,-6.1117,-6.152,-6.1924,-6.2511,-6.3796,-6.4537,-6.5257,-6.6326,-6.6806,-6.6961,-6.6815,-6.6786,-6.5808,-6.2593,-5.9072,-5.6247,-5.5124,-5.3566,-5.3748,-5.7297,-5.6826,-5.6102,-5.6102,-5.7804,-5.6826,-5.1321,-5.2915,0.0,0.0,0.0,-5.6681,-6.3454,-6.1933,-6.3961,-7.077,-7.0951,-7.1096,-7.1494,-7.1132,-7.1132,-7.1494,-7.1494,-7.1494,-7.1494,-7.1494,-7.1494,-7.1494,-7.1494,-7.1494,-7.1494,-7.1494,-7.1494,-7.1494,-7.1494,-7.1494,-7.1567,-7.1965,-7.211,-7.2183,-4.781,-4.8051,-4.812,-4.7948,-4.9079,-5.0045,-5.0218,-5.1188,-5.1808,-5.139,-5.1326,-5.1326,-5.1326,-5.1735,-5.1946,-5.1946,-5.1405,-5.1014,-5.1014,-5.099,-5.1501,-5.267,-5.3905,-5.5242,-5.6763,-5.7593,-5.5317,-4.9848,-4.882,-4.5039,-3.8726,-3.7583,-3.776,-3.9218,-4.3828,-4.6943,-4.9091,-5.5353,-5.8126,-5.8506,-6.0701,-6.1484,-6.1263,-6.0639,-6.0419,-6.0419,-6.0603,-6.0676,-6.0713,-6.108,-6.097,-6.0676,-6.086,-6.1043,-6.13,-6.1961,-6.2254,-6.2475,-6.2952,-6.3184,-6.3489,-6.4332,-6.4862,-6.5359,-6.6052,-6.6604,-6.6932,-6.6815,-6.6786,-6.5808,-6.2593,-6.0484,-5.8854,-5.7659,-5.5812,-5.545,-5.8094,-5.7876,-5.7659,-5.8166,-5.7876,-5.6645,-5.4001,-5.3675,-5.3675,0.0,0.0,-5.7369,-6.3092,-6.2512,-6.4693,-7.0589,-7.0191,-7.0154,-7.077,-7.0661,-7.0915,-7.1494,-7.1494,-7.1494,-7.1494,-7.1494,-7.1494,-7.1494,-7.1494,-7.1494,-7.1494,-7.1494,-7.1494,-7.1494,-7.1494,-7.1603,-7.182,-7.2472,-7.2834,-7.2979,-4.8672,-4.9258,-4.9562,-4.881,-4.9424,-5.0252,-5.0907,-5.1114,-5.1425,-5.2015,-5.2084,-5.2084,-5.2084,-5.1563,-5.1188,-5.1188,-5.0983,-5.0827,-5.0827,-5.1289,-5.1786,-5.2423,-5.3277,-5.4696,-5.6763,-5.7593,-5.6969,-5.4913,-5.0472,-4.6471,-4.2854,-3.9187,-3.9811,-4.4085,-4.5333,-4.9608,-5.5911,-5.7386,-5.9221,-6.1215,-6.1484,-6.1153,-6.0493,-6.0419,-6.0419,-6.0493,-6.1227,-6.1484,-6.1704,-6.3246,-6.2732,-6.1594,-6.2365,-6.3135,-6.3759,-6.3833,-6.4383,-6.4824,-6.4163,-6.438,-6.5008,-6.5786,-6.5861,-6.5957,-6.6757,-6.6831,-6.6815,-6.6786,-6.6786,-6.5808,-6.2593,-6.4142,-6.4251,-5.9108,-5.9905,-6.1462,-6.2476,-6.0122,-5.9108,-6.1317,-5.7804,-5.5921,-5.7695,-5.277,-5.1769,0.0,-5.6029,-5.6428,-5.9868,-6.1317,-6.3933,-6.8199,-6.8271,-6.8271,-6.8343,-7.0372,-7.1422,-7.1494,-7.1494,-7.1494,-7.1494,-7.1494,-7.1494,-7.1494,-7.1494,-7.1494,-7.1494,-7.1494,-7.1494,-7.1494,-7.1494,-7.1965,-7.2617,-7.269,-7.316,-7.3921,-5.0085,-4.9671,-4.9465,-5.008,-5.0332,-5.0725,-5.1464,-5.2257,-5.2762,-5.2707,-5.2394,-5.2334,-5.2683,-5.2497,-5.2256,-5.2126,-5.2051,-5.2005,-5.2005,-5.2516,-5.3339,-5.4508,-5.5179,-5.636,-5.8194,-5.8584,-5.7703,-5.5596,-5.172,-4.7902,-4.4195,-4.258,-4.3901,-4.7755,-5.1022,-5.4069,-5.7005,-5.9722,-6.1447,-6.2328,-6.2328,-6.2144,-6.1851,-6.1851,-6.2181,-6.2658,-6.2989,-6.3392,-6.3943,-6.4604,-6.4053,-6.3246,-6.4053,-6.453,-6.4824,-6.4824,-6.5044,-6.5228,-6.4897,-6.4904,-6.5201,-6.5979,-6.5979,-6.6009,-6.6837,-6.6903,-6.6786,-6.6786,-6.6786,-6.6424,-6.512,-6.4359,-6.3816,-6.349,-6.3056,-6.3526,-6.5772,-6.5374,-6.5229,-6.6207,-6.4613,-6.3092,-6.2114,-5.7949,-5.5776,-5.6862,-5.2987,-5.3241,-5.9289,-6.0231,-6.1969,-6.5011,-6.838,-6.943,-6.8017,-7.0335,-7.1494,-7.1494,-7.1494,-7.1494,-7.1494,-7.1494,-7.1494,-7.1494,-7.1494,-7.1494,-7.1494,-7.1494,-7.1494,-7.1567,-7.2038,-7.2436,-7.2834,-7.3776,-7.4323,-7.4754,-5.1211,-5.0477,-5.0118,-5.1366,-5.1478,-5.1635,-5.2384,-5.3327,-5.3789,-5.3356,-5.3147,-5.3073,-5.3085,-5.3078,-5.3117,-5.3135,-5.3519,-5.3631,-5.338,-5.4122,-5.4927,-5.586,-5.6456,-5.7446,-5.8841,-5.9294,-5.8841,-5.7336,-5.4142,-5.1096,-4.8233,-4.7058,-4.8379,-5.1867,-5.528,-5.7483,-5.8744,-6.1569,-6.278,-6.278,-6.278,-6.278,-6.278,-6.278,-6.3356,-6.409,-6.409,-6.4604,-6.5338,-6.5595,-6.5264,-6.4897,-6.5485,-6.5668,-6.5642,-6.5579,-6.5736,-6.5883,-6.5574,-6.554,-6.5724,-6.6309,-6.626,-6.6243,-6.6787,-6.6874,-6.6786,-6.6786,-6.6786,-6.6786,-6.6786,-6.5156,-6.4287,-6.5844,-6.5446,-6.5482,-6.7076,-6.7764,-6.7945,-6.7504,-6.5989,-6.483,-6.4432,-6.0448,-5.813,-5.8782,-5.411,-5.3856,-5.9977,-6.0303,-6.1643,-6.4504,-6.8416,-6.9684,-6.8017,-7.0335,-7.1494,-7.1494,-7.1494,-7.1494,-7.1494,-7.1494,-7.1494,-7.1494,-7.1494,-7.1494,-7.1494,-7.1494,-7.1639,-7.1929,-7.2472,-7.3016,-7.3559,-7.4685,-7.5261,-7.5551,-5.1759,-5.1871,-5.2028,-5.2588,-5.2717,-5.3018,-5.3778,-5.3937,-5.3999,-5.3999,-5.4616,-5.4554,-5.3233,-5.3078,-5.3356,-5.3911,-5.5202,-5.5619,-5.4846,-5.5998,-5.6418,-5.5647,-5.6381,-5.7189,-5.7997,-5.9575,-6.075,-6.152,-5.829,-5.6712,-5.6565,-5.2601,-5.2858,-5.6712,-5.6785,-5.9024,-6.2732,-6.278,-6.278,-6.278,-6.278,-6.278,-6.278,-6.278,-6.3356,-6.409,-6.409,-6.4604,-6.5411,-6.6219,-6.6476,-6.6476,-6.6476,-6.6476,-6.6449,-6.6252,-6.6811,-6.7259,-6.6253,-6.6478,-6.6983,-6.6983,-6.6903,-6.6786,-6.6786,-6.6786,-6.6786,-6.6786,-6.6786,-6.6786,-6.6786,-6.7438,-6.7148,-6.4794,-6.704,-6.8337,-6.5953,-6.5627,-6.5048,-6.3454,-5.842,-5.7514,-6.378,-5.7949,-5.7043,-6.4903,-6.1752,-6.0194,-6.1869,-6.1978,-6.3816,-6.7836,-6.8017,-6.8054,-6.8017,-7.0335,-7.1494,-7.1494,-7.1494,-7.1494,-7.1494,-7.1494,-7.1494,-7.1494,-7.1494,-7.1494,-7.1494,-7.1494,-7.1965,-7.269,-7.2726,-7.3667,-7.5047,-7.5083,-7.5623,-7.6275,-5.2405,-5.2457,-5.2714,-5.3405,-5.3896,-5.4242,-5.447,-5.5329,-5.5765,-5.5349,-5.5985,-5.6305,-5.5871,-5.5809,-5.5862,-5.5897,-5.6304,-5.6447,-5.6154,-5.6548,-5.6932,-5.7226,-5.7483,-5.7997,-5.8804,-5.9869,-6.0786,-6.1594,-5.8914,-5.7629,-5.7593,-5.6308,-5.7556,-6.0872,-6.0872,-6.1606,-6.278,-6.278,-6.278,-6.2853,-6.3466,-6.3686,-6.3759,-6.431,-6.5007,-6.5742,-6.5742,-6.6256,-6.699,-6.721,-6.732,-6.732,-6.7212,-6.7185,-6.7158,-6.7131,-6.7195,-6.723,-6.6919,-6.6915,-6.7019,-6.7019,-6.6903,-6.6786,-6.6786,-6.6786,-6.6786,-6.6786,-6.6786,-6.6967,-6.751,-6.7836,-6.7945,-6.7692,-6.8959,-6.972,-6.8959,-6.9321,-6.943,-6.8923,-6.7293,-6.7003,-6.9032,-6.4722,-6.2186,-6.3092,-5.8963,-5.7804,-6.1,-6.3273,-6.4541,-6.4722,-6.8416,-6.9611,-6.8017,-7.0335,-7.1494,-7.1494,-7.1494,-7.1494,-7.1494,-7.1494,-7.1494,-7.1494,-7.1494,-7.1494,-7.1531,-7.211,-7.2472,-7.2834,-7.3921,-7.4649,-7.5155,-7.5732,-7.6094,-7.6275,-5.2946,-5.3272,-5.3623,-5.4012,-5.4894,-5.5543,-5.5543,-5.653,-5.7221,-5.717,-5.7255,-5.7485,-5.7776,-5.7558,-5.734,-5.7253,-5.7556,-5.7593,-5.7262,-5.7556,-5.7923,-5.8437,-5.8437,-5.8841,-5.9648,-6.0456,-6.108,-6.1594,-6.0382,-5.9795,-5.9795,-5.9795,-6.086,-6.278,-6.278,-6.278,-6.2817,-6.3172,-6.3282,-6.3356,-6.42,-6.453,-6.4604,-6.5118,-6.5815,-6.6512,-6.6512,-6.7026,-6.7687,-6.7687,-6.7687,-6.7687,-6.7524,-6.7442,-6.7387,-6.7331,-6.7247,-6.7097,-6.704,-6.7019,-6.6932,-6.6932,-6.6845,-6.6786,-6.6786,-6.6786,-6.6895,-6.7184,-6.7257,-6.751,-6.8307,-6.8706,-6.9068,-6.9569,-7.0299,-7.0806,-7.0806,-7.1205,-7.0951,-6.9466,-6.9285,-6.9285,-6.9285,-6.704,-6.5591,-6.5591,-6.2802,-6.2223,-6.4685,-6.4178,-6.4577,-6.6243,-6.9684,-7.0806,-6.9321,-7.077,-7.1494,-7.1494,-7.1494,-7.1494,-7.1494,-7.1494,-7.1494,-7.1494,-7.1494,-7.1494,-7.1567,-7.2364,-7.2871,-7.3305,-7.4576,-7.5297,-7.5623,-7.6094,-7.6275,-7.6275,-5.3399,-5.4146,-5.4675,-5.4496,-5.5831,-5.6895,-5.6895,-5.7519,-5.8253,-5.9001,-5.8357,-5.8126,-5.8835,-5.8249,-5.7881,-5.807,-5.8731,-5.8841,-5.8143,-5.8804,-5.9221,-5.9258,-5.9258,-5.9648,-6.0382,-6.119,-6.163,-6.1667,-6.2438,-6.278,-6.278,-6.278,-6.278,-6.278,-6.2853,-6.289,-6.2952,-6.3833,-6.4163,-6.4237,-6.5081,-6.5375,-6.5411,-6.5448,-6.5925,-6.6586,-6.6586,-6.7063,-6.7687,-6.7687,-6.7687,-6.766,-6.7524,-6.7359,-6.7154,-6.7011,-6.6983,-6.6961,-6.6815,-6.6786,-6.6786,-6.6786,-6.6786,-6.6822,-6.6858,-6.6895,-6.7112,-6.7909,-6.809,-6.8343,-6.9134,-6.9895,-7.0408,-7.0444,-7.106,-7.1494,-7.1494,-7.1494,-7.0118,-6.646,-6.6025,-6.6025,-6.6025,-6.6025,-6.7438,-7.0842,-7.1132,-7.1168,-7.1096,-6.483,-6.4396,-7.1277,-7.1494,-7.1494,-7.1494,-7.1494,-7.1494,-7.1494,-7.1494,-7.1494,-7.1494,-7.1494,-7.1494,-7.1494,-7.1494,-7.1531,-7.1639,-7.2472,-7.3269,-7.4033,-7.4866,-7.5659,-7.6275,-7.6275,-7.6275,-7.6275,-5.3376,-5.4407,-5.5367,-5.5295,-5.6638,-5.7703,-5.7703,-5.7886,-5.807,-5.8253,-5.8084,-5.8024,-5.8207,-5.806,-5.823,-5.8854,-5.8547,-5.8474,-5.8914,-5.9074,-5.9478,-6.0089,-6.0126,-6.0236,-6.0419,-6.119,-6.1887,-6.2511,-6.2732,-6.278,-6.278,-6.278,-6.278,-6.2817,-6.3503,-6.3796,-6.3833,-6.4677,-6.5007,-6.5081,-6.5888,-6.6219,-6.6292,-6.688,-6.7247,-6.7393,-6.7393,-6.754,-6.7687,-6.7687,-6.7633,-6.7497,-6.7322,-6.7154,-6.704,-6.7019,-6.6932,-6.6815,-6.6786,-6.6786,-6.6786,-6.6786,-6.6786,-6.6967,-6.7583,-6.7728,-6.7945,-6.8742,-6.8923,-6.914,-6.9968,-7.0263,-7.0553,-7.1132,-7.1386,-7.1494,-7.1494,-7.1494,-7.1168,-7.0227,-7.0118,-7.0118,-7.0118,-7.0118,-6.9249,-6.7148,-6.7583,-6.7655,-6.704,-6.5989,-6.7257,-7.1386,-7.1494,-7.1494,-7.1494,-7.1494,-7.1494,-7.1494,-7.1494,-7.1494,-7.1494,-7.1494,-7.1494,-7.1494,-7.1494,-7.1857,-7.2472,-7.3305,-7.4102,-7.4866,-7.5696,-7.613,-7.6275,-7.6275,-7.6275,-7.6275,-5.3775,-5.506,-5.6161,-5.6161,-5.7483,-5.8437,-5.807,-5.7997,-5.8253,-5.8988,-5.8721,-5.86,-5.8967,-5.9003,-5.904,-5.9113,-5.8757,-5.8914,-5.9722,-5.9758,-6.0126,-6.0896,-6.0933,-6.1117,-6.1484,-6.1924,-6.2365,-6.278,-6.278,-6.3025,-6.3392,-6.3392,-6.3613,-6.3954,-6.4457,-6.464,-6.4714,-6.5521,-6.5852,-6.5925,-6.6733,-6.7026,-6.71,-6.7504,-6.7687,-6.7687,-6.7687,-6.7687,-6.7687,-6.7633,-6.7552,-6.7442,-6.7182,-6.704,-6.7063,-6.7368,-6.7135,-6.6786,-6.6786,-6.6786,-6.6895,-6.7257,-6.7366,-6.7547,-6.838,-6.8561,-6.8778,-6.9575,-6.975,-7.0004,-7.077,-7.0879,-7.1024,-7.1422,-7.1494,-7.1494,-7.1494,-7.1494,-7.1494,-7.1494,-7.1494,-7.1494,-7.1494,-7.1494,-7.0625,-6.8452,-6.8706,-6.8778,-6.8307,-6.8706,-6.972,-7.1458,-7.1494,-7.1494,-7.1494,-7.1494,-7.1494,-7.1494,-7.1494,-7.1494,-7.1494,-7.1494,-7.1494,-7.1531,-7.1893,-7.2291,-7.2798,-7.3993,-7.4685,-7.5155,-7.5985,-7.6275,-7.6275,-7.6275,-7.6275,-7.6275,-5.4289,-5.5794,-5.6932,-5.6822,-5.801,-5.8804,-5.8107,-5.7997,-5.8547,-6.0015,-5.9516,-5.9334,-6.014,-6.0213,-5.9993,-5.9444,-5.9504,-5.9869,-6.0529,-6.0566,-6.0933,-6.1741,-6.1777,-6.2108,-6.2805,-6.278,-6.278,-6.278,-6.278,-6.3246,-6.409,-6.409,-6.453,-6.5301,-6.5448,-6.5485,-6.5521,-6.6329,-6.6659,-6.6733,-6.7393,-6.7687,-6.7687,-6.7687,-6.7687,-6.7687,-6.7687,-6.7687,-6.7687,-6.7552,-6.7497,-6.7451,-6.7243,-6.7164,-6.7288,-6.7975,-6.7692,-6.7148,-6.7148,-6.7148,-6.7329,-6.8017,-6.8199,-6.838,-6.9207,-6.9388,-6.9605,-7.0372,-7.0553,-7.0734,-7.1386,-7.1494,-7.1386,-7.1024,-7.1277,-7.1386,-7.1024,-7.1277,-7.1494,-7.1494,-7.1494,-7.1494,-7.1494,-7.1494,-7.1494,-7.1494,-7.1494,-7.1494,-7.1494,-7.1494,-7.1494,-7.1494,-7.1494,-7.1494,-7.1494,-7.1494,-7.1494,-7.1494,-7.1494,-7.1567,-7.1675,-7.1567,-7.1639,-7.1893,-7.2472,-7.2834,-7.3197,-7.454,-7.5155,-7.537,-7.6022,-7.6275,-7.6275,-7.6275,-7.6275,-7.6275,-5.4509,-5.6235,-5.7593,-5.6932,-5.7556,-5.8143,-5.8033,-5.7997,-5.8327,-5.9258,-5.9258,-5.9491,-6.0285,-6.0395,-6.0615,-6.1166,-6.1227,-6.1263,-6.141,-6.141,-6.1777,-6.2585,-6.2622,-6.267,-6.278,-6.278,-6.278,-6.278,-6.278,-6.3246,-6.409,-6.409,-6.453,-6.5338,-6.5999,-6.6329,-6.6366,-6.7173,-6.7504,-6.7504,-6.7677,-6.7687,-6.7687,-6.7687,-6.7687,-6.7687,-6.7687,-6.7687,-6.7687,-6.7687,-6.746,-6.7348,-6.7984,-6.8037,-6.8011,-6.8808,-6.8953,-6.8845,-6.8845,-6.8845,-6.8881,-6.8989,-6.8995,-6.9243,-7.0009,-7.0221,-7.0408,-7.1168,-7.1313,-7.135,-7.1494,-7.1494,-7.0842,-6.8887,-7.0227,-7.0806,-6.8814,-7.0263,-7.1494,-7.1494,-7.1494,-7.1494,-7.1494,-7.1494,-7.1494,-7.1494,-7.1494,-7.1494,-7.1494,-7.1494,-7.1494,-7.1494,-7.1494,-7.1494,-7.1494,-7.1494,-7.1494,-7.1494,-7.1494,-7.1857,-7.2509,-7.182,-7.2255,-7.3523,-7.2943,-7.3486,-7.4721,-7.4974,-7.5515,-7.613,-7.6239,-7.6275,-7.6275,-7.6275,-7.6275,-7.6275,-5.6345,-5.7226,-5.7886,-5.7519,-5.8107,-5.851,-5.807,-5.7997,-5.8437,-5.9685,-5.9869,-6.0162,-6.097,-6.1447,-6.1667,-6.1594,-6.2438,-6.2952,-6.2952,-6.2511,-6.2401,-6.278,-6.278,-6.3025,-6.3503,-6.3503,-6.3723,-6.4163,-6.4163,-6.4567,-6.5375,-6.5375,-6.5815,-6.6623,-6.699,-6.7136,-6.7173,-6.754,-6.7687,-6.7687,-6.7687,-6.7687,-6.7687,-6.7687,-6.7687,-6.7687,-6.7687,-6.7687,-6.7687,-6.7606,-6.7735,-6.7911,-6.8189,-6.845,-6.8778,-6.9642,-6.9533,-6.9207,-6.9207,-6.9207,-6.9316,-6.975,-6.9859,-7.0046,-7.0806,-7.0987,-7.1096,-7.1422,-7.1494,-7.1494,-7.1494,-7.1494,-7.1168,-7.0082,-7.0806,-7.1132,-7.0046,-7.0842,-7.1494,-7.1494,-7.1494,-7.1494,-7.1494,-7.1494,-7.1494,-7.1494,-7.1494,-7.1494,-7.1494,-7.1494,-7.1494,-7.1494,-7.1494,-7.1494,-7.1494,-7.1494,-7.1494,-7.1531,-7.1929,-7.2364,-7.2726,-7.2762,-7.3197,-7.3921,-7.3993,-7.4428,-7.5119,-7.5587,-7.5985,-7.6275,-7.6275,-7.6275,-7.6275,-7.6275,-7.6275,-7.6345,-5.7629,-5.8033,-5.8217,-5.8033,-5.851,-5.8731,-5.8107,-5.8143,-5.8804,-6.0199,-6.075,-6.1263,-6.2071,-6.2915,-6.3135,-6.2511,-6.3649,-6.4383,-6.4383,-6.3759,-6.3367,-6.3367,-6.3367,-6.3686,-6.4347,-6.4383,-6.4677,-6.5301,-6.5301,-6.5705,-6.6512,-6.6512,-6.6916,-6.7687,-6.7687,-6.7687,-6.7687,-6.7687,-6.7687,-6.7687,-6.7687,-6.7687,-6.7687,-6.7687,-6.7687,-6.7687,-6.7687,-6.7797,-6.7981,-6.7872,-6.8219,-6.8771,-6.8779,-6.914,-6.9672,-7.0439,-7.0191,-6.9684,-6.9533,-6.9605,-6.9865,-7.048,-7.0661,-7.0806,-7.1386,-7.1494,-7.1494,-7.1494,-7.1494,-7.1494,-7.1494,-7.1494,-7.1313,-7.077,-7.1132,-7.1313,-7.077,-7.1168,-7.1494,-7.1494,-7.1494,-7.1494,-7.1494,-7.1494,-7.1494,-7.1494,-7.1494,-7.1494,-7.1494,-7.1494,-7.1494,-7.1494,-7.1494,-7.1494,-7.1494,-7.1494,-7.1603,-7.1784,-7.24,-7.2907,-7.3269,-7.3704,-7.4102,-7.45,-7.4902,-7.5192,-7.5442,-7.6058,-7.6345,-7.6378,-7.6345,-7.6345,-7.6378,-7.6345,-7.6345,-7.6448,-5.7042,-5.8084,-5.8854,-5.8143,-5.8033,-5.807,-5.7997,-5.8621,-5.9404,-6.0309,-6.1704,-6.2952,-6.3796,-6.464,-6.5081,-6.5044,-6.5154,-6.5228,-6.5228,-6.5154,-6.5118,-6.5118,-6.5118,-6.5154,-6.5228,-6.5228,-6.5264,-6.5301,-6.5301,-6.5705,-6.6512,-6.6512,-6.6916,-6.7687,-6.7687,-6.7687,-6.7687,-6.7687,-6.7687,-6.7687,-6.7687,-6.7687,-6.7687,-6.7687,-6.7687,-6.7687,-6.7687,-6.8164,-6.8825,-6.8798,-6.9228,-6.9892,-7.0449,-7.0556,-7.0623,-7.1236,-7.1386,-7.1168,-7.048,-7.0806,-7.135,-7.1422,-7.1422,-7.1422,-7.1494,-7.1494,-7.1494,-7.1494,-7.1494,-7.1494,-7.1494,-7.1494,-7.0806,-6.8633,-7.0082,-7.0734,-6.8561,-7.0118,-7.1494,-7.1494,-7.1494,-7.1494,-7.1494,-7.1494,-7.1494,-7.1494,-7.1494,-7.1494,-7.1494,-7.1494,-7.1494,-7.1494,-7.1494,-7.1494,-7.1494,-7.1494,-7.1893,-7.2617,-7.269,-7.3486,-7.4902,-7.4178,-7.4718,-7.6058,-7.5406,-7.5515,-7.6203,-7.6275,-7.6412,-7.6581,-7.6378,-7.6412,-7.6581,-7.6378,-7.6412,-7.669,-5.834,-5.84,-5.8364,-5.8033,-5.7997,-5.818,-5.8694,-5.9428,-6.0419,-6.1741,-6.2879,-6.3906,-6.4751,-6.5118,-6.5301,-6.5301,-6.5778,-6.6035,-6.6035,-6.6512,-6.6329,-6.5338,-6.5301,-6.5521,-6.6035,-6.6035,-6.6292,-6.6769,-6.6769,-6.6953,-6.7247,-6.7247,-6.7393,-6.7687,-6.7687,-6.7687,-6.7687,-6.7687,-6.7687,-6.7687,-6.7687,-6.7687,-6.7687,-6.7687,-6.8017,-6.8458,-6.8458,-6.8972,-6.9633,-6.9633,-7.0071,-7.066,-7.077,-7.1029,-7.135,-7.1453,-7.1494,-7.1458,-7.1168,-7.1277,-7.1494,-7.1494,-7.1494,-7.1494,-7.1494,-7.1494,-7.1494,-7.1494,-7.1494,-7.1494,-7.1494,-7.1494,-7.1205,-7.0335,-7.0915,-7.1205,-7.0299,-7.0951,-7.1494,-7.1494,-7.1494,-7.1494,-7.1494,-7.1494,-7.1494,-7.1494,-7.1494,-7.1494,-7.1494,-7.1494,-7.1494,-7.1494,-7.1494,-7.1494,-7.1494,-7.2001,-7.24,-7.2726,-7.374,-7.4537,-7.5083,-7.5297,-7.5732,-7.6275,-7.5985,-7.6088,-7.6478,-7.6478,-7.6578,-7.6708,-7.6545,-7.6578,-7.6781,-7.709,-7.7338,-7.7611,-5.8841,-5.84,-5.7997,-5.7997,-5.8437,-5.8951,-5.9478,-6.0713,-6.1961,-6.3062,-6.4163,-6.5044,-6.5632,-6.5888,-6.6035,-6.6035,-6.6549,-6.688,-6.688,-6.7393,-6.721,-6.6109,-6.6035,-6.6329,-6.6843,-6.688,-6.7136,-6.7687,-6.7687,-6.7687,-6.7687,-6.7687,-6.7687,-6.7687,-6.7687,-6.7687,-6.7687,-6.7687,-6.7687,-6.7687,-6.7687,-6.7834,-6.8091,-6.8091,-6.8568,-6.9302,-6.9302,-6.9779,-7.0477,-7.0421,-7.0885,-7.1428,-7.1222,-7.1405,-7.1687,-7.1526,-7.1494,-7.1494,-7.1494,-7.1494,-7.1494,-7.1494,-7.1494,-7.1494,-7.1494,-7.1494,-7.1494,-7.1494,-7.1494,-7.1494,-7.1494,-7.1494,-7.1494,-7.1494,-7.1494,-7.1494,-7.1494,-7.1494,-7.1494,-7.1494,-7.1494,-7.1494,-7.1494,-7.1494,-7.1494,-7.1494,-7.1748,-7.2001,-7.2255,-7.2255,-7.2255,-7.2255,-7.2255,-7.2255,-7.2255,-7.2545,-7.2979,-7.3486,-7.454,-7.5261,-7.5515,-7.6058,-7.6309,-7.6412,-7.6412,-7.6512,-7.6643,-7.6643,-7.6773,-7.6866,-7.6708,-7.6919,-7.734,-7.7724,-7.8122,-7.8614,-5.7997,-5.7997,-5.7997,-5.8033,-5.9355,-6.0419,-6.0419,-6.2511,-6.409,-6.4127,-6.5521,-6.6512,-6.6512,-6.721,-6.7687,-6.7687,-6.7687,-6.7687,-6.7687,-6.7687,-6.7687,-6.7687,-6.7687,-6.7687,-6.7687,-6.7687,-6.7687,-6.7687,-6.7687,-6.7687,-6.7687,-6.7687,-6.7687,-6.7687,-6.7714,-6.7714,-6.7714,-6.7724,-6.7724,-6.7724,-6.7724,-6.8201,-6.8898,-6.8898,-6.9412,-7.011,-7.011,-7.0624,-7.1293,-7.1186,-7.1641,-7.224,-7.1909,-7.1656,-7.1494,-7.1494,-7.1494,-7.1494,-7.1494,-7.1494,-7.1494,-7.1494,-7.1494,-7.1494,-7.1494,-7.1494,-7.1494,-7.1494,-7.1494,-7.1494,-7.1494,-7.1494,-7.1494,-7.1494,-7.1494,-7.1494,-7.1494,-7.1494,-7.1494,-7.1494,-7.1531,-7.1531,-7.1531,-7.1531,-7.1531,-7.1531,-7.2255,-7.3088,-7.3885,-7.3921,-7.3921,-7.3921,-7.3921,-7.3921,-7.3921,-7.3124,-7.3523,-7.5083,-7.5083,-7.5551,-7.6275,-7.6275,-7.6412,-7.6614,-7.6614,-7.6676,-7.6801,-7.6801,-7.6897,-7.7092,-7.6902,-7.7409,-7.8268,-7.807,-7.8646,-7.9617,-5.8731,-5.8841,-5.9024,-5.9612,-6.0566,-6.1447,-6.1998,-6.3723,-6.5154,-6.5705,-6.6696,-6.732,-6.732,-6.754,-6.7687,-6.7687,-6.7687,-6.7687,-6.7687,-6.7687,-6.7687,-6.7687,-6.7687,-6.7687,-6.7687,-6.7687,-6.7687,-6.7687,-6.7687,-6.7687,-6.7687,-6.7687,-6.7687,-6.7724,-6.8274,-6.8531,-6.8568,-6.9119,-6.9376,-6.9376,-6.9376,-6.9522,-6.9743,-6.9743,-7.0257,-7.0954,-7.0954,-7.1468,-7.2165,-7.2108,-7.2255,-7.238,-7.224,-7.1933,-7.1687,-7.1687,-7.1625,-7.1494,-7.1494,-7.1494,-7.1494,-7.1494,-7.1494,-7.1494,-7.1494,-7.1494,-7.1494,-7.1494,-7.1494,-7.1494,-7.1494,-7.1494,-7.1494,-7.1494,-7.1494,-7.1494,-7.1494,-7.1494,-7.1494,-7.1494,-7.2001,-7.2364,-7.2364,-7.2871,-7.3197,-7.3197,-7.3414,-7.3667,-7.3885,-7.3921,-7.3921,-7.3921,-7.3921,-7.4175,-7.4721,-7.4468,-7.4612,-7.5083,-7.5659,-7.6125,-7.6478,-7.6478,-7.6578,-7.6741,-7.6741,-7.687,-7.7029,-7.7029,-7.7453,-7.8128,-7.7934,-7.8478,-7.9375,-7.9763,-8.0162,-8.069,-5.9538,-5.9661,-5.9832,-6.0309,-6.1594,-6.2732,-6.3246,-6.4971,-6.6402,-6.6916,-6.7393,-6.7687,-6.7687,-6.7687,-6.7687,-6.7687,-6.7687,-6.7687,-6.7687,-6.7687,-6.7687,-6.7687,-6.7687,-6.7687,-6.7687,-6.7687,-6.7687,-6.7687,-6.7687,-6.7687,-6.7714,-6.8017,-6.8164,-6.8201,-6.9009,-6.9376,-6.9412,-6.9889,-7.011,-7.011,-7.011,-7.0293,-7.0587,-7.0587,-7.1064,-7.1798,-7.1798,-7.2092,-7.2496,-7.2438,-7.2321,-7.2204,-7.2151,-7.1903,-7.1687,-7.1687,-7.1593,-7.1494,-7.1494,-7.1494,-7.1494,-7.1494,-7.1494,-7.1494,-7.1494,-7.1494,-7.1494,-7.1494,-7.1494,-7.1494,-7.1494,-7.1494,-7.1494,-7.1494,-7.1494,-7.1494,-7.1494,-7.1784,-7.1965,-7.1965,-7.269,-7.3197,-7.3197,-7.3631,-7.403,-7.4323,-7.4359,-7.4537,-7.4826,-7.4863,-7.4863,-7.4863,-7.4863,-7.5113,-7.5687,-7.5687,-7.5687,-7.5723,-7.6194,-7.6512,-7.6676,-7.6676,-7.6773,-7.6934,-7.7263,-7.7505,-7.7699,-7.8029,-7.8532,-7.9066,-7.8972,-7.9448,-8.0314,-8.0695,-8.1098,-8.1525,-6.0346,-6.0529,-6.0529,-6.0603,-6.2622,-6.42,-6.42,-6.6182,-6.7687,-6.7687,-6.7687,-6.7687,-6.7687,-6.7687,-6.7687,-6.7687,-6.7687,-6.7687,-6.7687,-6.7687,-6.7687,-6.7687,-6.7687,-6.7687,-6.7687,-6.7687,-6.7687,-6.7687,-6.7687,-6.7724,-6.7797,-6.8568,-6.8935,-6.9045,-6.9853,-7.022,-7.022,-7.0293,-7.0293,-7.0293,-7.0293,-7.077,-7.1403,-7.1403,-7.1872,-7.2496,-7.2496,-7.2496,-7.2467,-7.2358,-7.2091,-7.1847,-7.1847,-7.1687,-7.1526,-7.1526,-7.1494,-7.1494,-7.1494,-7.1494,-7.1494,-7.1494,-7.1494,-7.1494,-7.1494,-7.1494,-7.1494,-7.1494,-7.1494,-7.1494,-7.1494,-7.1567,-7.1603,-7.1603,-7.1675,-7.1712,-7.1712,-7.2364,-7.2834,-7.2834,-7.3523,-7.403,-7.403,-7.4102,-7.4428,-7.5152,-7.5192,-7.5551,-7.6239,-7.6275,-7.6309,-7.6345,-7.6345,-7.6412,-7.6614,-7.6614,-7.6614,-7.6614,-7.6614,-7.6712,-7.6943,-7.6943,-7.7075,-7.738,-7.8112,-7.8542,-7.8772,-7.9507,-7.9837,-7.991,-7.991,-8.0388,-8.1122,-8.1122,-8.1562,-8.2186,-6.119,-6.1337,-6.1557,-6.2181,-6.3833,-6.5044,-6.5044,-6.6549,-6.7687,-6.7687,-6.7687,-6.7687,-6.7687,-6.7687,-6.7687,-6.7687,-6.7687,-6.7687,-6.7687,-6.7687,-6.7687,-6.7687,-6.7687,-6.7687,-6.7687,-6.7687,-6.7687,-6.7687,-6.7687,-6.8017,-6.8641,-6.8825,-6.9229,-6.9889,-7.0697,-7.1064,-7.1101,-7.1725,-7.1982,-7.1982,-7.1982,-7.2092,-7.2239,-7.2239,-7.2349,-7.2496,-7.2496,-7.2496,-7.2467,-7.2358,-7.2144,-7.1957,-7.1957,-7.1872,-7.1718,-7.1718,-7.1625,-7.1494,-7.1494,-7.1494,-7.1494,-7.1494,-7.1494,-7.1494,-7.1494,-7.1494,-7.1494,-7.1494,-7.1494,-7.1494,-7.1494,-7.2001,-7.2436,-7.2436,-7.2979,-7.3378,-7.3378,-7.3559,-7.3667,-7.3667,-7.4323,-7.483,-7.483,-7.5406,-7.5841,-7.6022,-7.6022,-7.613,-7.6275,-7.6275,-7.6378,-7.6548,-7.6512,-7.661,-7.6773,-7.6773,-7.6773,-7.6773,-7.6773,-7.7198,-7.798,-7.798,-7.8405,-7.9218,-7.9402,-7.9475,-7.9543,-7.9727,-8.0167,-8.0755,-8.0755,-8.1232,-8.1929,-8.1929,-8.2039,-8.2296,-6.1998,-6.2181,-6.2438,-6.3282,-6.4457,-6.5448,-6.5815,-6.6916,-6.7687,-6.7687,-6.7687,-6.7687,-6.7687,-6.7687,-6.7687,-6.7687,-6.7687,-6.7687,-6.7687,-6.7687,-6.7687,-6.7687,-6.7687,-6.7687,-6.7687,-6.7687,-6.7871,-6.8274,-6.8274,-6.8678,-6.9486,-6.9889,-7.0293,-7.0697,-7.1505,-7.1872,-7.1908,-7.2312,-7.2496,-7.2496,-7.2496,-7.2496,-7.2496,-7.2496,-7.2496,-7.2496,-7.2496,-7.2496,-7.2467,-7.2409,-7.2233,-7.2018,-7.2114,-7.1964,-7.1816,-7.1816,-7.2009,-7.2237,-7.2237,-7.2491,-7.2812,-7.2875,-7.287,-7.2657,-7.1707,-7.182,-7.2074,-7.2074,-7.24,-7.2653,-7.2653,-7.3016,-7.3269,-7.3269,-7.3631,-7.3921,-7.3921,-7.4214,-7.4468,-7.4468,-7.5189,-7.5659,-7.5659,-7.6058,-7.6275,-7.6275,-7.6275,-7.6345,-7.6445,-7.6445,-7.6512,-7.6676,-7.6708,-7.6773,-7.6929,-7.6929,-7.6998,-7.7024,-7.6961,-7.7249,-7.7846,-7.828,-7.8715,-7.925,-8.0021,-8.0351,-8.0388,-8.0791,-8.1195,-8.1562,-8.1562,-8.1819,-8.2186,-8.2186,-8.2186,-8.226,-6.267,-6.278,-6.3062,-6.3943,-6.4787,-6.5595,-6.6366,-6.7173,-6.7687,-6.7687,-6.7687,-6.7687,-6.7687,-6.7687,-6.7687,-6.7687,-6.7687,-6.7687,-6.7687,-6.7687,-6.7687,-6.7687,-6.7834,-6.7907,-6.7907,-6.8017,-6.8348,-6.8898,-6.8898,-6.9376,-7.033,-7.0991,-7.1394,-7.1513,-7.2202,-7.2496,-7.2496,-7.2496,-7.2496,-7.2496,-7.2496,-7.2496,-7.2496,-7.2496,-7.2496,-7.2496,-7.2496,-7.2577,-7.2695,-7.2834,-7.2665,-7.2419,-7.2606,-7.2492,-7.2211,-7.2211,-7.272,-7.3229,-7.326,-7.3733,-7.4274,-7.4363,-7.4426,-7.3968,-7.2345,-7.2391,-7.279,-7.279,-7.3188,-7.3623,-7.3732,-7.3877,-7.4022,-7.4167,-7.4312,-7.4352,-7.4352,-7.4899,-7.5334,-7.5334,-7.5877,-7.6275,-7.6275,-7.6345,-7.6378,-7.6378,-7.6342,-7.6478,-7.6647,-7.661,-7.6708,-7.6834,-7.6834,-7.6929,-7.7124,-7.7124,-7.7291,-7.7494,-7.7406,-7.7511,-7.7781,-7.8626,-7.9103,-7.9286,-8.0645,-8.1232,-8.1269,-8.1929,-8.2186,-8.2186,-8.2186,-8.2186,-8.2186,-8.2186,-8.2186,-8.2223,-6.278,-6.278,-6.3062,-6.3943,-6.4787,-6.5595,-6.6366,-6.7173,-6.7687,-6.7687,-6.7687,-6.7687,-6.7687,-6.7687,-6.7687,-6.7687,-6.7687,-6.7687,-6.7687,-6.7687,-6.7687,-6.7687,-6.8385,-6.8752,-6.8752,-6.9412,-6.9486,-6.8898,-6.8898,-6.9669,-7.1138,-7.1219,-7.1688,-7.2349,-7.2459,-7.2496,-7.2496,-7.2496,-7.2496,-7.2496,-7.2496,-7.2496,-7.2496,-7.2496,-7.2496,-7.2496,-7.2496,-7.2886,-7.3463,-7.4159,-7.4257,-7.4097,-7.4097,-7.4097,-7.4066,-7.4066,-7.4108,-7.4181,-7.4212,-7.4322,-7.4395,-7.4395,-7.4426,-7.429,-7.392,-7.3473,-7.313,-7.313,-7.2656,-7.2474,-7.3166,-7.3858,-7.4587,-7.5243,-7.5879,-7.6254,-7.6254,-7.6194,-7.613,-7.613,-7.6239,-7.6275,-7.6275,-7.6445,-7.6581,-7.6581,-7.6676,-7.6737,-7.6769,-7.6769,-7.6834,-7.7061,-7.7061,-7.7124,-7.7279,-7.7243,-7.7677,-7.8405,-7.8411,-7.8741,-7.947,-8.0314,-8.1048,-8.1709,-8.1929,-8.2039,-8.2039,-8.215,-8.2186,-8.2186,-8.2186,-8.2186,-8.2186,-8.2186,-8.2186,-8.2406,-6.278,-6.278,-6.3246,-6.453,-6.5081,-6.5742,-6.699,-6.7467,-6.7687,-6.7687,-6.7687,-6.7687,-6.7687,-6.7687,-6.7687,-6.7687,-6.7687,-6.7687,-6.7687,-6.7687,-6.7907,-6.8348,-6.8715,-6.9119,-6.9559,-6.9926,-7.0146,-7.0257,-7.0257,-7.0844,-7.1982,-7.1982,-7.2165,-7.2496,-7.2496,-7.2496,-7.2532,-7.2973,-7.2899,-7.2569,-7.3487,-7.356,-7.323,-7.367,-7.3854,-7.3854,-7.3854,-7.4015,-7.4322,-7.4689,-7.4708,-7.4586,-7.4641,-7.461,-7.4586,-7.4586,-7.4915,-7.5212,-7.5082,-7.5473,-7.5901,-7.5901,-7.5964,-7.5995,-7.5969,-7.5342,-7.4726,-7.4483,-7.4551,-7.4796,-7.516,-7.5489,-7.5853,-7.6218,-7.6518,-7.6708,-7.6708,-7.6578,-7.6412,-7.6309,-7.6275,-7.6345,-7.6445,-7.6548,-7.6647,-7.6708,-7.6773,-7.6834,-7.6929,-7.6998,-7.7061,-7.7217,-7.7217,-7.7248,-7.7273,-7.7781,-7.8222,-7.8589,-7.9507,-7.9874,-7.98,-8.0645,-8.1195,-8.1562,-8.2003,-8.2186,-8.2186,-8.2186,-8.2186,-8.2186,-8.2186,-8.2186,-8.2186,-8.2186,-8.2186,-8.237]},{"header":{"parameterUnit":"m.s-1","parameterCategory":1,"la1":30.6,"la2":28.766,"lo1":-90.7593,"lo2":-88.6598,"dx":0.0162,"dy":0.0183,"nx":116,"ny":114,"refTime":"2022-12-31T18:00:00:Z","depth":0,"parameterNumber":3,"parameterNumberName":"V-component_of_WINDS"},"data":[0.0,0.0,0.0,0.0,0.0,0.0,0.0,0.0,0.0,0.0,0.0,0.0,0.0,0.0,0.0,0.0,0.0,0.0,0.0,0.0,0.0,0.0,0.0,0.0,0.0,0.0,0.0,0.0,0.0,0.0,0.0,0.0,0.0,0.0,0.0,0.0,0.0,0.0,0.0,0.0,0.0,0.0,0.0,0.0,0.0,0.0,0.0,0.0,0.0,0.0,0.0,0.0,0.0,0.0,0.0,0.0,0.0,0.0,0.0,0.0,0.0,0.0,0.0,0.0,0.0,0.0,0.0,0.0,0.0,0.0,0.0,0.0,0.0,0.0,0.0,0.0,0.0,0.0,0.0,0.0,0.0,0.0,0.0,0.0,0.0,0.0,0.0,0.0,0.0,0.0,0.0,0.0,0.0,0.0,0.0,0.0,0.0,0.0,0.0,0.0,0.0,0.0,0.0,0.0,0.0,0.0,0.0,0.0,0.0,0.0,0.0,0.0,0.0,0.0,0.0,0.0,0.0,0.0,0.0,0.0,0.0,0.0,0.0,0.0,0.0,0.0,0.0,0.0,0.0,0.0,0.0,0.0,0.0,0.0,0.0,0.0,0.0,0.0,0.0,0.0,0.0,0.0,0.0,0.0,0.0,0.0,0.0,0.0,0.0,0.0,0.0,0.0,0.0,0.0,0.0,0.0,0.0,0.0,0.0,0.0,0.0,0.0,0.0,0.0,0.0,0.0,0.0,0.0,0.0,0.0,0.0,0.0,0.0,0.0,0.0,0.0,0.0,0.0,0.0,0.0,0.0,0.0,0.0,0.0,0.0,0.0,0.0,0.0,0.0,0.0,0.0,0.0,0.0,0.0,0.0,0.0,0.0,0.0,0.0,0.0,0.0,0.0,0.0,0.0,0.0,0.0,0.0,0.0,0.0,0.0,0.0,0.0,0.0,0.0,0.0,0.0,0.0,0.0,0.0,0.0,0.0,0.0,0.0,0.0,0.0,0.0,0.0,0.0,0.0,0.0,0.0,0.0,0.0,0.0,0.0,0.0,0.0,0.0,0.0,0.0,0.0,0.0,0.0,0.0,0.0,0.0,0.0,0.0,0.0,0.0,0.0,0.0,0.0,0.0,0.0,0.0,0.0,0.0,0.0,0.0,0.0,0.0,0.0,0.0,0.0,0.0,0.0,0.0,0.0,0.0,0.0,0.0,0.0,0.0,0.0,0.0,0.0,0.0,0.0,0.0,0.0,0.0,0.0,0.0,0.0,0.0,0.0,0.0,0.0,0.0,0.0,0.0,0.0,0.0,0.0,0.0,0.0,0.0,0.0,0.0,0.0,0.0,0.0,0.0,0.0,0.0,0.0,0.0,0.0,0.0,0.0,0.0,0.0,0.0,0.0,0.0,0.0,0.0,0.0,0.0,0.0,0.0,0.0,0.0,0.0,0.0,0.0,0.0,0.0,0.0,0.0,0.0,0.0,0.0,0.0,0.0,0.0,0.0,0.0,0.0,0.0,0.0,0.0,0.0,0.0,0.0,0.0,0.0,0.0,0.0,0.0,0.0,0.0,0.0,0.0,0.0,0.0,0.0,0.0,0.0,0.0,0.0,0.0,0.0,0.0,0.0,0.0,0.0,0.0,0.0,0.0,0.0,0.0,0.0,0.0,0.0,0.0,0.0,0.0,0.0,0.0,0.0,0.0,0.0,0.0,0.0,0.0,0.0,0.0,0.0,0.0,0.0,0.0,0.0,0.0,0.0,0.0,0.0,0.0,0.0,0.0,0.0,0.0,0.0,0.0,0.0,0.0,0.0,0.0,0.0,0.0,0.0,0.0,0.0,0.0,0.0,0.0,0.0,0.0,0.0,0.0,0.0,0.0,0.0,0.0,0.0,0.0,0.0,0.0,0.0,0.0,0.0,0.0,0.0,0.0,0.0,0.0,0.0,0.0,0.0,0.0,0.0,0.0,0.0,0.0,0.0,0.0,0.0,0.0,0.0,0.0,0.0,0.0,0.0,0.0,0.0,0.0,0.0,0.0,0.0,0.0,0.0,0.0,0.0,0.0,0.0,0.0,0.0,0.0,0.0,0.0,0.0,0.0,0.0,0.0,0.0,0.0,0.0,0.0,0.0,0.0,0.0,0.0,0.0,0.0,0.0,0.0,0.0,0.0,0.0,0.0,0.0,0.0,0.0,0.0,0.0,0.0,0.0,0.0,0.0,0.0,0.0,0.0,0.0,0.0,0.0,0.0,0.0,0.0,0.0,0.0,0.0,0.0,0.0,0.0,0.0,0.0,0.0,0.0,0.0,0.0,0.0,0.0,0.0,0.0,0.0,0.0,0.0,0.0,0.0,0.0,0.0,0.0,0.0,0.0,0.0,0.0,0.0,0.0,0.0,0.0,0.0,0.0,0.0,0.0,0.0,0.0,0.0,0.0,0.0,0.0,0.0,0.0,0.0,0.0,0.0,0.0,0.0,0.0,0.0,0.0,0.0,0.0,0.0,0.0,0.0,0.0,0.0,0.0,0.0,0.0,0.0,0.0,0.0,0.0,0.0,0.0,0.0,0.0,0.0,0.0,0.0,0.0,0.0,0.0,0.0,0.0,0.0,0.0,0.0,0.0,0.0,0.0,0.0,0.0,0.0,0.0,0.0,0.0,0.0,0.0,0.0,0.0,0.0,0.0,0.0,0.0,0.0,0.0,0.0,0.0,0.0,0.0,0.0,0.0,0.0,0.0,0.0,0.0,0.0,0.0,0.0,0.0,0.0,0.0,0.0,0.0,0.0,0.0,0.0,0.0,0.0,0.0,0.0,0.0,0.0,0.0,0.0,0.0,0.0,0.0,0.0,0.0,0.0,0.0,0.0,0.0,0.0,0.0,0.0,0.0,0.0,0.0,0.0,0.0,0.0,0.0,0.0,0.0,0.0,0.0,0.0,0.0,0.0,0.0,0.0,0.0,0.0,0.0,0.0,0.0,0.0,0.0,0.0,0.0,0.0,0.0,0.0,0.0,0.0,0.0,0.0,0.0,0.0,0.0,0.0,0.0,0.0,0.0,0.0,0.0,0.0,0.0,0.0,0.0,0.0,0.0,0.0,0.0,0.0,0.0,0.0,0.0,0.0,0.0,0.0,0.0,0.0,0.0,0.0,0.0,0.0,0.0,0.0,0.0,0.0,0.0,0.0,0.0,0.0,0.0,0.0,0.0,0.0,0.0,0.0,0.0,0.0,0.0,0.0,0.0,0.0,0.0,0.0,0.0,0.0,0.0,0.0,0.0,0.0,0.0,0.0,0.0,0.0,0.0,0.0,0.0,0.0,0.0,0.0,0.0,0.0,0.0,0.0,0.0,0.0,0.0,0.0,0.0,0.0,0.0,0.0,0.0,0.0,0.0,0.0,0.0,0.0,0.0,0.0,0.0,0.0,0.0,0.0,0.0,0.0,0.0,0.0,0.0,0.0,0.0,0.0,0.0,0.0,0.0,0.0,0.0,0.0,0.0,0.0,0.0,0.0,0.0,0.0,0.0,0.0,0.0,0.0,0.0,0.0,0.0,0.0,0.0,0.0,0.0,0.0,0.0,0.0,0.0,0.0,0.0,0.0,0.0,0.0,0.0,0.0,0.0,0.0,0.0,0.0,0.0,0.0,0.0,0.0,0.0,0.0,0.0,0.0,0.0,0.0,0.0,0.0,0.0,0.0,0.0,0.0,0.0,0.0,0.0,0.0,0.0,0.0,0.0,0.0,0.0,0.0,0.0,0.0,0.0,0.0,0.0,0.0,0.0,0.0,0.0,0.0,0.0,0.0,0.0,0.0,0.0,0.0,0.0,0.0,0.0,0.0,0.0,0.0,0.0,0.0,0.0,0.0,0.0,0.0,0.0,0.0,0.0,0.0,0.0,0.0,0.0,0.0,0.0,0.0,0.0,0.0,0.0,0.0,0.0,0.0,0.0,0.0,0.0,0.0,0.0,0.0,0.0,0.0,0.0,0.0,0.0,0.0,0.0,0.0,0.0,0.0,0.0,0.0,0.0,0.0,0.0,0.0,0.0,0.0,0.0,0.0,0.0,0.0,0.0,0.0,0.0,0.0,0.0,0.0,0.0,0.0,0.0,0.0,0.0,0.0,0.0,0.0,0.0,0.0,0.0,0.0,0.0,0.0,0.0,0.0,0.0,0.0,0.0,0.0,0.0,0.0,0.0,0.0,0.0,0.0,0.0,0.0,0.0,0.0,0.0,0.0,0.0,0.0,0.0,0.0,0.0,0.0,0.0,0.0,0.0,0.0,0.0,0.0,0.0,0.0,0.0,0.0,0.0,0.0,0.0,0.0,0.0,0.0,0.0,0.0,0.0,0.0,0.0,0.0,0.0,0.0,0.0,0.0,0.0,0.0,0.0,0.0,0.0,0.0,0.0,0.0,0.0,0.0,0.0,0.0,0.0,0.0,0.0,0.0,0.0,0.0,0.0,0.0,0.0,0.0,0.0,0.0,0.0,0.0,0.0,0.0,0.0,0.0,0.0,0.0,0.0,0.0,0.0,0.0,0.0,0.0,0.0,0.0,0.0,0.0,0.0,0.0,0.0,0.0,0.0,0.0,0.0,0.0,0.0,0.0,0.0,0.0,0.0,0.0,0.0,0.0,0.0,0.0,0.0,0.0,0.0,0.0,0.0,0.0,0.0,0.0,0.0,0.0,0.0,0.0,0.0,0.0,0.0,0.0,0.0,0.0,0.0,0.0,0.0,0.0,0.0,0.0,0.0,0.0,0.0,0.0,0.0,0.0,0.0,0.0,0.0,0.0,0.0,0.0,0.0,0.0,0.0,0.0,0.0,0.0,0.0,0.0,0.0,0.0,0.0,0.0,0.0,0.0,0.0,0.0,0.0,0.0,0.0,0.0,0.0,0.0,0.0,0.0,0.0,0.0,0.0,0.0,0.0,0.0,0.0,0.0,0.0,0.0,0.0,0.0,0.0,0.0,0.0,0.0,0.0,0.0,0.0,0.0,0.0,0.0,0.0,0.0,0.0,0.0,0.0,0.0,0.0,0.0,0.0,0.0,0.0,0.0,0.0,0.0,0.0,0.0,0.0,0.0,0.0,0.0,0.0,0.0,0.0,0.0,0.0,0.0,0.0,0.0,0.0,0.0,0.0,0.0,0.0,0.0,0.0,0.0,0.0,0.0,0.0,0.0,0.0,0.0,0.0,0.0,0.0,0.0,0.0,0.0,0.0,0.0,0.0,0.0,0.0,0.0,0.0,0.0,0.0,0.0,0.0,0.0,0.0,0.0,0.0,0.0,0.0,0.0,0.0,0.0,0.0,0.0,0.0,0.0,0.0,0.0,0.0,0.0,0.0,0.0,0.0,0.0,0.0,0.0,0.0,0.0,0.0,0.0,0.0,0.0,0.0,0.0,0.0,0.0,0.0,0.0,0.0,0.0,0.0,0.0,0.0,0.0,0.0,0.0,0.0,0.0,0.0,0.0,0.0,0.0,0.0,0.0,0.0,0.0,0.0,0.0,0.0,0.0,0.0,0.0,0.0,0.0,0.0,0.0,0.0,0.0,0.0,0.0,0.0,0.0,0.0,0.0,0.0,0.0,0.0,0.0,0.0,0.0,0.0,0.0,0.0,0.0,0.0,0.0,0.0,0.0,0.0,0.0,0.0,0.0,0.0,0.0,0.0,0.0,0.0,0.0,0.0,0.0,0.0,0.0,0.0,0.0,0.0,0.0,0.0,0.0,0.0,0.0,0.0,0.0,0.0,0.0,0.0,0.0,0.0,0.0,0.0,0.0,0.0,0.0,0.0,0.0,0.0,0.0,0.0,0.0,0.0,0.0,0.0,0.0,0.0,0.0,0.0,0.0,0.0,0.0,0.0,0.0,0.0,0.0,0.0,0.0,0.0,0.0,0.0,0.0,0.0,0.0,0.0,0.0,0.0,0.0,0.0,0.0,0.0,0.0,0.0,0.0,0.0,0.0,0.0,0.0,0.0,0.0,0.0,0.0,0.0,0.0,0.0,0.0,0.0,0.0,0.0,0.0,0.0,0.0,0.0,0.0,0.0,0.0,0.0,0.0,0.0,0.0,0.0,0.0,0.0,0.0,0.0,0.0,0.0,0.0,-1.4905,-1.4444,0.0,0.0,0.0,0.0,0.0,0.0,0.0,0.0,0.0,0.0,0.0,0.0,0.0,0.0,0.0,0.0,0.0,0.0,0.0,0.0,0.0,0.0,0.0,0.0,0.0,0.0,0.0,0.0,0.0,0.0,0.0,0.0,0.0,0.0,0.0,0.0,-1.1364,-1.1758,-1.1755,-1.1858,-1.2074,-1.163,-1.0974,-1.0194,0.0,0.0,0.0,0.0,0.0,0.0,0.0,0.0,0.0,0.0,0.0,0.0,0.0,0.0,0.0,0.0,0.0,0.0,0.0,0.0,0.0,0.0,0.0,0.0,0.0,0.0,0.0,0.0,0.0,0.0,0.0,0.0,0.0,0.0,0.0,0.0,0.0,0.0,0.0,0.0,0.0,0.0,0.0,0.0,0.0,0.0,0.0,0.0,0.0,0.0,0.0,0.0,0.0,0.0,0.0,0.0,0.0,0.0,0.0,0.0,0.0,0.0,0.0,0.0,0.0,0.0,0.0,0.0,0.0,0.0,-1.58,-1.5432,0.0,0.0,0.0,0.0,0.0,0.0,0.0,0.0,0.0,0.0,0.0,0.0,0.0,0.0,0.0,0.0,0.0,0.0,0.0,0.0,0.0,0.0,0.0,-1.2,-1.2753,-1.29,-1.3231,-1.3241,0.0,0.0,0.0,0.0,0.0,0.0,-1.2052,-1.2023,-1.2403,-1.3136,-1.2864,-1.2885,-1.3198,-1.3377,-1.2667,-1.1245,-1.0997,0.0,0.0,0.0,0.0,0.0,0.0,0.0,0.0,0.0,0.0,0.0,0.0,0.0,0.0,0.0,0.0,0.0,0.0,0.0,0.0,0.0,0.0,0.0,0.0,0.0,0.0,0.0,0.0,0.0,0.0,0.0,0.0,0.0,0.0,0.0,0.0,0.0,0.0,0.0,0.0,0.0,0.0,0.0,0.0,0.0,0.0,0.0,0.0,0.0,0.0,0.0,0.0,0.0,0.0,0.0,0.0,0.0,0.0,0.0,0.0,0.0,0.0,0.0,-1.5909,-1.6317,-1.6703,-1.7212,-1.7675,-1.8022,-1.669,-1.66,-1.7239,-1.6084,0.0,0.0,0.0,0.0,0.0,0.0,0.0,0.0,0.0,0.0,0.0,0.0,0.0,0.0,0.0,0.0,0.0,0.0,0.0,-1.1026,-1.1393,-1.2183,-1.2974,-1.369,-1.3801,-1.3819,-1.3745,0.0,0.0,0.0,0.0,-1.2477,-1.258,-1.2529,-1.3042,-1.4123,-1.5572,-1.6203,-1.5997,-1.6272,-1.5771,-1.4516,-1.3347,-1.2794,-1.2677,0.0,0.0,0.0,0.0,0.0,0.0,0.0,0.0,0.0,0.0,0.0,0.0,0.0,0.0,0.0,0.0,0.0,0.0,0.0,0.0,0.0,0.0,0.0,0.0,0.0,0.0,0.0,0.0,0.0,0.0,0.0,0.0,0.0,0.0,0.0,0.0,0.0,0.0,0.0,0.0,0.0,-1.3435,-1.3507,0.0,0.0,0.0,0.0,0.0,0.0,0.0,0.0,0.0,0.0,0.0,0.0,0.0,-1.538,-1.5894,-1.6554,-1.7009,-1.7381,-1.7899,-1.8167,-1.8207,-1.8302,-1.8397,-1.8424,-1.8209,0.0,-1.7862,-1.7716,0.0,0.0,0.0,0.0,0.0,0.0,0.0,0.0,0.0,0.0,0.0,0.0,0.0,0.0,0.0,0.0,0.0,0.0,0.0,0.0,0.0,-1.3304,-1.4297,-1.4854,-1.5313,-1.5294,-1.4616,-1.4414,0.0,0.0,-1.2994,-1.294,-1.2869,-1.3373,-1.4174,-1.5187,-1.6572,-1.6949,-1.6436,-1.6717,-1.6541,-1.6007,-1.5413,-1.4493,-1.3279,-1.2656,0.0,0.0,0.0,0.0,0.0,0.0,0.0,0.0,0.0,0.0,0.0,0.0,0.0,0.0,0.0,0.0,0.0,0.0,0.0,0.0,0.0,0.0,0.0,0.0,0.0,0.0,0.0,0.0,0.0,0.0,0.0,0.0,0.0,0.0,0.0,0.0,0.0,0.0,0.0,-1.3713,-1.4014,-1.4171,-1.4051,-1.3894,0.0,0.0,0.0,0.0,0.0,0.0,0.0,0.0,0.0,-1.5636,-1.5608,-1.6086,-1.719,-1.7544,-1.7861,-1.8086,-1.8384,-1.8585,-1.8744,-1.8928,-1.8985,-1.8985,-1.8985,-1.8905,-1.8758,-1.8195,-1.7649,-1.7067,0.0,0.0,0.0,0.0,-1.617,-1.6209,0.0,0.0,0.0,0.0,0.0,0.0,0.0,0.0,0.0,0.0,0.0,0.0,-1.3084,-1.4488,-1.5606,-1.6101,-1.6615,-1.6523,-1.5625,-1.5276,-1.4616,-1.3497,-1.3323,-1.325,-1.3231,-1.4574,-1.565,-1.6419,-1.7402,-1.7644,-1.7131,-1.7229,-1.7269,-1.7269,-1.6984,-1.5913,-1.4246,-1.3957,-1.3616,-1.331,0.0,0.0,0.0,0.0,0.0,0.0,0.0,0.0,0.0,0.0,0.0,0.0,0.0,0.0,0.0,0.0,0.0,0.0,0.0,0.0,0.0,0.0,0.0,0.0,0.0,0.0,0.0,0.0,0.0,0.0,0.0,0.0,0.0,0.0,0.0,0.0,0.0,-1.4195,-1.4509,-1.4787,-1.4679,-1.4522,0.0,0.0,0.0,0.0,0.0,0.0,-1.5506,-1.4839,-1.5198,-1.6742,-1.6478,-1.6987,-1.8298,-1.8298,-1.8416,-1.8669,-1.8739,-1.8858,-1.9055,-1.9301,-1.943,-1.943,-1.943,-1.943,-1.9377,-1.8651,-1.8313,-1.8134,-1.7502,-1.7043,-1.6756,-1.699,-1.7042,-1.7054,0.0,0.0,0.0,0.0,0.0,0.0,0.0,0.0,0.0,0.0,0.0,-1.3516,-1.4323,-1.5483,-1.656,-1.733,-1.7092,-1.6872,-1.6817,-1.5735,-1.4726,-1.3911,-1.3386,-1.3322,-1.3846,-1.6138,-1.7515,-1.7784,-1.8715,-1.9195,-1.9134,-1.8953,-1.8873,-1.8834,-1.7813,-1.7074,-1.6515,-1.5787,-1.5433,-1.5282,-1.4455,0.0,0.0,0.0,0.0,0.0,0.0,0.0,0.0,0.0,0.0,0.0,0.0,0.0,0.0,0.0,0.0,0.0,0.0,0.0,0.0,0.0,0.0,0.0,0.0,0.0,0.0,0.0,0.0,0.0,0.0,0.0,0.0,0.0,0.0,0.0,0.0,0.0,0.0,-1.5052,-1.5267,0.0,0.0,0.0,0.0,-1.584,-1.5498,-1.5708,-1.6634,-1.6278,-1.6575,-1.7875,-1.8115,-1.8428,-1.8829,-1.8829,-1.9029,-1.9345,-1.9345,-1.9359,-1.9359,-1.9372,-1.943,-1.943,-1.943,-1.943,-1.9417,-1.9377,-1.8985,-1.849,-1.8437,-1.8076,-1.7595,-1.7836,-1.8115,-1.845,0.0,0.0,0.0,-1.211,-1.1651,-1.1375,-1.1632,-1.1122,-1.0916,-1.1577,-1.2845,-1.3992,-1.4799,-1.645,-1.7697,-1.8229,-1.8375,-1.8229,-1.7715,-1.6526,-1.5863,-1.5826,-1.4915,-1.5067,-1.6578,-1.7351,-1.8116,-1.8811,-1.9125,-1.9439,-1.9655,-1.9633,-1.972,-1.9916,-1.8918,-1.8398,-1.8137,-1.6716,-1.6158,-1.6152,-1.5421,-1.4541,0.0,0.0,0.0,0.0,0.0,0.0,0.0,0.0,0.0,0.0,0.0,0.0,0.0,0.0,0.0,0.0,0.0,0.0,0.0,0.0,0.0,0.0,0.0,0.0,0.0,0.0,0.0,0.0,0.0,0.0,0.0,0.0,0.0,0.0,0.0,0.0,0.0,-1.5856,-1.6174,0.0,-1.5791,-1.6491,-1.6863,-1.6756,-1.6899,-1.7254,-1.7802,-1.7698,-1.7887,-1.8551,-1.8667,-1.8892,-1.9243,-1.9243,-1.9301,-1.943,-1.943,-1.943,-1.943,-1.943,-1.943,-1.943,-1.943,-1.943,-1.943,-1.943,-1.9239,-1.9052,-1.9052,-1.8918,-1.8744,-1.8851,-1.8971,-1.9065,0.0,-1.211,0.0,-1.211,-1.1779,-1.1595,-1.1853,-1.1559,-1.1632,-1.2588,-1.3892,-1.5056,-1.601,-1.755,-1.8632,-1.8889,-1.9146,-1.8962,-1.8136,-1.7203,-1.6652,-1.6505,-1.5863,-1.6233,-1.7807,-1.8062,-1.859,-1.9512,-1.9512,-1.9732,-2.0095,-2.0053,-2.0158,-2.0352,-1.9674,-1.9418,-1.9384,-1.8196,-1.7163,-1.6349,-1.6308,-1.5218,-1.3631,0.0,0.0,0.0,0.0,0.0,0.0,0.0,0.0,0.0,0.0,0.0,0.0,0.0,0.0,0.0,0.0,0.0,0.0,0.0,0.0,0.0,0.0,0.0,0.0,0.0,0.0,0.0,0.0,0.0,0.0,0.0,0.0,0.0,0.0,-1.5858,-1.6298,-1.6596,-1.6957,-1.706,-1.6668,-1.7332,-1.7712,-1.7601,-1.8164,-1.8492,-1.8594,-1.8661,-1.8836,-1.9055,-1.9055,-1.9185,-1.943,-1.943,-1.947,-1.9506,-1.9506,-1.9559,-1.9653,-1.9653,-1.9653,-1.9653,-1.9653,-1.9653,-1.9653,-1.9653,-1.9653,-1.9653,-1.9546,-1.9506,-1.9533,-1.9626,-1.9599,-1.9506,-1.211,-1.211,-1.211,-1.211,-1.1779,-1.1522,-1.1522,-1.1871,-1.2551,-1.3745,-1.5313,-1.6745,-1.7935,-1.8815,-1.9292,-1.9292,-1.9292,-1.8962,-1.8136,-1.7697,-1.6945,-1.5753,-1.6156,-1.6711,-1.737,-1.8263,-1.9146,-1.9912,-1.9912,-2.0113,-2.0497,-2.0346,-2.0219,-2.0238,-2.0007,-2.0007,-2.0195,-2.0195,-1.8559,-1.6081,-1.7266,-1.624,-1.4034,0.0,0.0,0.0,0.0,0.0,0.0,0.0,0.0,0.0,0.0,0.0,0.0,0.0,0.0,0.0,0.0,0.0,0.0,0.0,0.0,0.0,0.0,0.0,0.0,0.0,0.0,0.0,0.0,0.0,0.0,0.0,0.0,0.0,-1.6049,-1.647,-1.6904,-1.7185,-1.7754,-1.8102,-1.8102,-1.8589,-1.8761,-1.8464,-1.9026,-1.9243,-1.8939,-1.9243,-1.943,-1.943,-1.943,-1.9386,-1.9386,-1.9444,-1.9533,-1.9813,-1.9813,-1.996,-2.0167,-2.0167,-2.0167,-2.0167,-2.0167,-2.0167,-2.0167,-2.0167,-2.0214,-2.0127,-1.9907,-1.98,-1.9826,-2.0107,-2.0027,-1.9746,-1.211,-1.211,-1.211,-1.211,-1.2018,-1.1945,-1.1945,-1.2275,-1.2863,-1.3782,-1.5313,-1.667,-1.7568,-1.865,-1.9292,-1.9292,-1.9292,-1.8962,-1.8136,-1.7202,-1.6486,-1.6156,-1.7642,-1.8685,-1.9177,-1.9436,-1.9802,-2.0356,-2.0356,-2.0558,-2.0943,-2.0857,-2.1021,-2.1269,-2.0545,-2.0217,-2.0261,-2.0261,-1.9306,-1.7735,-1.8251,-1.6858,-1.4654,0.0,0.0,0.0,0.0,0.0,0.0,0.0,0.0,0.0,0.0,0.0,0.0,0.0,0.0,0.0,0.0,0.0,0.0,0.0,0.0,0.0,0.0,0.0,0.0,0.0,0.0,0.0,0.0,0.0,0.0,0.0,-1.6325,-1.6858,-1.686,-1.7145,-1.759,-1.811,-1.8456,-1.8572,-1.8333,-1.8893,-1.9123,-1.8764,-1.9132,-1.9372,-1.9243,-1.9359,-1.943,-1.943,-1.9573,-1.9679,-1.9679,-1.9893,-2.004,-2.0107,-2.0107,-2.016,-2.0167,-2.0167,-2.0167,-2.0167,-2.0167,-2.0167,-2.0153,-2.0,-1.992,-1.9907,-1.9826,-1.98,-1.9786,-1.9653,-1.9559,-1.9479,-1.211,-1.211,-1.211,-1.211,-1.211,-1.211,-1.211,-1.2588,-1.336,-1.4488,-1.5771,-1.7,-1.8119,-1.8889,-1.9292,-1.9292,-1.9292,-1.8889,-1.7917,-1.7055,-1.6798,-1.7293,-1.8595,-1.9494,-1.9875,-2.0058,-2.0374,-2.0759,-2.0759,-2.0979,-2.1365,-2.1365,-2.1493,-2.1687,-2.1132,-2.0907,-2.0907,-2.0817,-2.0076,-1.9007,-1.8917,-1.7733,-1.5979,-1.5908,-1.5362,-1.4516,-1.3904,-1.3652,-1.352,-1.294,0.0,0.0,0.0,0.0,0.0,0.0,0.0,0.0,0.0,0.0,0.0,0.0,0.0,0.0,0.0,0.0,0.0,0.0,0.0,0.0,0.0,0.0,0.0,0.0,-1.7278,-1.7756,-1.7899,-1.8029,-1.8255,-1.8651,-1.8931,-1.9048,-1.8863,-1.915,-1.9301,-1.9127,-1.9301,-1.943,-1.943,-1.9479,-1.9546,-1.9546,-1.9826,-1.9987,-1.9987,-2.0147,-2.0294,-2.0414,-2.0414,-2.0481,-2.0601,-2.0601,-2.0535,-2.0414,-2.0414,-2.0347,-2.0227,-2.0187,-2.0174,-2.0147,0.0,0.0,0.0,0.0,-1.9626,-1.972,-1.211,-1.211,-1.211,-1.211,-1.211,-1.211,-1.2165,-1.2827,-1.3882,-1.5551,-1.6431,-1.7513,-1.9127,-1.9292,-1.9292,-1.9292,-1.9292,-1.8815,-1.7642,-1.7238,-1.755,-1.8669,-1.9127,-1.9586,-2.0021,-2.0411,-2.0778,-2.1181,-2.1181,-2.1365,-2.1687,-2.1687,-2.1687,-2.1687,-2.1687,-2.1687,-2.1687,-2.1526,-2.0925,-2.0031,-1.9513,-1.8589,-1.7477,-1.6071,-1.5631,-1.5559,-1.4508,-1.4014,-1.3919,-1.3938,0.0,0.0,0.0,0.0,0.0,0.0,0.0,0.0,0.0,0.0,0.0,0.0,0.0,0.0,0.0,0.0,0.0,0.0,0.0,0.0,0.0,0.0,0.0,0.0,-1.817,-1.8637,-1.8931,-1.8971,-1.8971,-1.8971,-1.9212,-1.943,-1.943,-1.943,-1.943,-1.943,-1.943,-1.9386,-1.9412,-1.9653,0.0,0.0,0.0,-2.0281,-2.0281,-2.0321,-2.0468,-2.0722,-2.0722,-2.0855,-2.1109,-2.1109,-2.0962,-2.0722,-2.0762,-2.0628,-2.0401,-2.0668,-2.0762,-2.0668,-2.0147,-1.9947,-1.9947,-1.9907,-2.0067,-2.0241,-1.211,-1.211,-1.211,-1.211,-1.211,-1.2202,-1.2533,-1.2992,-1.3992,-1.5936,-1.6615,-1.7513,-1.9127,-1.9292,-1.9292,-1.9292,-1.9292,-1.8926,-1.8064,-1.7898,-1.8137,-1.8687,-1.9421,-2.0095,-2.0869,-2.0943,-2.12,-2.1577,-2.1577,-2.1614,-2.1687,-2.1687,-2.1687,-2.1687,-2.1687,-2.1687,-2.1687,-2.1642,-2.1508,-2.1284,-2.0167,-1.8915,-1.7657,-1.7335,-1.6593,-1.5696,-1.5481,-1.4897,-1.4141,-1.421,-1.4038,-1.3795,-1.3997,-1.3565,0.0,0.0,0.0,0.0,0.0,0.0,0.0,0.0,0.0,0.0,0.0,0.0,0.0,0.0,0.0,0.0,0.0,0.0,0.0,-1.795,-1.8443,-1.8945,-1.9239,-1.9279,-1.9279,-1.9279,-1.9332,-1.943,-1.943,-1.943,-1.943,-1.943,-1.943,-1.9466,-1.9706,-1.9773,-1.9907,-2.0147,-2.0441,-2.0588,-2.0588,-2.0828,-2.0962,-2.1029,-2.1029,0.0,-2.1109,-2.1109,-2.1082,-2.1042,-2.1283,-2.1413,-2.1309,-2.1427,-2.1243,-2.1015,-2.0895,-2.0855,-2.0828,-2.0601,-2.0548,-2.0548,-1.2661,-1.2551,-1.2459,-1.268,-1.2716,-1.279,-1.2974,-1.3332,-1.4176,-1.579,-1.6358,-1.7147,-1.8559,-1.8522,-1.8394,-1.8394,-1.821,-1.8192,-1.8412,-1.8191,-1.8447,-1.9253,-1.9857,-2.0461,-2.1089,-2.131,-2.1485,-2.1687,-2.1687,-2.1687,-2.1687,-2.1687,-2.1687,-2.1687,-2.1687,-2.1687,-2.1687,-2.1616,-2.1616,-2.1642,-2.0817,-2.0014,-1.9193,-1.7576,-1.6617,-1.6058,-1.5464,-1.5012,-1.4655,-1.4696,-1.4514,-1.4341,-1.4458,-1.4036,-1.3519,0.0,0.0,0.0,0.0,0.0,0.0,0.0,0.0,0.0,0.0,0.0,0.0,0.0,0.0,-1.7081,-1.7583,0.0,-1.8342,-1.8682,-1.8994,-1.9199,-1.9403,-1.943,-1.943,-1.943,-1.943,-1.943,-1.943,-1.943,-1.9484,-1.9573,-1.9586,-1.9706,-2.0,-2.016,-2.0307,-2.0454,-2.0735,-2.0895,-2.0895,-2.1042,-2.1109,-2.1109,-2.1109,-2.1189,-2.1336,-2.1336,-2.1336,-2.1336,-2.1561,-2.1534,-2.1336,-2.1336,-2.1416,-2.1537,-2.139,-2.1149,-2.0855,-2.0561,-2.0548,-2.0655,-1.3332,-1.3157,-1.301,-1.3241,-1.3296,-1.3314,-1.3387,-1.3681,-1.4323,-1.5533,-1.6065,-1.6691,-1.7734,-1.766,-1.7495,-1.7495,-1.7275,-1.7587,-1.865,-1.8485,-1.8813,-1.9948,-2.0356,-2.0741,-2.1218,-2.1522,-2.1687,-2.1687,-2.1687,-2.1687,-2.1687,-2.1687,-2.1687,-2.1687,-2.1687,-2.1687,-2.1687,-2.1526,-2.1571,-2.1642,-2.1087,-2.0862,-2.0529,-1.7483,-1.6527,-1.6574,-1.5343,-1.4927,-1.4939,-1.4939,-1.4783,-1.464,-1.464,-1.4349,-1.4037,-1.4051,-1.3928,0.0,0.0,0.0,0.0,0.0,0.0,0.0,0.0,-1.6899,-1.7173,-1.7716,-1.8036,-1.8249,-1.8611,-1.8851,-1.9092,-1.939,-1.943,-1.943,-1.943,-1.943,-1.943,-1.943,-1.943,-1.9444,-1.9452,-1.9511,-1.9573,-1.9867,-1.988,-2.0013,-2.0307,-2.0548,-2.0695,-2.0762,-2.0989,-2.1109,-2.1109,-2.1109,-2.1136,-2.1189,-2.1189,-2.1349,-2.1695,-2.1695,-2.1695,-2.1708,-2.1762,-2.1617,-2.1443,-2.1443,-2.1737,-2.2124,-2.1896,-2.1534,-2.1056,-2.0708,-2.0762,-2.1015,-1.3736,-1.3801,-1.3672,-1.3351,-1.3296,-1.3406,-1.3801,-1.3892,-1.4323,-1.5533,-1.6065,-1.6505,-1.6982,-1.7312,-1.7495,-1.7495,-1.7807,-1.8155,-1.8687,-1.8999,-1.9549,-2.0411,-2.0503,-2.0888,-2.1595,-2.1668,-2.1687,-2.1687,-2.1687,-2.1687,-2.1687,-2.1687,-2.1687,-2.1687,-2.1687,-2.1687,-2.1687,-2.1687,-2.1687,-2.1642,-2.0754,-2.0393,-2.0121,-1.7716,-1.6969,-1.7109,-1.6028,-1.5092,-1.44,-1.44,-1.4388,-1.434,-1.434,-1.4472,-1.4592,-1.4606,-1.4776,-1.4804,-1.4387,-1.4447,-1.4823,-1.5632,-1.6266,-1.6925,0.0,-1.8021,-1.8049,-1.8608,-1.8798,-1.8918,-1.9212,-1.9292,-1.939,-1.9359,-1.943,-1.943,-1.943,-1.943,-1.943,-1.943,-1.943,-1.9466,-1.9733,-1.976,-1.9867,-2.016,-2.0187,-2.0321,-2.0615,-2.0655,-2.0802,-2.1056,-2.1096,-2.1109,-2.1109,-2.1109,-2.1243,-2.1574,-2.1574,-2.1722,-2.1937,-2.1937,-2.1937,-2.1951,-2.2205,-2.2458,-2.2727,-2.2727,-2.2767,-2.2807,-2.2445,-2.2445,-2.2552,-2.1991,-2.1977,-2.2218,-1.4176,-1.4249,-1.4194,-1.4029,-1.4011,-1.4066,-1.4231,-1.4249,-1.4506,-1.5258,-1.5496,-1.5753,-1.6156,-1.6138,-1.6193,-1.6413,-1.7037,-1.7678,-1.832,-1.8962,-1.9567,-2.0113,-2.0393,-2.0778,-2.1365,-2.1559,-2.1687,-2.1687,-2.1687,-2.1687,-2.1687,-2.1687,-2.1687,-2.1687,-2.1687,-2.1687,-2.1687,-2.1687,-2.1687,-2.1597,-2.0664,-2.0212,-1.9849,-1.7716,-1.6889,-1.6749,-1.5581,-1.4867,0.0,-1.4544,-1.4544,-1.4569,-1.4922,-1.4856,-1.4766,-1.5319,-1.5166,-1.4848,-1.5133,-1.5595,-1.6036,-1.6585,-1.7237,-1.7914,-1.8387,-1.8526,-1.8677,-1.9092,-1.9185,-1.9225,-1.9345,-1.943,-1.943,-1.943,-1.943,-1.943,-1.943,-1.943,-1.9484,-1.9599,-1.9626,-1.9666,-1.9786,-1.9947,-2.0174,-2.0468,-2.0494,-2.0615,-2.0909,-2.0922,-2.0989,-2.1109,-2.1269,-2.1363,-2.1363,-2.1537,-2.1683,-2.1804,-2.1804,-2.1951,-2.2231,-2.2231,-2.2325,-2.2498,-2.2619,-2.2846,-2.3113,-2.2939,-2.2966,-2.31,-2.2792,-2.2859,-2.306,-2.2458,-2.2418,-2.2672,-1.4451,-1.4506,-1.4506,-1.4506,-1.4506,-1.4506,-1.4506,-1.4506,-1.4616,-1.4909,-1.5038,-1.5203,-1.5496,-1.5184,-1.5093,-1.5496,-1.6266,-1.7092,-1.7899,-1.8705,-1.9384,-1.9875,-2.0319,-2.0704,-2.1089,-2.1467,-2.1687,-2.1687,-2.1687,-2.1687,-2.1687,-2.1687,-2.1687,-2.1687,-2.1687,-2.1687,-2.1687,-2.1687,-2.1687,-2.1642,-2.0952,-2.0574,-2.0167,-1.818,-1.7299,-1.6868,-1.518,-1.4576,-1.4564,-1.4489,-1.4465,-1.4549,-1.4987,-1.4918,-1.4863,-1.5618,-1.5442,-1.5091,-1.577,-1.6369,-1.6869,-1.7229,-1.7987,-1.8621,-1.8744,-1.8924,-1.9105,-1.9319,-1.943,-1.943,-1.943,-1.943,-1.943,-1.943,-1.943,-1.9457,-1.9479,-1.9492,-1.9599,-1.988,-1.9987,-2.004,-2.004,-2.0227,-2.0481,-2.0775,-2.0802,-2.0895,-2.1096,-2.1189,-2.1229,-2.1229,-2.1523,-2.1735,-2.1735,-2.1884,-2.2031,-2.2111,-2.2111,-2.2258,-2.2539,-2.2539,-2.2699,-2.2993,-2.2993,-2.3166,-2.3434,-2.3207,-2.3247,-2.3434,-2.3207,-2.33,-2.3514,-2.3073,-2.2993,-2.3196,-1.4506,-1.4506,-1.4506,-1.4506,-1.4506,-1.4506,-1.4506,-1.4506,-1.4494,-1.4524,-1.4873,-1.5111,-1.5111,-1.4763,-1.4689,-1.5074,-1.5863,-1.667,-1.7458,-1.8284,-1.9091,-1.9857,-2.0319,-2.0704,-2.1089,-2.1467,-2.1687,-2.1687,-2.1687,-2.1687,-2.1687,-2.1687,-2.1687,-2.1687,-2.1687,-2.1687,-2.1687,-2.1687,-2.1687,-2.1687,-2.1687,-2.1642,-2.1419,-1.9484,-1.8528,-1.7913,-1.5252,-1.4303,-1.4266,-1.4006,-1.3907,-1.3965,-1.4191,-1.4584,-1.505,-1.532,-1.5628,-1.588,-1.5986,-1.6381,-1.6951,-1.7526,-1.8311,-1.8985,-1.9279,-1.9359,-1.9417,-1.9417,-1.943,-1.943,-1.943,-1.943,-1.943,-1.943,-1.943,-1.9466,-1.9746,-1.9786,-1.9893,-2.0187,-2.0468,-2.0655,-2.0655,-2.0655,-2.0788,-2.1069,-2.1096,-2.1096,-2.1109,-2.139,-2.1601,-2.1601,-2.1817,-2.1977,-2.1977,-2.1977,-2.2124,-2.2405,-2.2405,-2.2565,-2.2846,-2.2846,-2.302,-2.3313,-2.3313,-2.3487,-2.3754,-2.3754,-2.3754,-2.3754,-2.3741,-2.3928,-2.4168,-2.4155,-2.3981,-2.3781,-1.4854,-1.4909,-1.4983,-1.5239,-1.5074,-1.4909,-1.4909,-1.4671,-1.4506,-1.4506,-1.4854,0.0,0.0,0.0,0.0,0.0,-1.5845,-1.6652,-1.744,-1.8265,-1.8944,-1.9494,-2.0154,-2.0534,-2.0704,-2.1339,-2.1687,-2.1687,-2.1687,-2.1687,-2.1687,-2.1687,-2.1687,-2.1687,-2.1687,-2.1687,-2.1687,-2.1687,-2.1687,-2.1642,-2.1042,-2.0754,-2.0581,-1.902,-1.7958,-1.716,0.0,-1.4828,-1.4449,-1.4166,-1.4231,-1.4405,-1.4734,-1.4727,-1.4771,-1.5256,-1.5929,-1.6562,-1.6964,-1.7344,-1.7803,-1.8364,-1.8875,-1.9239,-1.9345,-1.943,-1.943,-1.943,-1.943,-1.943,-1.943,-1.943,-1.943,-1.943,-1.9533,-1.9693,-1.9786,-1.996,-2.0201,-2.0494,-2.0615,-2.0748,-2.0949,-2.0962,-2.1002,-2.1096,-2.1109,-2.1189,-2.139,-2.1561,-2.1708,-2.183,-2.2124,-2.2271,-2.2271,-2.2472,-2.2619,-2.2712,-2.2926,-2.3073,-2.318,-2.338,-2.3527,-2.3621,-2.3621,-2.3781,-2.4062,-2.4062,-2.4168,-2.4342,-2.4342,-2.4409,-2.4489,-2.4489,-2.4422,-2.4356,0.0,-1.5313,-1.5386,-1.5643,-1.5368,0.0,0.0,0.0,0.0,0.0,0.0,0.0,0.0,0.0,0.0,0.0,0.0,-1.6597,-1.7238,-1.7899,-1.8522,-1.9072,-1.9732,-2.0154,-2.0259,-2.0918,-2.1321,-2.1511,-2.1511,-2.154,-2.1687,-2.1687,-2.1687,-2.1687,-2.1687,-2.1687,-2.1687,-2.1687,-2.1825,-2.1907,-2.1103,-2.0842,-2.0663,-1.891,-1.7733,0.0,-1.5499,-1.4773,-1.4379,-1.4102,-1.4146,-1.433,-1.4765,-1.4929,-1.5107,-1.5583,-1.6305,-1.7095,-1.7636,-1.802,-1.8361,-1.8928,-1.9225,-1.943,-1.943,-1.943,-1.943,-1.943,-1.943,-1.943,-1.943,-1.9511,-1.9519,-1.9519,-1.9853,-2.012,-2.012,-2.0361,-2.0615,-2.0815,-2.0828,-2.0909,-2.1096,-2.1109,-2.1109,-2.1109,-2.1109,-2.1243,-2.1601,-2.1722,-2.1844,-2.2124,-2.2418,-2.2579,-2.2579,-2.2766,-2.2926,-2.3033,-2.3233,-2.338,-2.3487,-2.3688,-2.3834,-2.3928,-2.3928,-2.4088,-2.4356,-2.4356,-2.4462,-2.4636,-2.4636,-2.4636,-2.4623,-2.4516,-2.4476,-2.4476,0.0,0.0,-1.5735,0.0,0.0,0.0,0.0,0.0,0.0,0.0,0.0,0.0,0.0,0.0,0.0,0.0,0.0,0.0,-1.6872,-1.7275,-1.7862,-1.8669,-1.9091,-1.9494,-1.9875,-2.0278,-2.0704,-2.1071,-2.1071,-2.1229,-2.1632,-2.1632,-2.1632,-2.1632,-2.1632,-2.165,-2.1668,-2.165,-2.1907,-2.2373,-2.1807,-2.1717,-2.1542,-1.9249,-1.7973,-1.708,-1.5043,-1.4276,-1.4151,-1.3841,-1.374,-1.3861,-1.4422,-1.5206,-1.5973,-1.6273,-1.6769,-1.7396,-1.7958,-1.8351,-1.8664,-1.9283,-1.943,-1.943,-1.943,-1.943,-1.943,-1.943,-1.943,-1.9359,-1.9403,-1.9599,-1.98,-1.9786,-2.0281,-2.0681,-2.0681,-2.0922,-2.1109,-2.1109,-2.1109,-2.1109,-2.1109,-2.1109,-2.1122,-2.1136,-2.1136,-2.1256,-2.1628,-2.1844,-2.2138,-2.2432,-2.2712,-2.2928,-2.2928,-2.2928,-2.302,-2.3327,-2.334,-2.35,-2.3794,-2.3808,-2.3968,-2.4222,-2.4222,-2.4382,-2.4636,-2.4636,-2.4636,-2.4636,-2.4636,-2.4636,-2.4609,-2.4329,-2.4222,-2.4222,0.0,0.0,0.0,0.0,0.0,0.0,0.0,0.0,0.0,0.0,0.0,0.0,0.0,0.0,0.0,0.0,0.0,0.0,-1.6872,-1.7275,-1.7862,-1.8669,-1.9091,-1.9494,-1.9875,-2.0278,-2.0576,-2.0668,-2.0498,-2.0485,-2.0594,-2.0447,-2.0361,-2.0361,-2.0361,-2.0522,-2.0791,-2.0487,-2.0604,-2.0989,-2.0706,-2.0605,-2.0558,-1.9805,-1.8989,-1.8062,-1.6581,-1.5745,-1.5248,-1.4359,-1.4387,-1.4878,-1.5611,-1.6034,-1.64,-1.7053,-1.7689,-1.8233,-1.8605,-1.8915,-1.9185,-1.939,-1.943,-1.943,-1.943,-1.943,-1.943,-1.943,-1.943,-1.9305,-1.9078,-1.9452,-1.9733,-1.9506,-2.0147,-2.0681,-2.0681,-2.0922,-2.1109,-2.1109,-2.1109,-2.1109,-2.1109,-2.1109,-2.1203,-2.143,-2.1443,-2.1563,-2.1857,-2.2151,-2.2445,-2.2739,-2.2887,-2.2928,-2.2928,-2.2928,-2.302,-2.3327,-2.3554,-2.3808,-2.4102,-2.4315,-2.4449,-2.4529,-2.4529,-2.4569,-2.4636,-2.4636,-2.4636,-2.4636,-2.4636,-2.4636,-2.4549,-2.4556,-2.4529,-2.4489,0.0,0.0,0.0,0.0,0.0,0.0,0.0,0.0,0.0,0.0,0.0,0.0,0.0,0.0,0.0,0.0,0.0,0.0,0.0,-1.711,-1.7605,-1.8412,-1.8669,-1.9054,-1.96,-1.9879,-2.0081,-2.0223,-2.0056,-2.0021,-2.0201,-1.9972,-1.9887,-1.9887,-1.9887,-2.0054,-2.0207,-2.0018,-2.0224,0.0,0.0,-2.04,-2.0594,-1.9876,-1.928,-1.8701,-1.7627,-1.6877,-1.6312,-1.5427,-1.5404,-1.5888,-1.6304,-1.6733,-1.7212,-1.7836,-1.8317,-1.8744,-1.9038,-1.9239,-1.943,-1.943,-1.943,-1.943,-1.943,-1.943,-1.939,-1.9199,-1.9279,-1.9239,-1.8811,-1.9426,-1.9893,-1.9599,-2.0401,-2.1015,-2.0882,-2.1122,-2.1256,-2.1122,-2.1109,-2.1162,-2.1296,-2.1309,-2.143,-2.1724,-2.1695,-2.1802,-2.2151,-2.2325,-2.2552,-2.2914,-2.2928,-2.2928,-2.2928,-2.2928,-2.3086,-2.3527,-2.3688,-2.3995,-2.4396,-2.4556,-2.4636,-2.4636,-2.4636,-2.4636,-2.4636,-2.4636,-2.4636,-2.4636,-2.4636,-2.4636,-2.4623,-2.4489,-2.4529,-2.4569,0.0,0.0,0.0,0.0,0.0,0.0,0.0,0.0,0.0,0.0,-1.5386,-1.5771,-1.5771,-1.645,0.0,0.0,0.0,0.0,0.0,0.0,-1.7275,-1.8045,-1.8081,-1.8485,-1.9292,-1.9292,-1.9476,-1.9802,-1.9598,-1.9655,-1.9997,-1.9769,-1.9643,-1.9643,-1.9643,-1.966,-1.9713,-1.9702,-2.011,-2.0704,-2.0272,-2.0483,-2.0935,0.0,-1.9358,-1.923,-1.8289,-1.7657,-1.7211,-1.66,-1.658,-1.6834,-1.6914,-1.7488,-1.8196,-1.8517,-1.8784,-1.9038,-1.9292,-1.943,-1.943,-1.943,-1.943,-1.943,-1.943,-1.9363,-1.9185,-1.8971,-1.9065,-1.9052,-1.8584,-1.9386,-2.0054,-1.984,-2.0722,-2.1363,-2.1136,-2.1336,-2.1403,-2.1136,-2.1149,-2.1269,-2.1588,-2.1655,-2.1724,-2.2017,-2.1804,-2.1884,-2.2392,-2.2458,-2.2592,-2.2928,-2.2928,-2.2928,-2.2928,-2.2928,-2.3166,-2.3768,-2.3768,-2.4075,-2.4636,-2.4636,-2.4636,-2.4636,-2.4636,-2.4636,-2.4636,-2.4596,-2.4596,-2.4636,-2.4596,-2.4623,-2.4663,-2.4409,-2.4502,-2.4676,0.0,0.0,0.0,0.0,0.0,0.0,0.0,0.0,0.0,0.0,-1.6321,-1.6211,0.0,0.0,0.0,0.0,0.0,0.0,0.0,0.0,0.0,-1.8045,-1.8081,-1.8485,-1.9292,-1.9292,-1.9329,-1.9402,-1.9021,-1.8874,-1.8945,-1.8522,-1.8318,-1.8318,-1.8318,-1.8514,-1.8832,-1.8725,-1.8906,-1.9309,-1.9585,-1.9769,-1.9913,-2.0196,0.0,0.0,-1.8655,-1.7781,-1.7269,-1.7077,-1.7246,-1.7515,-1.8023,-1.845,-1.8824,-1.9132,-1.931,-1.9305,-1.9359,-1.943,-1.943,-1.943,-1.943,-1.943,-1.943,-1.8985,-1.8691,-1.8878,-1.8571,-1.8317,-1.8464,-1.9052,-1.9586,-1.9773,-2.0374,-2.0895,-2.1082,-2.1149,-2.1162,-2.1122,-2.1323,-2.1561,-2.1614,-2.1764,-2.2031,-2.2325,-2.2298,-2.2311,-2.2418,-2.2645,-2.2806,-2.2928,-2.2928,-2.2928,-2.2928,-2.2928,-2.3166,-2.3768,-2.3768,-2.4075,-2.4636,-2.4636,-2.4636,-2.4636,-2.4636,-2.4636,-2.4549,-2.4382,-2.4422,-2.4609,-2.4369,-2.4569,-2.4997,-2.4943,-2.5104,-2.5344,0.0,0.0,0.0,0.0,0.0,0.0,0.0,-1.6541,-1.722,-1.8045,-1.8136,-1.7917,-1.7294,-1.7386,-1.7496,0.0,0.0,0.0,0.0,0.0,0.0,-1.8412,-1.8393,-1.8705,-1.9292,-1.9292,-1.9292,-1.9292,0.0,-1.8692,-1.8692,-1.821,-1.7991,-1.7991,-1.7991,-1.8175,-1.8492,-1.844,-1.8619,-1.8975,-1.9416,-1.9797,-2.0098,-2.0625,0.0,0.0,-1.8975,-1.8194,-1.7674,-1.6941,-1.7353,-1.813,-1.8571,-1.8918,-1.9185,-1.9332,-1.943,-1.943,-1.943,-1.943,-1.943,-1.943,-1.943,-1.9332,-1.9172,-1.8918,-1.8664,-1.8448,-1.837,-1.8277,-1.8263,-1.8865,-1.9412,-1.9546,-2.0201,-2.0722,-2.0869,-2.1015,-2.1162,-2.1323,-2.1534,-2.1735,-2.1977,-2.2124,-2.2338,-2.2632,-2.2645,-2.2645,-2.2645,-2.2779,-2.2928,-2.2928,-2.2928,-2.2928,-2.2928,-2.2928,-2.3166,-2.3768,-2.3768,-2.4075,-2.4636,-2.4636,-2.4636,-2.4636,-2.4636,-2.4556,-2.4396,-2.4262,-2.4195,-2.4182,-2.4195,-2.4462,-2.4863,-2.5024,-2.5358,-2.5718,0.0,0.0,0.0,0.0,0.0,0.0,0.0,-1.7513,-1.832,-1.9531,-1.9971,-1.9783,-1.8832,-1.8484,-1.8302,0.0,0.0,0.0,0.0,0.0,0.0,0.0,0.0,0.0,-1.9292,0.0,0.0,-1.9292,-1.8891,0.0,0.0,0.0,0.0,0.0,-1.7991,-1.8152,-1.8393,-1.8434,-1.8674,0.0,0.0,-2.0061,-2.0534,0.0,0.0,0.0,0.0,-1.8642,-1.8184,-1.7232,-1.7637,-1.8605,-1.9013,-1.9293,-1.9417,-1.9292,-1.9319,-1.943,-1.943,-1.943,-1.943,-1.943,-1.943,-1.9292,-1.8985,-1.8824,-1.8542,-1.8089,-1.813,-1.8196,-1.8102,-1.8718,-1.9239,-1.9484,-2.004,-2.0535,-2.0655,-2.0869,-2.1149,-2.1574,-2.1668,-2.1844,-2.2365,-2.2472,-2.2605,-2.2914,-2.2928,-2.2928,-2.2928,-2.2928,-2.2928,-2.2928,-2.2928,-2.2928,-2.2928,-2.2928,-2.3209,-2.3674,-2.3741,-2.4035,-2.4543,-2.4609,-2.4636,-2.4636,-2.4636,-2.4476,-2.4195,-2.4142,-2.3981,-2.3794,-2.4022,-2.4329,-2.4676,-2.5037,-2.5504,-2.601,0.0,0.0,0.0,0.0,0.0,0.0,0.0,-1.8412,-1.9567,-2.0778,-2.0979,-2.0961,-2.0851,-1.9861,-1.8907,0.0,0.0,0.0,0.0,0.0,0.0,0.0,0.0,0.0,0.0,0.0,0.0,-1.9292,-1.8891,0.0,0.0,0.0,0.0,0.0,0.0,-1.8152,-1.8393,-1.8571,0.0,0.0,0.0,0.0,0.0,0.0,0.0,0.0,0.0,-1.9004,-1.8754,-1.8918,-1.8803,-1.8743,-1.969,-1.9724,-1.9319,-1.9038,-1.9158,-1.943,-1.943,-1.943,-1.943,-1.943,-1.943,-1.9292,-1.8985,-1.849,-1.809,-1.7995,-1.7635,-1.7568,-1.8303,-1.8517,-1.8838,-1.9626,-1.9826,-2.0067,-2.0601,-2.0695,-2.0922,-2.1547,-2.1777,-2.2071,-2.2392,-2.2659,-2.2901,-2.2928,-2.2928,-2.2928,-2.2928,-2.2928,-2.2928,-2.2928,-2.2928,-2.2928,-2.2928,-2.2928,-2.3033,-2.3367,-2.3647,-2.3941,-2.4249,-2.4516,-2.4636,-2.4636,-2.4636,-2.4476,-2.4182,-2.3915,-2.3794,-2.3768,-2.3794,-2.4155,-2.4703,-2.5264,-2.5678,-2.6063,0.0,0.0,0.0,0.0,0.0,0.0,-1.777,-1.8485,-1.9476,-2.0924,-2.1328,-2.1449,-2.1449,-2.0833,-1.9971,-1.8926,0.0,0.0,0.0,0.0,0.0,0.0,0.0,0.0,0.0,0.0,-1.9292,-1.9292,-1.8891,0.0,0.0,0.0,0.0,0.0,0.0,-1.8371,-1.8612,-1.8812,0.0,0.0,0.0,0.0,0.0,0.0,0.0,0.0,0.0,0.0,-1.9538,-1.8139,-1.84,-1.9174,-1.8559,-1.8578,-1.8851,-1.8905,-1.9132,-1.943,-1.943,-1.943,-1.943,-1.943,-1.943,-1.9239,-1.8771,-1.8477,-1.8196,-1.7836,-1.7729,-1.7849,-1.8397,-1.8637,-1.8931,-1.9452,-1.9679,-1.988,-2.012,-2.0294,-2.0695,-2.1521,-2.1722,-2.1977,-2.2619,-2.2792,-2.2928,-2.2928,-2.2928,-2.2928,-2.2928,-2.2928,-2.2928,-2.2928,-2.2928,-2.2928,-2.2928,-2.2928,-2.302,-2.3327,-2.3634,-2.3928,-2.4209,-2.4502,-2.4636,-2.4623,-2.4449,-2.4209,-2.3928,-2.3621,-2.35,-2.3527,-2.3701,-2.4128,-2.469,-2.5104,-2.5545,-2.605,0.0,0.0,0.0,0.0,0.0,-1.722,-1.8155,-1.8742,-1.9604,-2.1089,-2.1504,-2.1742,-2.1851,-2.1218,-2.0466,-1.9732,-1.9439,0.0,0.0,0.0,0.0,0.0,0.0,0.0,0.0,0.0,-1.9271,-1.9231,-1.8959,-1.8758,0.0,0.0,-1.8094,-1.7991,0.0,0.0,0.0,0.0,0.0,0.0,0.0,0.0,0.0,0.0,0.0,0.0,0.0,0.0,0.0,0.0,0.0,-1.9621,-1.825,-1.8035,-1.841,-1.8704,-1.8998,-1.9252,-1.9345,-1.943,-1.943,-1.943,-1.943,-1.9212,-1.8624,-1.849,-1.8317,-1.7702,-1.7822,-1.8089,-1.8437,-1.8731,-1.9025,-1.9377,-1.9546,-1.9706,-1.9786,-1.9973,-2.0401,-2.1266,-2.1363,-2.1737,-2.2525,-2.2834,-2.2928,-2.2928,-2.2928,-2.2928,-2.2928,-2.2928,-2.2928,-2.2928,-2.2928,-2.2928,-2.2928,-2.2928,-2.2966,-2.3193,-2.3581,-2.3875,-2.4088,-2.4462,-2.4636,-2.4623,-2.4329,-2.4035,-2.3754,-2.3447,-2.3327,-2.3354,-2.3661,-2.4075,-2.4556,-2.4943,-2.5344,-2.5718,0.0,0.0,0.0,0.0,0.0,0.0,-1.8522,-1.9363,-2.0314,-2.1522,-2.1687,-2.1833,-2.2236,-2.0863,-2.0058,-2.0466,-1.9769,0.0,0.0,0.0,0.0,0.0,0.0,0.0,0.0,0.0,-1.9192,-1.8993,-1.9146,-1.8924,-1.8411,-1.8532,-1.8391,-1.7991,0.0,0.0,0.0,0.0,0.0,0.0,0.0,0.0,-2.2327,0.0,0.0,0.0,0.0,0.0,0.0,0.0,0.0,0.0,0.0,-1.8632,-1.8049,-1.841,-1.8704,-1.8998,-1.9292,-1.943,-1.943,-1.943,-1.943,-1.9212,-1.8624,-1.849,-1.8317,-1.7702,-1.7822,-1.8089,-1.8437,-1.8731,-1.9025,-1.9377,-1.943,-1.9466,-1.976,-1.98,-2.0027,-2.0615,-2.0935,-2.1349,-2.1937,-2.2525,-2.2928,-2.2928,-2.2928,-2.2928,-2.2928,-2.2928,-2.2928,-2.2928,-2.2928,-2.2928,-2.2928,-2.2928,-2.2928,-2.2941,-2.3474,-2.3768,-2.3794,-2.4369,-2.4636,-2.4623,-2.4329,-2.4035,-2.3754,-2.3447,-2.3327,-2.3354,-2.3661,-2.3955,-2.4275,-2.4863,-2.5077,-2.517,0.0,0.0,0.0,0.0,0.0,0.0,0.0,-1.8339,-1.8996,-1.9952,-2.0278,-2.0717,-2.142,-2.0515,-2.0058,-2.0442,-1.9769,0.0,0.0,0.0,0.0,0.0,0.0,0.0,0.0,-1.9292,-1.9337,-1.9426,-1.9288,-1.9206,-1.9138,-1.8773,-1.8611,-1.8614,-1.8614,-1.8732,0.0,0.0,0.0,0.0,0.0,-2.2346,-2.273,0.0,0.0,0.0,0.0,0.0,0.0,0.0,0.0,0.0,0.0,0.0,0.0,-1.8103,-1.8531,-1.8905,-1.8798,-1.9122,-1.9319,-1.9118,-1.9212,-1.9212,-1.8624,-1.849,-1.8384,-1.7983,-1.7929,-1.8142,-1.8691,-1.8865,-1.9078,-1.9586,-1.9666,-1.9693,-1.9786,-1.9973,-2.0321,-2.0909,-2.1764,-2.2378,-2.2565,-2.282,-2.2928,-2.2928,-2.2928,-2.2928,-2.2928,-2.2928,-2.2928,-2.2928,-2.2928,-2.2928,-2.2928,-2.2928,-2.2928,-2.2928,-2.3273,-2.3581,-2.3781,-2.4168,-2.4449,-2.4609,-2.4115,-2.3861,-2.3754,-2.3447,-2.3447,-2.3661,-2.3955,-2.4249,-2.4516,-2.4703,-2.4903,-2.5104,0.0,0.0,0.0,0.0,0.0,0.0,0.0,-1.7844,-1.8412,-1.9201,-1.9531,-2.0044,-2.0998,-2.0264,-1.9916,-2.0466,-1.9769,0.0,0.0,0.0,0.0,0.0,0.0,0.0,-1.9292,-1.9231,-1.9417,-1.9889,-1.9777,-1.9826,-2.0016,-1.9868,-1.9566,-1.9138,-1.9241,-1.925,0.0,0.0,0.0,0.0,-2.251,-2.2803,-2.2913,0.0,0.0,0.0,0.0,0.0,0.0,0.0,0.0,0.0,0.0,0.0,0.0,0.0,-1.821,-1.8542,-1.8637,-1.8918,-1.9185,-1.9105,-1.9145,-1.9078,-1.8597,-1.841,-1.8237,-1.7929,-1.805,-1.833,-1.8691,-1.8851,-1.9038,-1.9412,-1.9466,-1.9506,-1.9626,-1.988,-2.0334,-2.1029,-2.1857,-2.2526,-2.2672,-2.2792,-2.2928,-2.2928,-2.2928,-2.2928,-2.2928,-2.2928,-2.2928,-2.2928,-2.2928,-2.2928,-2.2928,-2.2928,-2.2928,-2.2928,-2.318,-2.3487,-2.3781,-2.4075,-2.4302,-2.4449,-2.3981,-2.3768,0.0,-2.3447,-2.3567,-2.3955,-2.4128,-2.4382,-2.4636,-2.4636,-2.4756,-2.5005,0.0,0.0,0.0,0.0,0.0,0.0,0.0,-1.7807,-1.8357,-1.9109,-1.9237,-1.9696,-2.0851,-1.9971,-1.9604,-2.0374,0.0,0.0,0.0,0.0,0.0,0.0,0.0,0.0,-1.9292,-1.9112,-1.9447,-2.0333,-2.049,-2.0726,-2.0972,-2.1535,-2.1049,-1.9659,-2.0086,-2.0003,-1.9756,-2.1478,-2.2199,-2.2346,-2.3096,-2.3187,0.0,0.0,0.0,0.0,0.0,0.0,0.0,0.0,0.0,0.0,0.0,0.0,0.0,0.0,0.0,0.0,0.0,-1.8878,-1.8958,-1.9212,-1.9078,-1.8811,-1.8531,-1.825,0.0,-1.7675,-1.805,-1.845,-1.8504,-1.8704,-1.8891,-1.8971,-1.9028,-1.9179,-1.9444,-1.9811,-2.0335,-2.1195,-2.1686,-2.2157,-2.266,-2.3039,-2.3201,-2.3201,-2.3201,-2.3201,-2.3201,-2.3133,-2.3065,-2.3065,-2.2928,-2.2928,-2.2928,-2.2928,-2.2928,-2.2928,-2.3153,-2.3447,-2.3754,-2.4035,-2.4168,-2.4155,-2.3915,-2.3794,-2.3754,-2.35,-2.3785,-2.434,-2.4367,-2.4615,-2.4918,-2.4918,-2.4844,-2.5032,0.0,0.0,0.0,0.0,0.0,0.0,0.0,0.0,0.0,0.0,-1.8669,-1.9072,-1.9659,-1.9476,-1.9384,0.0,0.0,0.0,0.0,0.0,0.0,0.0,0.0,0.0,-1.9292,-1.9112,-1.9322,-1.9943,-2.0132,-2.0724,-2.1682,-2.1817,-2.1532,-2.0953,-2.0735,-2.0503,-2.0309,-2.0735,-2.1475,-2.2337,-2.2538,-2.251,0.0,0.0,0.0,0.0,-2.198,-2.2236,0.0,0.0,0.0,0.0,0.0,0.0,0.0,0.0,-1.8423,-1.8414,-1.8252,0.0,-1.8557,-1.8397,-1.8477,-1.8517,0.0,-1.8049,-1.7969,-1.7902,-1.7862,-1.8009,-1.8691,-1.8462,-1.8488,-1.9452,-2.0197,-2.0528,-2.008,-2.1371,-2.2582,-2.3286,-2.4555,-2.5555,-2.5952,-2.6075,-2.6121,-2.6121,-2.6121,-2.6121,-2.6121,-2.5061,-2.4535,-2.4535,-2.3461,-2.2928,-2.2928,-2.2928,-2.2928,-2.2928,-2.2939,-2.3126,-2.3447,-2.3741,-2.3875,-2.3888,-2.4035,-2.3981,-2.3781,-2.3941,-2.4781,-2.597,-2.6156,-2.7011,-2.8141,-2.8141,-2.736,-2.659,0.0,0.0,0.0,0.0,0.0,0.0,0.0,0.0,0.0,0.0,0.0,0.0,0.0,0.0,0.0,0.0,0.0,0.0,0.0,0.0,0.0,0.0,0.0,-1.9292,-1.9292,-1.8993,-1.9413,-2.0554,-2.0515,-2.1206,-2.2638,-2.2737,-2.2292,-2.1311,-2.0666,-2.0431,-2.0558,-2.1065,-2.1687,-2.2337,-2.2492,0.0,0.0,0.0,0.0,0.0,-2.1687,-2.1943,0.0,-2.1246,-2.0669,-2.0255,0.0,0.0,0.0,0.0,-1.844,-1.8275,-1.7601,-1.7956,-1.8477,-1.845,-1.8464,-1.845,-1.829,-1.8036,-1.7836,-1.7836,-1.7809,-1.7983,-1.8611,-1.8571,-1.8818,-2.0028,-2.041,-2.0805,-2.1502,-2.3113,-2.4482,-2.4952,-2.5937,-2.6676,-2.6801,-2.7026,-2.7105,-2.7105,-2.7105,-2.7105,-2.7105,-2.6388,-2.5935,-2.5935,-2.5196,-2.4196,-2.2928,-2.2928,-2.3201,-2.387,-2.3201,-2.3364,-2.4275,-2.3768,-2.3647,-2.3781,-2.3941,-2.3995,-2.4053,-2.4908,-2.5826,-2.6763,-2.7647,-2.7996,-2.8213,-2.8916,-2.8213,-2.723,0.0,0.0,0.0,0.0,0.0,0.0,0.0,0.0,0.0,0.0,0.0,0.0,0.0,0.0,0.0,0.0,0.0,0.0,0.0,0.0,0.0,0.0,-1.9292,-1.9366,-1.9396,-1.8945,-1.9554,-2.1313,-2.1084,-2.1834,-2.3458,-2.389,-2.3131,-2.141,-2.0486,-2.0186,-2.0461,-2.1585,-2.2034,-2.2126,-2.2547,0.0,0.0,0.0,0.0,0.0,0.0,0.0,0.0,-2.152,-2.096,-2.044,-2.0475,0.0,0.0,0.0,0.0,0.0,-1.7241,-1.7832,-1.8727,-1.8834,-1.8808,-1.8727,-1.8851,-1.8479,-1.8042,-1.7898,-1.8049,-1.8306,-1.8809,-1.8998,-1.9597,-2.1109,-2.0914,-2.1375,-2.3394,-2.4968,-2.6004,-2.6279,-2.6825,-2.7198,-2.7182,-2.7507,-2.7784,-2.7784,-2.7784,-2.7784,-2.7784,-2.7585,-2.7453,-2.7453,-2.7254,-2.592,-2.3529,-2.3529,-2.4128,-2.5263,-2.387,-2.3941,-2.5266,-2.3914,-2.346,-2.3714,-2.3794,-2.3981,-2.434,-2.5941,-2.6676,-2.7085,-2.8573,-2.8573,-2.7795,-2.9075,-2.8716,-2.8027,0.0,0.0,0.0,0.0,0.0,0.0,0.0,0.0,0.0,0.0,0.0,0.0,0.0,0.0,0.0,0.0,0.0,0.0,0.0,0.0,0.0,-1.9292,-1.9292,-1.9502,-1.9985,-1.9151,-1.933,-2.0563,-2.1035,-2.1919,-2.3278,-2.4335,-2.389,-2.2099,-2.1266,-2.0594,-2.0021,-2.0534,-2.0979,-2.1328,-2.1705,0.0,0.0,0.0,0.0,0.0,0.0,0.0,0.0,-2.1544,-2.1421,-2.1162,-2.143,0.0,0.0,0.0,0.0,0.0,-1.844,-1.8968,-1.9454,-1.8962,-1.917,-1.9672,-2.0389,-2.0442,-2.0107,-1.9124,-1.9011,-1.9314,-2.0346,-2.0317,-2.1056,-2.374,-2.4306,-2.4754,-2.5751,-2.6429,-2.6922,-2.7295,-2.8764,-2.978,-3.0103,-3.048,-3.0714,-3.0714,-3.0714,-3.0714,-3.0714,-2.9591,-2.8937,-2.8937,-2.7718,-2.6906,-2.6455,-2.6455,-2.6588,-2.6788,-2.533,-2.4834,-2.5028,-2.3818,-2.3354,-2.342,-2.3915,-2.4168,-2.4367,-2.6112,-2.6896,-2.7085,-2.8573,-2.9861,-3.0785,-3.1084,-3.1014,-3.0956,0.0,0.0,0.0,0.0,0.0,0.0,0.0,0.0,0.0,0.0,0.0,0.0,0.0,0.0,0.0,0.0,0.0,0.0,0.0,0.0,0.0,-1.9934,-1.9751,-1.9834,-2.0292,-1.9799,-2.0282,-2.1874,-2.2043,-2.285,-2.4166,-2.3722,-2.2964,-2.1906,-2.0686,-2.0063,-1.9912,-2.0314,-2.0741,-2.1145,0.0,0.0,0.0,0.0,0.0,0.0,0.0,0.0,0.0,0.0,-2.1228,-2.08,-2.1735,0.0,0.0,0.0,0.0,0.0,-1.8234,-1.897,-2.002,-1.983,-2.0678,-2.1432,-2.113,-2.1627,-2.1618,-1.9465,-2.0126,-2.1117,-2.1104,-2.1688,-2.2757,-2.4595,-2.6071,-2.6978,-2.7004,-2.7817,-2.8585,-2.8977,-2.9886,-3.0589,-3.0772,-3.1139,-3.1377,-3.1377,-3.1377,-3.1377,-3.1377,-3.0779,-3.0455,-3.0455,-2.9787,-2.9444,-2.9444,-2.9444,-2.9051,-2.8262,-2.6069,-2.5398,-2.6069,-2.4023,-2.326,-2.3581,-2.3848,-2.4142,-2.4522,-2.6226,-2.6867,-2.7085,-2.8573,-2.9147,-2.9107,-3.016,-3.1674,-3.3145,0.0,0.0,0.0,0.0,0.0,0.0,0.0,0.0,0.0,0.0,0.0,0.0,0.0,0.0,0.0,0.0,0.0,0.0,0.0,0.0,-1.9586,-2.0209,-2.0095,-2.0351,-2.0941,-2.0648,-2.1356,-2.3111,-2.3144,-2.3802,-2.5066,-2.3468,-2.2392,-2.1632,-2.0319,-1.9751,-1.9765,-2.0209,-2.0613,-2.0998,0.0,0.0,0.0,0.0,0.0,0.0,0.0,0.0,0.0,0.0,0.0,0.0,0.0,0.0,0.0,-2.0741,-2.0414,-1.9822,-1.8365,-1.9145,-2.0459,-2.0704,-2.1823,-2.2805,-2.2408,-2.2998,-2.3035,-2.0752,-2.184,-2.3005,-2.24,-2.3671,-2.5085,-2.5666,-2.7397,-2.8473,-2.7992,-2.881,-2.9599,-3.0002,-3.0406,-3.0681,-3.0772,-3.1139,-3.1377,-3.1377,-3.1377,-3.1377,-3.1377,-3.1377,-3.1377,-3.1377,-3.1377,-3.1377,-3.1377,-3.1377,-3.0843,-2.9739,-2.6871,-2.6069,-2.6972,-2.4196,-2.3263,-2.3768,-2.3768,-2.4102,-2.471,-2.6298,-2.6721,-2.6502,-2.8068,-2.8202,-2.78,-2.9647,-3.2124,-3.4642,0.0,0.0,0.0,0.0,0.0,0.0,0.0,0.0,0.0,0.0,0.0,0.0,0.0,0.0,0.0,0.0,0.0,0.0,0.0,0.0,-1.9329,-1.9384,-2.0081,-2.1069,-2.2319,-2.1662,-2.1879,-2.3111,-2.3881,-2.4648,-2.5344,-2.4496,-2.3198,-2.1668,-2.12,-2.0374,-1.9366,-1.9747,-2.0191,-2.0594,-2.0998,0.0,0.0,0.0,0.0,0.0,0.0,0.0,0.0,0.0,0.0,0.0,0.0,0.0,-2.2108,-2.1707,-2.0749,-1.9768,-1.9884,-2.0399,-2.09,-2.1193,-2.1792,-2.2929,-2.5147,-2.5156,-2.4627,-2.4504,-2.4599,-2.483,-2.5133,-2.7057,-2.8519,-2.8187,-2.8911,-2.9379,-2.8947,-2.8971,-2.9177,-2.9562,-2.9984,-3.0387,-3.0754,-3.1139,-3.1377,-3.1377,-3.1377,-3.1377,-3.1377,-3.1377,-3.1377,-3.1377,-3.1377,-3.1377,-3.1377,-3.1377,-3.1377,-3.1184,-2.8312,-2.6988,-2.6972,-2.4196,-2.3263,-2.3768,-2.3768,-2.4102,-2.471,-2.6298,-2.6078,-2.4918,-2.643,-2.8137,-2.9784,-3.132,-3.3249,-3.5045,0.0,0.0,0.0,0.0,0.0,0.0,0.0,0.0,0.0,0.0,0.0,0.0,0.0,0.0,0.0,0.0,0.0,0.0,0.0,-1.9292,-1.9531,-2.0044,-2.0356,-2.0966,-2.1989,-2.2444,-2.342,-2.4878,-2.524,-2.5274,-2.4977,-2.3639,-2.2428,-2.131,-2.0393,-1.9879,-1.9655,-1.982,-2.0113,-2.0521,-2.0686,-2.0594,0.0,0.0,0.0,0.0,0.0,0.0,0.0,0.0,-2.0607,-2.0936,-2.0936,-2.1394,-2.1833,-2.1412,-2.0974,-2.0473,-1.9952,-2.1164,-2.2286,-2.132,-2.246,-2.4063,-2.4949,-2.5918,-2.626,-2.4978,-2.5789,-2.6652,-2.6601,-2.7919,-2.8847,-2.8462,-2.8847,-2.9159,-2.9012,-2.8975,-2.9232,-2.9892,-3.0094,-3.0461,-3.1102,-3.1286,-3.1377,-3.1377,-3.1377,-3.1377,-3.1377,-3.1377,-3.1377,-3.1377,-3.1377,-3.1377,-3.1377,-3.1377,-3.1377,-3.1377,-2.8509,-2.7105,-2.6972,-2.4196,-2.3721,-2.52,-2.52,-2.5498,-2.6078,-2.6648,-2.6005,-2.4797,-2.6571,-2.8246,-2.9863,-3.0958,-3.1737,-3.2531,0.0,0.0,0.0,0.0,0.0,0.0,0.0,0.0,0.0,0.0,0.0,0.0,0.0,0.0,0.0,0.0,0.0,0.0,-1.9292,-1.9292,-1.9549,-2.0118,-2.0374,-2.0833,-2.1485,-2.2803,-2.4029,-2.5197,-2.5378,-2.5029,-2.417,-2.2795,-2.1841,-2.1255,-2.0173,-1.9842,-2.0058,-1.9948,-2.004,-2.0296,-2.0296,-2.0131,0.0,0.0,0.0,0.0,0.0,0.0,0.0,0.0,-2.0076,-2.0314,-2.0484,-2.0979,-2.1412,-2.1034,-2.12,-2.1324,-2.0536,-2.1705,-2.2917,-2.2138,-2.3309,-2.4754,-2.53,-2.6348,-2.6947,-2.6008,-2.6777,-2.7601,-2.7454,-2.804,-2.8553,-2.8407,-2.8718,-2.8975,-2.8975,-2.8975,-2.9287,-3.0112,-3.0204,-3.0516,-3.1304,-3.1377,-3.1377,-3.1377,-3.1377,-3.1377,-3.1377,-3.1377,-3.1377,-3.1377,-3.1377,-3.1377,-3.1377,-3.1377,-3.1377,-3.1377,-2.8986,-2.7784,-2.7718,-2.4975,-2.4827,-2.6728,-2.6818,-2.6911,-2.6867,-2.6867,-2.6062,-2.4871,-2.6238,-2.7762,-2.9384,-2.994,-3.04,-3.1058,0.0,0.0,0.0,0.0,0.0,0.0,0.0,0.0,-1.9292,-1.9292,-1.9292,0.0,0.0,0.0,0.0,0.0,0.0,0.0,-1.9292,-1.9292,-1.9292,-1.9292,-2.0081,-2.0686,-2.1071,-2.2638,-2.348,-2.3499,-2.395,-2.373,-2.2895,-2.2071,-2.1687,-2.165,-2.0845,-2.0521,-2.0484,-2.0058,-1.9893,-1.9893,-1.9893,-1.9893,-1.9875,0.0,0.0,0.0,0.0,0.0,0.0,0.0,-1.9893,-1.9966,-2.0351,-2.0778,-2.1034,-2.0631,-2.1365,-2.2181,-2.1778,-2.198,-2.263,-2.3889,-2.422,-2.4771,-2.6774,-2.6609,-2.648,-2.8058,-2.7746,-2.7306,-2.7748,-2.7822,-2.7911,-2.8333,-2.8718,-2.8975,-2.8975,-2.8975,-2.9287,-3.0112,-3.0204,-3.0516,-3.1304,-3.1377,-3.1377,-3.1377,-3.1377,-3.1377,-3.1377,-3.1377,-3.1377,-3.1377,-3.1377,-3.1377,-3.1377,-3.1377,-3.1377,-3.1377,-2.9935,-2.9282,-2.9216,-2.6744,-2.6549,-2.8201,-2.8621,-2.812,-2.6939,-2.6867,-2.6189,-2.5152,-2.5166,-2.6474,-2.8373,-2.8373,-2.964,-3.1223,0.0,0.0,0.0,0.0,0.0,0.0,0.0,0.0,-1.9292,-1.9292,-1.9292,0.0,0.0,0.0,0.0,0.0,0.0,0.0,-1.9292,-1.9292,-1.9292,-1.9292,-1.9824,-2.0026,-1.9842,-2.0869,-2.2245,-2.3969,-2.3804,-2.3308,-2.2455,-2.1943,-2.1394,-2.0888,-2.0924,-2.0631,-2.0058,-1.993,-1.9893,-1.9893,-1.9893,-1.971,-1.9512,0.0,0.0,0.0,0.0,0.0,0.0,0.0,0.0,0.0,-1.9714,-2.0521,-2.1321,-2.0351,-2.0717,-2.1328,-2.0607,-2.2006,-2.3492,-2.2997,-2.4794,-2.6829,-2.7105,-2.705,-2.7087,-2.7801,-2.7985,-2.7985,-2.7858,-2.8242,-2.8572,-2.8425,-2.8718,-2.8975,-2.8975,-2.8975,-2.9287,-3.0112,-3.0204,-3.0516,-3.1304,-3.1377,-3.1377,-3.1377,-3.1377,-3.1377,-3.1377,-3.1377,-3.1377,-3.1377,-3.1377,-3.1377,-3.1377,-3.1377,-3.1377,-3.1377,-2.9142,-2.8124,-2.8057,-2.741,-2.7636,-2.8621,-2.8716,-2.8672,-2.8372,-2.6453,-2.6029,-2.6737,-2.724,-2.7755,-2.8326,-2.8622,-2.838,-2.8154,0.0,0.0,0.0,0.0,0.0,0.0,-1.9292,-1.9292,-1.9292,-1.9292,-1.9292,-1.9292,0.0,0.0,0.0,-1.9292,-1.9292,-1.9292,-1.9292,-1.9292,-1.9292,-1.9292,-1.9549,-1.9714,-1.9787,-2.0411,-2.1401,-2.2703,-2.263,-2.2199,-2.1603,-2.165,-2.1522,-2.1255,-2.1658,-2.1357,-2.0589,-2.0424,-2.0168,-1.9893,-1.9893,-1.9729,-1.9586,0.0,0.0,0.0,0.0,0.0,0.0,0.0,0.0,0.0,-1.9384,-2.0099,-2.09,-2.0479,-2.1156,-2.208,-2.2098,-2.3455,-2.49,-2.4757,-2.6151,-2.7564,-2.7491,-2.7416,-2.7528,-2.7767,-2.7838,-2.793,-2.8003,-2.8425,-2.8718,-2.8645,-2.8828,-2.8975,-2.8975,-2.9122,-2.947,-3.0112,-3.0332,-3.0681,-3.1322,-3.1377,-3.1377,-3.1377,-3.1377,-3.1377,-3.1377,-3.1377,-3.1377,-3.1377,-3.1377,-3.1377,-3.1377,-3.1543,-3.1634,-3.1634,-3.0215,-2.9038,-2.8021,-2.7454,-2.8089,-2.9551,-2.8499,-2.8177,-2.8297,-2.6029,-2.5814,-2.6881,-2.7324,-2.7459,-2.7523,-2.7784,-2.724,-2.6702,0.0,0.0,0.0,0.0,0.0,0.0,-1.9292,-1.9292,-1.9292,-1.9292,-1.9292,-1.9292,0.0,0.0,0.0,-1.9292,-1.9292,-1.9292,-1.9292,-1.9292,-1.9292,-1.9292,-1.9347,-1.9714,-2.0448,-2.0814,-2.0796,-2.0356,-2.0796,-2.0833,-2.0539,-2.1229,-2.1797,-2.2181,-2.2602,-2.2309,-2.1449,-2.1108,-2.0461,-1.9783,-1.982,-1.9838,-1.9838,-1.9875,0.0,0.0,0.0,0.0,0.0,0.0,0.0,0.0,-1.9292,-1.9622,-2.0076,-2.0759,-2.2071,-2.3627,-2.4757,-2.5543,-2.637,-2.7856,-2.7746,-2.738,-2.7748,-2.7822,-2.7822,-2.7822,-2.7508,-2.7526,-2.8297,-2.8443,-2.8572,-2.892,-2.8975,-2.8975,-2.8975,-2.9324,-2.9727,-3.0149,-3.0552,-3.0937,-3.1341,-3.1377,-3.1377,-3.1377,-3.1377,-3.1377,-3.1377,-3.1377,-3.1377,-3.1377,-3.1377,-3.1396,-3.1433,-3.1818,-3.1954,-3.1859,-3.2108,-3.0959,-2.8553,-2.7423,-2.8217,-3.0402,-2.7992,-2.7012,-2.7066,-2.5732,-2.5478,-2.6037,-2.6063,-2.6159,-2.6386,-2.6386,-2.6386,-2.6386,0.0,0.0,0.0,0.0,0.0,0.0,-1.9292,-1.9292,-1.9292,-1.9292,-1.9292,-1.9292,-1.9292,-1.9292,0.0,-1.9292,-1.9292,-1.9292,-1.9292,-1.9292,-1.9292,-1.9292,-1.9622,-1.9838,-2.0021,-2.0095,-1.9824,-1.9109,-1.9824,-2.0301,-2.0479,-2.0704,-2.0998,-2.1383,-2.176,-2.1156,-1.9824,-1.9732,-1.9301,-1.8783,-1.9231,-1.9319,-1.9254,-1.9724,-1.9659,0.0,0.0,0.0,0.0,0.0,0.0,0.0,-1.9292,-1.9806,-2.0301,-1.9824,-2.1071,-2.2529,-2.2538,-2.4207,-2.6168,-2.6811,-2.7563,-2.8058,-2.782,-2.7822,-2.7822,-2.7822,-2.7967,-2.8278,-2.8773,-2.8847,-2.8883,-2.8975,-2.8975,-2.8975,-2.8975,-2.9324,-2.9727,-3.0149,-3.0552,-3.0937,-3.1341,-3.1377,-3.1377,-3.1377,-3.1377,-3.1377,-3.1377,-3.1377,-3.1377,-3.1377,-3.1377,-3.1543,-3.1873,-3.1964,-3.1535,-3.0663,-2.9879,-2.919,-2.8624,-2.9551,-2.9135,-2.7704,-2.7394,-2.6638,-2.563,-2.5725,-2.5838,-2.605,-2.6213,-2.6333,-2.6386,-2.6386,-2.6386,-2.6623,0.0,0.0,0.0,0.0,0.0,0.0,0.0,0.0,-1.9531,-1.9329,-1.9292,-1.9292,-1.9292,-1.9292,0.0,0.0,-1.9292,-1.9292,-1.9292,-1.9292,-1.9292,-1.9292,-1.9714,-1.9802,-1.9641,-1.9783,-1.9531,-1.8705,-1.8905,-1.9436,-2.0204,-2.0429,-2.0943,-2.1695,-2.1668,-2.0818,-1.9352,-1.9297,-1.8906,-1.8333,-1.8451,-1.8734,-1.9112,-1.8891,-1.8885,-1.9017,-1.9017,0.0,0.0,0.0,0.0,0.0,0.0,0.0,-1.9971,-2.0118,-2.0906,-2.2043,-2.3382,-2.4831,-2.6296,-2.7435,-2.7911,-2.804,-2.7877,-2.7822,-2.7822,-2.7822,-2.8095,-2.8517,-2.8902,-2.8975,-2.8975,-2.8975,-2.8975,-2.9048,-2.9232,-2.9617,-3.002,-3.0424,-3.0827,-3.1157,-3.1359,-3.1377,-3.1377,-3.1377,-3.1377,-3.1377,-3.1377,-3.1377,-3.1377,-3.1377,-3.1579,-3.1781,-3.2001,-3.1635,-3.116,-3.0583,-2.9406,-2.86,-2.8053,-2.8687,-2.7935,-2.6024,-2.6192,-2.5978,-2.5518,-2.5903,-2.6117,-2.6186,-2.6333,-2.6386,-2.6386,-2.6386,-2.6386,-2.6544,0.0,0.0,0.0,0.0,0.0,0.0,0.0,0.0,0.0,-1.9347,-1.9292,-1.9292,-1.9292,-1.9292,-1.9274,0.0,0.0,0.0,-1.9109,-1.9164,-1.9237,-1.9292,-1.9714,-1.9692,-1.9311,-1.9641,-1.9344,-1.8504,-1.8174,-1.8594,-1.9783,-2.0154,-2.0961,-2.2053,-2.1595,-2.0616,-1.9263,-1.9051,-1.8629,-1.8005,-1.7691,-1.8184,-1.8937,-1.8011,-1.8059,-1.8614,-1.8614,-1.8815,-1.9109,-1.9182,0.0,0.0,0.0,0.0,-1.9494,-2.0503,-2.0943,-2.1713,-2.4482,-2.569,-2.6591,-2.8498,-2.8425,-2.7875,-2.7875,-2.7875,-2.7875,-2.7875,-2.8205,-2.859,-2.892,-2.8975,-2.8975,-2.8975,-2.8975,-2.9122,-2.9525,-2.9929,-3.0351,-3.0736,-3.1139,-3.1377,-3.1377,-3.1377,-3.1377,-3.1377,-3.1377,-3.1377,-3.1377,-3.1377,-3.1414,-3.1488,-3.1818,-3.1943,-3.1806,-3.1199,-3.0647,-3.021,-2.9067,-2.7948,-2.6978,-2.6776,-2.6094,-2.5157,-2.5211,-2.5504,-2.6037,-2.609,-2.6172,-2.6386,-2.6386,-2.6386,-2.6386,-2.6386,-2.6386,-2.6386,0.0,0.0,0.0,0.0,0.0,0.0,0.0,0.0,0.0,0.0,-1.9292,-1.9292,-1.9292,-1.9292,-1.9164,-1.8815,-1.9109,-1.9017,-1.832,0.0,0.0,-1.9292,-1.9714,-1.9692,-1.9311,-1.9366,-1.8815,-1.766,-1.7605,-1.8192,-1.9384,-1.9439,-2.0099,-2.1236,-2.0461,-1.9633,-1.8734,-1.8045,-1.7588,-1.7332,-1.7461,-1.7715,-1.8003,-1.8023,-1.808,-1.8173,-1.8173,-1.8191,-1.8301,-1.8669,-1.8797,0.0,0.0,0.0,-1.9329,-1.9494,-2.0283,-2.1273,-2.208,-2.4354,-2.6903,-2.8572,-2.8645,-2.8315,-2.8315,-2.8315,-2.8315,-2.8315,-2.8627,-2.892,-2.8975,-2.8975,-2.8975,-2.8975,-2.8975,-2.9122,-2.9525,-2.9929,-3.0351,-3.0736,-3.1139,-3.1377,-3.1377,-3.1377,-3.1377,-3.1377,-3.1377,-3.1377,-3.1377,-3.1377,-3.1543,-3.1909,-3.1983,-3.1648,-3.1081,-3.0978,-2.9715,-2.7446,-2.6186,-2.5548,-2.5377,-2.5594,-2.5563,-2.5464,-2.5732,-2.5956,-2.605,-2.6226,-2.636,-2.6386,-2.6386,-2.6386,-2.6386,-2.6386,-2.6386,-2.6386,0.0,0.0,0.0,0.0,0.0,0.0,0.0,0.0,0.0,0.0,0.0,-1.9292,-1.9292,-1.9292,-1.9146,-1.8742,-1.8871,-1.8724,-1.8118,-1.8284,-1.8559,-1.8962,-1.9146,-1.9125,-1.8981,-1.8962,-1.8485,-1.7495,-1.7495,-1.8119,-1.9292,-1.9292,-1.9774,-2.0572,-1.9472,-1.8446,-1.7514,-1.6612,-1.6404,-1.6684,-1.5857,-1.6788,-1.8439,-1.6798,-1.723,-1.8687,-1.8009,-1.7917,-1.8155,-1.8577,-1.8705,-1.8779,-1.9182,0.0,0.0,0.0,-1.9677,-2.0539,-2.2538,-2.4794,-2.6976,-2.859,-2.8682,-2.8388,-2.8388,-2.8388,-2.8388,-2.8388,-2.8718,-2.8975,-2.8975,-2.8975,-2.8975,-2.8975,-2.9177,-2.9452,-2.9874,-3.0277,-3.0681,-3.1066,-3.1267,-3.1377,-3.1377,-3.1377,-3.1377,-3.1377,-3.1377,-3.1377,-3.1377,-3.1598,-3.1818,-3.2001,-3.1622,-3.125,-3.0891,-2.9395,-2.7749,-2.5917,-2.5472,-2.5411,-2.5571,-2.5705,-2.5758,-2.5772,-2.5905,-2.613,-2.6213,-2.6333,-2.6386,-2.6386,-2.6386,-2.6386,-2.6386,-2.6386,-2.6386,-2.6386,0.0,0.0,0.0,0.0,0.0,0.0,0.0,0.0,0.0,0.0,0.0,-1.9292,-1.9292,0.0,0.0,0.0,-1.8467,-1.8192,-1.7661,-1.7715,-1.7954,-1.8247,-1.8449,-1.8504,-1.8412,-1.8302,-1.788,-1.7045,-1.7132,-1.7807,-1.9015,-1.8935,-1.9281,-1.9872,-1.9099,-1.8094,-1.6862,-1.6093,-1.614,-1.6558,-1.5486,-1.6672,-1.8937,-1.688,-1.7635,-1.9586,-1.8265,-1.8009,-1.8284,-1.8375,-1.8412,-1.8467,-1.8871,-1.9072,0.0,0.0,0.0,-1.9916,-2.2777,-2.45,-2.5968,-2.7893,-2.815,-2.804,-2.8443,-2.8462,-2.8425,-2.8517,-2.8773,-2.8975,-2.8975,-2.8975,-2.8975,-2.8975,-2.9324,-2.9727,-3.0149,-3.0534,-3.0937,-3.1322,-3.1377,-3.1377,-3.1377,-3.1377,-3.1377,-3.1377,-3.1377,-3.1414,-3.1524,-3.1836,-3.2093,-3.2313,-3.137,-3.0786,-3.0453,-2.7765,-2.5992,-2.5197,-2.5491,-2.5745,-2.6037,-2.6039,-2.6066,-2.6066,-2.6066,-2.6186,-2.6386,-2.6386,-2.6386,-2.6386,-2.6386,-2.6386,-2.6386,-2.6386,-2.6386,-2.6386,0.0,0.0,0.0,0.0,0.0,0.0,0.0,0.0,0.0,0.0,0.0,-1.9292,-1.9292,-1.8962,-1.8577,-1.8155,-1.7789,-1.7238,-1.6434,-1.6762,-1.6982,-1.7,-1.7697,0.0,-1.7568,-1.7183,-1.6614,-1.5894,-1.6219,-1.7009,-1.8238,-1.7997,-1.8253,-1.8948,-1.9912,-1.9317,-1.7532,-1.7423,-1.7387,-1.746,-1.777,-1.8245,-1.8813,-1.9834,-2.0528,-2.0796,-1.9219,-1.8669,-1.8577,-1.7807,-1.755,-1.7623,-1.8045,-1.8393,-1.8742,0.0,0.0,0.0,-2.1357,-2.2144,-2.3217,-2.6004,-2.6701,-2.7086,-2.8608,-2.8663,-2.8498,-2.8883,-2.8975,-2.8975,-2.8975,-2.8975,-2.8975,-2.8975,-2.9324,-2.9727,-3.0149,-3.0534,-3.0937,-3.1322,-3.1377,-3.1377,-3.1377,-3.1377,-3.1377,-3.1377,-3.1377,-3.1543,-3.1946,-3.2001,-3.2368,-3.3138,-3.165,-3.0416,-2.9313,-2.6569,-2.5273,-2.5491,-2.5785,-2.5945,-2.605,-2.6239,-2.6373,-2.6373,-2.6373,-2.6373,-2.6386,-2.6386,-2.6386,-2.6386,-2.6386,-2.6386,-2.6386,-2.6386,-2.6386,-2.6386,0.0,0.0,0.0,0.0,0.0,0.0,0.0,0.0,0.0,0.0,0.0,0.0,0.0,-1.8797,-1.8449,-1.777,-1.7348,-1.7,-1.6707,-1.6835,-1.7018,-1.7275,-1.7825,-1.7917,-1.7513,-1.7134,-1.6455,-1.5463,-1.5826,-1.61,-1.6441,-1.7021,-1.699,-1.648,-1.758,-1.7614,-1.6806,-1.6233,-1.6175,-1.651,-1.7391,-1.8488,-1.9625,-2.028,-2.1248,-2.2071,-2.0741,-1.9586,-1.8705,-1.8669,-1.832,-1.7917,-1.8045,-1.8394,-1.8705,-1.8705,-1.8999,-1.9659,-2.1248,-2.1797,-2.2455,-2.4849,-2.6023,-2.6811,-2.7636,-2.8315,-2.881,-2.8957,-2.8975,-2.8975,-2.8975,-2.8975,-2.9067,-2.9324,-2.9709,-3.0112,-3.0516,-3.0919,-3.1212,-3.1359,-3.1377,-3.1377,-3.1377,-3.1377,-3.1377,-3.1377,-3.1634,-3.1854,-3.2001,-3.2496,-3.2426,-3.1737,-3.0467,-2.8663,-2.6284,-2.563,-2.5411,-2.5518,-2.5999,-2.6239,-2.6239,-2.6346,-2.6386,-2.6386,-2.6386,-2.6386,-2.6386,-2.6386,-2.6386,-2.6386,-2.6386,-2.6386,-2.6386,-2.6386,-2.6386,-2.6386,0.0,0.0,0.0,0.0,0.0,0.0,0.0,0.0,-1.9292,-1.9292,0.0,0.0,0.0,0.0,-1.8339,-1.7385,-1.6945,-1.6652,-1.6505,-1.6633,-1.6835,-1.7092,-1.7623,-1.7715,-1.7312,-1.7223,-1.6486,-1.5067,-1.5445,-1.5463,-1.5166,-1.5691,-1.5715,-1.5301,-1.5988,-1.6332,-1.6339,-1.595,-1.5875,-1.6134,-1.7622,-1.8666,-1.9583,-2.119,-2.2193,-2.2565,-2.1658,-2.0539,-1.9567,-1.9824,-1.9567,-1.9054,-1.865,-1.8412,-1.8357,-1.8632,-1.8907,-1.9366,-2.0594,-2.0973,-2.1577,-2.3657,-2.4666,-2.5546,-2.7031,-2.7783,-2.8333,-2.8865,-2.8975,-2.8975,-2.8975,-2.8975,-2.9104,-2.9507,-2.9929,-3.0332,-3.0736,-3.1121,-3.1377,-3.1377,-3.1377,-3.1377,-3.1377,-3.1506,-3.1579,-3.1579,-3.1964,-3.2276,-3.2404,-3.2936,-3.2289,-3.0363,-2.9091,-2.7274,-2.4783,-2.517,-2.5411,-2.5518,-2.6012,-2.6239,-2.6253,-2.6346,-2.6386,-2.6386,-2.6386,-2.6386,-2.6386,-2.6386,-2.6386,-2.6386,-2.6386,-2.6386,-2.6386,-2.6386,-2.6386,-2.6386,0.0,0.0,0.0,0.0,0.0,0.0,-1.9329,-1.9311,-1.9292,-1.9292,0.0,0.0,0.0,0.0,0.0,-1.7055,-1.6597,-1.6193,-1.5771,-1.612,-1.634,-1.634,-1.7092,-1.733,-1.6892,-1.7241,-1.6508,-1.4565,-1.5032,-1.5046,-1.4656,-1.4176,-1.4545,-1.5569,-1.5505,-1.5786,-1.6245,-1.6754,-1.6736,-1.6527,-1.8562,-1.8908,-1.8655,-2.2623,-2.3352,-2.2245,-2.188,-2.1485,-2.1145,-2.1145,-2.1108,-2.0869,-1.9641,-1.8449,-1.766,-1.8467,-1.8705,-1.8797,0.0,0.0,0.0,-2.2327,-2.2547,-2.3235,-2.6811,-2.7068,-2.6995,-2.8608,-2.8938,-2.8938,-2.8975,-2.8993,-2.9122,-2.9525,-2.9929,-3.0351,-3.0754,-3.1139,-3.1377,-3.1377,-3.1377,-3.1377,-3.1396,-3.1763,-3.2019,-3.2019,-3.2386,-3.279,-3.3211,-3.3162,-3.193,-2.9274,-2.7722,-2.6294,-2.5064,-2.5077,-2.5224,-2.5504,-2.5798,-2.6023,-2.5959,-2.6239,-2.6373,-2.6373,-2.6386,-2.6386,-2.6386,-2.6386,-2.6386,-2.6386,-2.6386,-2.6386,-2.6386,-2.6386,-2.6386,-2.6386,0.0,0.0,0.0,0.0,0.0,-1.971,-1.971,-1.9494,-1.9292,0.0,0.0,0.0,-1.8907,-1.8779,-1.8577,-1.8247,-1.7825,-1.744,-1.7018,-1.6835,-1.6743,-1.6743,-1.7478,-1.746,-1.6435,-1.6302,-1.5465,-1.381,-1.447,-1.4332,-1.3483,-1.4717,-1.4972,-1.4403,-1.5024,-1.5031,-1.4638,-1.567,-1.5659,-1.5088,-1.7533,-1.8367,-1.8441,-2.1431,-2.2691,-2.285,-2.2746,-2.2405,-2.1988,-2.1988,-2.1174,-2.0003,-1.8795,-1.8009,-1.7605,-1.8137,-1.8485,-1.8797,-1.9201,0.0,0.0,0.0,0.0,0.0,-2.3865,-2.4812,-2.5729,-2.7343,-2.7673,-2.7948,-2.8828,-2.9214,-2.9544,-2.9965,-3.013,-3.0442,-3.1121,-3.1304,-3.1377,-3.1377,-3.1377,-3.1506,-3.1799,-3.1946,-3.2129,-3.2404,-3.2808,-3.3101,-3.3211,-3.2434,-3.1107,-2.9274,-2.7722,-2.6194,-2.4756,-2.497,-2.5117,-2.5197,-2.5491,-2.5638,-2.5651,-2.5945,-2.6079,-2.6092,-2.6306,-2.6386,-2.6386,-2.6386,-2.6386,-2.6386,-2.6386,-2.6386,-2.6386,-2.6386,-2.6386,-2.6386,0.0,0.0,-2.0704,-2.0539,-2.0424,-2.0314,-2.0168,-1.9971,-1.9806,0.0,0.0,0.0,-1.9256,-1.9366,-1.9274,-1.876,-1.8319,-1.7954,-1.7513,-1.7128,-1.6908,-1.6908,-1.7661,-1.7659,-1.6756,-1.7063,-1.643,-1.4715,-1.515,-1.4649,-1.322,-1.4187,-1.4319,-1.3763,-1.4413,-1.4522,-1.4265,-1.5157,-1.5108,-1.4615,-1.686,-1.7613,-1.7765,-2.0945,-2.1759,-2.1312,-2.2282,-2.2174,-2.1764,-2.2423,-2.1725,-2.0552,-2.0003,-1.9017,-1.8009,-1.8063,-1.8484,-1.8999,-1.9237,-1.9292,-1.9439,-2.0026,0.0,0.0,-2.351,-2.439,-2.5381,-2.749,-2.793,-2.815,-2.8847,-2.9305,-2.9709,-3.013,-3.0332,-3.0662,-3.1286,-3.1377,-3.1377,-3.1377,-3.1377,-3.1543,-3.1964,-3.2148,-3.2423,-3.2826,-3.323,-3.3468,-3.3468,-3.1598,-3.0146,-2.9202,-2.707,-2.5561,-2.4823,-2.4997,-2.5144,-2.5264,-2.5558,-2.5692,-2.5705,-2.5999,-2.6132,-2.6146,-2.6319,-2.6386,-2.6386,-2.6386,-2.6386,-2.6386,-2.6386,-2.6386,-2.6386,-2.6386,-2.6386,-2.6386,0.0,0.0,-2.1034,-2.0759,-2.0979,-2.1071,-2.0778,-2.0649,-2.0594,0.0,-2.0296,-2.0113,-2.0149,-2.0429,-2.0113,-1.9072,-1.854,-1.8064,-1.7587,-1.7202,-1.6963,-1.6908,-1.7661,-1.788,-1.7424,-1.8536,-1.8208,-1.6334,-1.6426,-1.5551,-1.3738,-1.3509,-1.354,-1.3774,-1.4007,-1.4318,-1.4621,-1.4947,-1.5028,-1.5077,-1.6611,-1.7026,-1.7122,-2.076,-2.0736,-1.9036,-2.0899,-2.1351,-2.122,-2.2772,-2.2722,-2.2053,-2.2126,-2.0814,-1.9015,-1.8393,-1.8852,-1.9476,-1.9402,-1.9366,-1.9531,-2.0209,-2.0191,0.0,-2.4042,-2.4556,-2.5124,-2.7765,-2.8352,-2.8443,-2.8608,-2.9012,-2.9434,-2.98,-3.0413,-3.0946,-3.1322,-3.1377,-3.1377,-3.1377,-3.1414,-3.1616,-3.2038,-3.2441,-3.2845,-3.3266,-3.3615,-3.3817,-3.3817,-3.1067,-2.9345,-2.9202,-2.6357,-2.4905,-2.5024,-2.5037,-2.5157,-2.5411,-2.5718,-2.5929,-2.5943,-2.6199,-2.6346,-2.6346,-2.6373,-2.6386,-2.6386,-2.6386,-2.6386,-2.6386,-2.6386,-2.6386,-2.6386,-2.6386,-2.6386,-2.6386,-2.0778,-2.0998,-2.1291,-2.1833,-2.1723,-2.165,-2.1888,-2.142,-2.1108,-2.1412,-2.1394,-2.1467,-2.1778,-2.1346,-2.0906,-2.0668,-1.9677,-1.876,-1.8045,-1.7605,-1.7238,-1.6927,-1.7661,-1.7747,-1.6949,-1.7604,-1.7218,-1.5837,-1.6252,-1.6041,-1.5365,-1.5896,-1.5861,-1.5349,-1.5101,-1.4823,-1.4585,-1.434,-1.5333,-1.7043,-1.7395,-1.7767,-1.8297,-1.9351,-2.0036,-2.0345,-1.9888,-2.0963,-2.2841,-2.4038,-2.435,-2.3859,-2.1951,-2.165,-2.1687,-1.9677,-1.9861,-2.0613,-1.9948,-1.9765,-1.9729,-1.9586,-1.9971,0.0,-2.0906,-2.142,-2.2263,-2.3755,-2.434,-2.4996,-2.637,-2.7197,-2.7673,-2.7746,-2.9434,-3.0865,-3.135,-3.1377,-3.1377,-3.1377,-3.1671,-3.2038,-3.2441,-3.2863,-3.3266,-3.367,-3.378,-3.3817,-3.3817,-3.2088,-3.0501,-2.9202,-2.7433,-2.5887,-2.4716,-2.4716,-2.4743,-2.481,-2.5104,-2.5251,-2.5264,-2.5798,-2.6117,-2.6052,-2.6293,-2.6386,-2.6386,-2.6386,-2.6386,-2.6386,-2.6386,-2.6386,-2.6386,-2.6386,-2.6386,-2.6386,-2.0741,-2.1145,-2.1577,-2.2181,-2.2291,-2.2364,-2.2565,-2.2254,-2.2053,-2.2272,-2.2474,-2.2364,-2.1786,-2.1713,-2.131,-2.0301,-1.9659,-1.9054,-1.8449,-1.8045,-1.7623,-1.722,-1.799,-1.8094,-1.7484,-1.811,-1.806,-1.7214,-1.7248,-1.6861,-1.61,-1.6281,-1.6561,-1.6946,-1.5755,-1.5875,-1.6874,-1.5668,-1.6069,-1.7517,-1.7204,-1.7843,-1.9082,-1.9491,-1.9702,-1.9959,-2.0589,-2.2086,-2.3771,-2.4456,-2.4338,-2.3767,-2.3143,-2.2795,-2.2236,-2.0448,-2.0631,-2.1163,-1.9952,-1.9622,-1.9622,-1.9622,-1.9769,0.0,0.0,-2.1229,-2.1833,-2.3529,-2.3859,-2.4152,-2.5231,-2.6076,-2.6701,-2.6848,-2.8864,-3.0259,-2.9953,-3.1069,-3.1902,-3.1912,-3.2329,-3.2701,-3.32,-3.3557,-3.3855,-3.4057,-3.4094,-3.3659,-3.2736,-3.1209,-2.9647,-2.8068,-2.6721,-2.5723,-2.5161,-2.5161,-2.5229,-2.5377,-2.5447,-2.5518,-2.5531,-2.5972,-2.6172,-2.6186,-2.6319,-2.6386,-2.6386,-2.6386,-2.6386,-2.6386,-2.6386,-2.6386,-2.6386,-2.6386,-2.6386,-2.6386,-2.0613,-2.1193,-2.1815,-2.2217,-2.262,-2.2913,-2.2913,-2.2913,-2.2913,-2.2913,-2.3316,-2.318,-2.1951,-2.2337,-2.2025,-2.0374,-2.0099,-1.9732,-1.9109,-1.8722,-1.8357,-1.7862,-1.8394,-1.8557,-1.8357,-1.8907,-1.8999,-1.8557,-1.8155,-1.7532,-1.6593,-1.6191,-1.6698,-1.7908,-1.6593,-1.7097,-1.8871,-1.7477,-1.7495,-1.8348,-1.7482,-1.8118,-1.9654,-2.0321,-2.0015,-1.9515,-2.1788,-2.3206,-2.4132,-2.4683,-2.4279,-2.37,-2.4262,-2.384,-2.2813,-2.1126,-2.1394,-2.1951,-2.0228,-1.9824,-1.9916,-1.9966,-1.9916,-2.0118,0.0,0.0,0.0,-2.3639,-2.3871,-2.392,-2.4225,-2.4882,-2.5417,-2.5646,-2.7789,-2.8923,-2.764,-2.999,-3.1853,-3.1825,-3.2701,-3.3397,-3.3516,-3.3717,-3.4048,-3.4452,-3.4091,-3.3193,-3.1702,-3.0146,-2.8644,-2.7085,-2.5946,-2.5423,-2.5744,-2.567,-2.5746,-2.6123,-2.604,-2.6061,-2.627,-2.6489,-2.6623,-2.6544,-2.6544,-2.6465,-2.6386,-2.6386,-2.6386,-2.6386,-2.6386,-2.6386,-2.6386,-2.6386,-2.6386,-2.6386,-2.0906,-2.1376,-2.1815,-2.2217,-2.262,-2.2913,-2.2913,-2.2913,-2.2913,-2.2913,-2.362,-2.4202,-2.4354,-2.4165,-2.3908,-2.3669,-2.2942,-2.187,-2.0369,-2.0223,-1.9897,-1.9127,-1.8852,-1.8852,-1.9164,-1.8907,-1.8577,-1.8155,-1.777,-1.7496,-1.7369,-1.6951,-1.686,-1.7079,-1.8317,-1.841,-1.7752,-1.8595,-2.0044,-2.1634,-2.0133,-1.9631,-2.005,-2.1647,-2.1431,-2.0533,-2.2301,-2.3079,-2.3478,-2.5235,-2.5989,-2.5821,-2.3755,-2.4469,-2.5436,-2.2043,-2.2648,-2.4005,-2.2006,-2.1668,-2.1687,-2.0704,-2.0918,-2.1101,-1.9916,0.0,-2.1145,-2.1016,0.0,-2.2407,-2.252,0.0,0.0,-2.2487,-2.4856,-2.6125,-2.4384,-2.7474,-2.9756,-2.9247,-3.2136,-3.3728,-3.266,-3.229,-3.2927,-3.4739,-3.2895,-3.183,-3.2001,-3.0589,-2.9003,-2.7505,-2.6298,-2.574,-2.5782,-2.5428,-2.5579,-2.6243,-2.6185,-2.6397,-2.7031,-2.7337,-2.7254,-2.6953,-2.6953,-2.6702,-2.6386,-2.6386,-2.6386,-2.6386,-2.6386,-2.6386,-2.6386,-2.6386,-2.6386,-2.6386,-2.0356,-2.0943,-2.1493,-2.187,-2.2272,-2.262,-2.2876,-2.3345,-2.3565,-2.3279,-2.4005,-2.4409,-2.4097,-2.3694,-2.3455,-2.3455,-2.2876,-2.2053,-2.0943,-2.0869,-2.0301,-1.9017,-1.9017,-1.8926,-1.8632,-1.8687,-1.8632,-1.8467,-1.7807,-1.7623,-1.7844,-1.7202,-1.7532,-1.8649,-1.9366,-2.0044,-2.0589,-2.0191,-2.0503,-2.1211,-2.0525,-1.985,-1.9393,-2.1078,-2.1994,-2.2316,-2.2375,-2.3263,-2.4547,-2.5305,-2.4896,-2.4279,-2.5136,-2.4977,-2.4262,-2.3198,-2.3272,-2.3334,-2.1805,-2.198,-2.2346,-2.1163,-2.1266,-2.1321,-1.9948,-1.9632,-1.9822,-2.0587,0.0,0.0,0.0,0.0,0.0,0.0,-2.3015,-2.3772,-2.2518,-2.5343,-2.7656,-2.8104,-3.0408,-3.1894,-3.1753,-3.1809,-3.2019,-3.2524,-3.1011,-2.9932,-2.9796,-2.9162,-2.8084,-2.6575,-2.6312,-2.6166,-2.6166,-2.6129,-2.6372,-2.6649,-2.6689,-2.6906,-2.7186,-2.7493,-2.7476,-2.7333,-2.7333,-2.7254,-2.7097,-2.686,-2.6781,-2.6702,-2.6465,-2.6386,-2.6386,-2.6386,-2.6386,-2.6465,-1.9751,-2.0484,-2.12,-2.1467,-2.1943,-2.2382,-2.2693,-2.318,-2.3474,-2.3334,-2.4005,-2.4335,-2.4079,-2.3877,-2.3773,-2.3883,-2.3675,-2.3107,-2.2171,-2.1805,-2.12,-2.0246,-1.9622,-1.9237,-1.907,-1.8852,-1.8705,-1.8705,-1.8009,-1.788,-1.8228,-1.7568,-1.8027,-1.9417,-2.0095,-2.1138,-2.2346,-2.1614,-2.1603,-2.1988,-2.1658,-2.0852,-2.0001,-2.0941,-2.2059,-2.3053,-2.2555,-2.3177,-2.4291,-2.4653,-2.3917,-2.322,-2.5326,-2.4787,-2.3345,-2.3432,-2.348,-2.3265,-2.1938,-2.255,-2.3187,-2.1676,-2.1467,-2.1332,-1.9817,-1.9155,-1.9153,-2.0093,-1.9912,0.0,0.0,0.0,-2.0348,-2.0533,0.0,-2.1678,-2.0587,-2.2926,-2.5105,-2.6099,-2.7843,-2.9287,-3.0121,-3.0028,-3.0038,-3.0531,-2.9091,-2.8228,-2.8295,-2.8243,-2.7535,-2.6019,-2.6326,-2.6589,-2.6675,-2.6831,-2.7032,-2.728,-2.7358,-2.7459,-2.7699,-2.7848,-2.7869,-2.7805,-2.7805,-2.7712,-2.7555,-2.7254,-2.7175,-2.7097,-2.686,-2.6702,-2.6702,-2.6623,-2.6623,-2.6781,-1.9329,-2.0283,-2.1108,-2.1126,-2.1786,-2.2291,-2.2337,-2.1998,-2.2053,-2.2821,-2.3279,-2.3974,-2.5179,-2.569,-2.6076,-2.6444,-2.6463,-2.5949,-2.4739,-2.3547,-2.3217,-2.3999,-2.0979,-2.0026,-2.154,-1.9714,-1.8705,-1.8705,-1.8264,-1.8302,-1.8687,-1.8284,-1.8081,-1.8246,-2.0589,-2.1449,-2.1273,-2.2748,-2.4354,-2.5727,-2.4551,-2.36,-2.2752,-2.1908,-2.1704,-2.1992,-2.2979,-2.249,-2.1541,-2.3133,-2.3888,-2.4025,-2.3183,-2.3659,-2.4158,-2.2107,-2.3239,-2.477,-2.32,-2.3997,-2.4721,-2.2272,-2.1687,-2.1137,-1.8945,-1.9184,-1.9617,-1.8856,-1.9814,-2.0671,-2.02,-2.021,-2.0048,-1.9213,-1.9878,0.0,0.0,-2.0087,-2.1862,-2.2418,-2.4464,-2.6306,-2.7597,-2.6042,-2.6248,-2.9418,-2.7508,-2.6922,-2.8591,-2.8691,-2.797,-2.6399,-2.6765,-2.7144,-2.7452,-2.7095,-2.7413,-2.8326,-2.7956,-2.8115,-2.8871,-2.8886,-2.8666,-2.8289,-2.8289,-2.804,-2.7633,-2.7555,-2.7555,-2.7555,-2.7555,-2.7555,-2.7476,-2.7097,-2.7254,-2.7555,-1.9714,-2.0264,-2.0631,-2.0332,-2.0979,-2.1695,-2.2245,-2.24,-2.2785,-2.3639,-2.4115,-2.4721,-2.5708,-2.569,-2.5892,-2.6536,-2.6388,-2.5766,-2.4849,-2.3877,-2.3425,-2.373,-2.1401,-2.0484,-2.131,-1.9861,-1.8981,-1.8705,-1.832,-1.832,-1.8705,-1.8283,-1.8228,-1.8595,-2.0484,-2.1841,-2.2712,-2.3261,-2.417,-2.5003,-2.2656,-2.1957,-2.2143,-2.1547,-2.1383,-2.145,-2.178,-2.2314,-2.2876,-2.332,-2.3382,-2.335,-2.3764,-2.3231,-2.2503,-2.2592,-2.2981,-2.3263,-2.2727,-2.3764,-2.435,-2.1872,-2.1494,-2.1197,-1.8905,-1.8383,-1.8581,-1.9255,-1.9542,-1.9824,-2.0507,-1.9991,-1.9411,-1.9308,-1.8789,-1.8285,0.0,-1.855,-1.9264,-1.9926,-2.3,-2.4879,-2.4433,-2.4835,-2.5565,-2.6561,-2.5885,-2.6087,-2.7533,-2.755,-2.7347,-2.6838,-2.7129,-2.7364,-2.7481,-2.774,-2.806,-2.837,-2.8482,-2.8628,-2.8886,-2.8886,-2.8822,-2.8666,-2.8666,-2.8588,-2.8417,-2.8197,-2.804,-2.804,-2.7712,-2.7805,-2.804,-2.7569,-2.7476,-2.7633,-2.0131,-2.0296,-2.0484,-2.0374,-2.1016,-2.1713,-2.2199,-2.2748,-2.3352,-2.411,-2.4569,-2.5139,-2.5929,-2.5782,-2.5966,-2.6719,-2.6609,-2.6113,-2.5304,-2.4702,-2.4409,-2.4409,-2.274,-2.1889,-2.2138,-2.0956,-1.9924,-1.9076,-1.8855,-1.8777,-1.8926,-1.8669,-1.8687,-1.8981,-2.0154,-2.1841,-2.3767,-2.3767,-2.4647,-2.5916,-2.3907,-2.2912,-2.2537,-2.231,-2.1979,-2.1666,-2.207,-2.2559,-2.3092,-2.2975,-2.284,-2.2871,-2.3532,-2.2971,-2.2191,-2.2558,-2.2797,-2.2974,-2.2672,-2.3654,-2.4186,-2.2025,-2.1752,-2.1431,-1.925,-1.861,-1.8775,-1.9639,-1.9475,-1.9602,-2.1227,-2.0225,-1.9205,-1.9598,-1.8572,-1.7717,0.0,-1.794,-1.8277,-1.8584,-2.0977,0.0,-2.2266,-2.2839,-2.3733,-2.5025,-2.4627,-2.514,-2.6896,-2.6983,-2.6983,-2.6983,-2.7305,-2.7539,-2.7642,-2.8169,-2.8491,-2.8608,-2.8798,-2.8886,-2.8886,-2.8886,-2.8886,-2.8886,-2.8886,-2.8886,-2.8886,-2.8588,-2.851,-2.851,-2.8182,-2.8275,-2.8431,-2.804,-2.7947,-2.8104,-2.0613,-2.0534,-2.0723,-2.1108,-2.175,-2.2217,-2.2327,-2.2968,-2.3657,-2.4202,-2.4606,-2.5124,-2.5984,-2.6076,-2.6388,-2.7141,-2.7196,-2.694,-2.6149,-2.6058,-2.6076,-2.6131,-2.4937,-2.4248,-2.4142,-2.2934,-2.1542,-1.9945,-1.9869,-1.9655,-1.9329,-1.9311,-1.9292,-1.9329,-1.9692,-2.1493,-2.4165,-2.4121,-2.5662,-2.8079,-2.7719,-2.6065,-2.3858,-2.3889,-2.333,-2.2569,-2.3452,-2.3121,-2.22,-2.202,-2.2238,-2.2608,-2.2439,-2.286,-2.3148,-2.191,-2.2632,-2.3717,-2.2981,-2.3619,-2.4192,-2.2644,-2.2249,-2.1744,-1.9855,-1.9886,-2.0248,-2.0076,-1.9734,-2.0115,-2.2223,-2.0857,-1.955,-2.0022,-1.9125,-1.8116,-1.7516,-1.8218,-1.8716,-1.8438,0.0,0.0,0.0,0.0,-2.0998,-2.4753,-2.3866,-2.432,-2.6852,-2.6939,-2.6939,-2.7013,-2.7349,-2.7671,-2.7888,-2.83,-2.8608,-2.8886,-2.8886,-2.8886,-2.8886,-2.8886,-2.8886,-2.8886,-2.8886,-2.8886,-2.8886,-2.8886,-2.8886,-2.8886,-2.8886,-2.8886,-2.8808,-2.8431,-2.8588,-2.8886,-2.0979,-2.1438,-2.1851,-2.1943,-2.1394,-2.1493,-2.295,-2.284,-2.3217,-2.49,-2.5212,-2.569,-2.6793,-2.6866,-2.7123,-2.7563,-2.7675,-2.7583,-2.7362,-2.6756,-2.683,-2.7728,-2.6023,-2.5386,-2.5901,-2.3535,-2.208,-2.167,-2.0189,-1.9567,-1.9729,-1.9439,-1.9292,-1.9329,-1.9692,-2.1284,-2.3633,-2.3195,-2.3502,-2.427,-2.3989,-2.3139,-2.2038,-2.2707,-2.2955,-2.2835,-2.1594,-2.1729,-2.234,-2.1332,-2.1897,-2.2759,-2.1791,-2.1587,-2.166,-2.1343,-2.1686,-2.2148,-2.1984,-2.2452,-2.28,-2.1985,-2.1791,-2.1644,-2.1103,-2.118,-2.1441,-2.1812,-2.2018,-2.202,-2.1656,-2.1102,-2.0369,-1.933,-1.8877,-1.8686,-1.876,-1.8994,-1.9301,-1.9696,-2.0237,-2.0369,-1.9828,-2.1203,-2.2535,-2.353,-2.4203,-2.5271,-2.6896,-2.6296,-2.6354,-2.732,-2.7891,-2.8227,-2.8238,-2.8622,-2.8812,-2.8886,-2.8886,-2.8886,-2.8886,-2.8886,-2.8886,-2.8886,-2.8886,-2.8886,-2.8886,-2.8886,-2.8886,-2.8886,-2.8886,-2.8886,-2.8886,-2.8822,-2.8808,-2.8886,-2.1676,-2.2254,-2.2803,-2.2803,-2.2254,-2.2236,-2.3602,-2.3584,-2.3877,-2.5197,-2.5693,-2.6169,-2.6848,-2.7233,-2.76,-2.8003,-2.7932,-2.7675,-2.727,-2.716,-2.6936,-2.6575,-2.6109,-2.5517,-2.4852,-2.3451,-2.208,-2.0833,-1.9732,-1.8964,-1.8486,-1.8682,-1.8536,-1.8215,-1.8941,-2.0184,-2.1882,-2.2845,-2.3609,-2.4067,-2.3902,-2.3167,0.0,-2.2649,-2.2579,-2.212,-2.0978,-2.1561,-2.2613,-2.1292,-2.1464,-2.209,-2.1348,-2.1203,-2.1323,-2.1456,-2.1697,-2.1964,-2.215,-2.2365,-2.2539,-2.2271,-2.2231,-2.2337,-2.2235,-2.2292,-2.2702,-2.3534,-2.3384,-2.3237,-2.3662,-2.2359,-2.0676,-1.9052,-1.8672,-1.8642,-1.8833,-1.9096,-1.936,-1.9579,-2.0296,-2.0384,-1.9426,-2.1598,0.0,-2.3106,-2.4057,-2.514,-2.6296,-2.6105,-2.6486,-2.7642,-2.8037,-2.8209,-2.8432,-2.8608,-2.8754,-2.8886,-2.8886,-2.8886,-2.8886,-2.8886,-2.8886,-2.8886,-2.8886,-2.8886,-2.8886,-2.8886,-2.8886,-2.8886,-2.8886,-2.8886,-2.8886,-2.8886,-2.8886,-2.8886,-2.263,-2.3133,-2.3645,-2.359,-2.3663,-2.3914,-2.4385,-2.4716,-2.5014,-2.5525,-2.6243,-2.6756,-2.6811,-2.7398,-2.793,-2.8352,-2.8003,-2.7471,-2.6793,-2.738,-2.6765,-2.4508,-2.5652,-2.5245,-2.2883,-2.2994,-2.1785,-1.9263,-1.9036,-1.82,-1.6739,-1.7463,-1.7365,-1.6692,-1.778,-1.8809,-1.9875,-2.2775,-2.4461,-2.5195,-2.5108,-2.4287,-2.3197,-2.2943,-2.209,-2.1109,-2.1149,-2.188,-2.264,-2.1475,-2.1136,-2.1162,-2.1162,-2.1376,-2.1722,-2.1911,-2.2164,-2.2418,-2.2672,-2.2847,-2.2819,-2.2899,-2.3222,-2.3402,-2.3359,-2.3616,-2.4099,-2.512,-2.4408,-2.4262,-2.6354,-2.3808,-2.0896,-1.936,-1.8862,-1.876,-1.8964,-1.9374,-1.955,-1.9272,-2.012,0.0,-1.9433,0.0,0.0,0.0,-2.3384,-2.4247,-2.5461,-2.5944,-2.6749,-2.7903,-2.7976,-2.8136,-2.8491,-2.8491,-2.8637,-2.8886,-2.8886,-2.8886,-2.8886,-2.8886,-2.8886,-2.8886,-2.8886,-2.8886,-2.8886,-2.8886,-2.8886,-2.8886,-2.8886,-2.8886,-2.8886,-2.8886,-2.8886,-2.89,-2.3834,-2.4225,-2.4464,-2.4165,-2.4661,-2.5231,-2.5635,-2.5488,-2.5527,-2.6279,-2.7068,-2.7691,-2.804,-2.7893,-2.793,-2.8352,-2.8003,-2.7767,-2.762,-2.7748,-2.72,-2.5772,-2.5955,-2.547,-2.4291,-2.2991,-2.1923,-2.1045,-1.9146,-1.7755,-1.6846,-1.6677,-1.6508,-1.6381,-1.7169,-1.8536,-2.0391,-2.2127,-2.2933,-2.2925,-2.2711,-2.2336,-2.1896,-2.1597,-2.1299,-2.1149,-2.139,-2.1501,-2.1411,-2.1172,-2.1269,-2.1534,-2.1534,-2.167,-2.1924,-2.1977,-2.2017,-2.2071,-2.2124,-2.2311,-2.2619,-2.3126,-2.3671,-2.4309,-2.5154,-2.5582,-2.5999,-2.6575,-2.6471,-2.612,-2.5505,-2.3735,-2.2023,-2.0955,-2.0735,-2.1159,-2.2476,-2.2096,-2.1657,-2.1598,-2.2667,-2.2432,-1.9969,-2.1057,0.0,0.0,0.0,-2.2828,-2.5388,-2.4876,-2.5681,-2.8195,-2.8593,-2.8754,-2.8812,-2.8812,-2.8842,-2.8886,-2.8886,-2.8886,-2.8886,-2.8886,-2.8886,-2.8886,-2.8886,-2.8886,-2.8886,-2.8886,-2.8886,-2.8886,-2.8886,-2.8886,-2.8886,-2.8886,-2.8886,-2.893,-2.4753,-2.4992,-2.5084,-2.4863,-2.5506,-2.6059,-2.6261,-2.6517,-2.6738,-2.6866,-2.7233,-2.7545,-2.7746,-2.7765,-2.7914,-2.804,-2.7691,-2.7509,-2.7509,-2.6691,-2.5735,-2.4705,-2.4188,-2.3513,-2.2608,-2.1929,-2.0944,-1.9462,-1.8325,-1.6878,-1.5171,-1.5468,-1.5353,-1.4984,-1.6359,-1.7925,-1.956,-2.1117,-2.209,-2.248,-2.2283,-2.2124,-2.1964,-2.167,-2.1563,-2.159,-2.1724,-2.1683,-2.1563,-2.1563,-2.1657,-2.1842,-2.1842,-2.1871,-2.2017,-2.2164,-2.2205,-2.2245,-2.2392,-2.2539,-2.2752,-2.322,-2.3809,-2.4561,-2.5377,-2.5979,-2.6546,-2.691,-2.6983,-2.6588,-2.5369,-2.3866,-2.2725,-2.2271,-2.1642,-2.1715,-2.3149,-2.2959,-2.2667,-2.2667,-2.3354,-2.2959,-2.0735,-2.1379,0.0,0.0,0.0,-2.2901,-2.5637,-2.5022,-2.5842,-2.8593,-2.8666,-2.8725,-2.8886,-2.8739,-2.8739,-2.8886,-2.8886,-2.8886,-2.8886,-2.8886,-2.8886,-2.8886,-2.8886,-2.8886,-2.8886,-2.8886,-2.8886,-2.8886,-2.8886,-2.8886,-2.8915,-2.9076,-2.9134,-2.9164,-2.5488,-2.5617,-2.5653,-2.5561,-2.6096,-2.6609,-2.6701,-2.7289,-2.762,-2.7325,-2.7362,-2.7362,-2.7362,-2.7508,-2.7693,-2.7693,-2.7046,-2.6698,-2.6698,-2.5284,-2.3947,-2.297,-2.2259,-2.1552,-2.073,-2.0962,-2.0134,-1.8143,-1.7769,-1.6393,-1.4095,-1.4474,-1.4447,-1.4226,-1.5952,-1.7551,-1.9152,-2.0489,-2.166,-2.2532,-2.2469,-2.2378,-2.2298,-2.2071,-2.1991,-2.1991,-2.2058,-2.2084,-2.2098,-2.2231,-2.2191,-2.2084,-2.2151,-2.2218,-2.2311,-2.2552,-2.2659,-2.2739,-2.2913,-2.3075,-2.3265,-2.3574,-2.417,-2.4844,-2.5438,-2.6068,-2.6619,-2.691,-2.6983,-2.6588,-2.5369,-2.4437,-2.3779,-2.3296,-2.255,-2.2403,-2.3471,-2.3384,-2.3296,-2.3501,-2.3384,-2.2886,-2.1818,-2.1686,-2.1686,0.0,0.0,-2.3179,-2.5491,-2.5257,-2.622,-2.852,-2.8359,-2.8344,-2.8593,-2.8549,-2.8651,-2.8886,-2.8886,-2.8886,-2.8886,-2.8886,-2.8886,-2.8886,-2.8886,-2.8886,-2.8886,-2.8886,-2.8886,-2.8886,-2.8886,-2.893,-2.9017,-2.9281,-2.9427,-2.9486,-2.5947,-2.626,-2.6353,-2.6021,-2.6279,-2.6719,-2.7068,-2.7178,-2.7343,-2.773,-2.7767,-2.7767,-2.7767,-2.7416,-2.7289,-2.7289,-2.5907,-2.4996,-2.4996,-2.3848,-2.2652,-2.1447,-2.1525,-2.1339,-2.073,-2.0962,-2.0735,-1.9987,-1.837,-1.6914,-1.5545,-1.4311,-1.4539,-1.6046,-1.65,-1.8117,-2.0557,-2.0958,-2.1628,-2.2432,-2.2378,-2.2258,-2.2017,-2.1991,-2.1991,-2.2017,-2.2285,-2.2378,-2.2458,-2.302,-2.2832,-2.2418,-2.2699,-2.2979,-2.3207,-2.3233,-2.3434,-2.3594,-2.3354,-2.3671,-2.4225,-2.4597,-2.5282,-2.5898,-2.6212,-2.6663,-2.691,-2.6983,-2.6983,-2.6588,-2.5369,-2.5915,-2.5959,-2.3881,-2.4203,-2.4832,-2.5242,-2.4291,-2.3881,-2.4774,-2.3354,-2.2593,-2.331,-2.132,-2.0982,0.0,-2.2637,-2.2798,-2.4188,-2.4774,-2.5912,-2.7554,-2.7583,-2.7583,-2.7613,-2.8432,-2.8856,-2.8886,-2.8886,-2.8886,-2.8886,-2.8886,-2.8886,-2.8886,-2.8886,-2.8886,-2.8886,-2.8886,-2.8886,-2.8886,-2.8886,-2.9076,-2.9339,-2.9369,-2.9559,-2.9866,-2.6701,-2.648,-2.637,-2.6628,-2.6062,-2.5637,-2.6081,-2.5629,-2.5662,-2.6566,-2.7347,-2.7461,-2.6699,-2.6461,-2.5983,-2.5003,-2.4341,-2.3975,-2.3975,-2.2835,-2.2094,-2.2023,-2.1389,-2.1142,-2.1253,-2.1323,-2.1002,-2.0167,-1.8824,-1.7435,-1.6086,-1.5498,-1.5979,-1.7382,-1.8571,-1.9679,-2.0748,-2.1737,-2.2365,-2.2686,-2.2686,-2.2619,-2.2512,-2.2512,-2.2632,-2.2806,-2.2926,-2.3073,-2.3273,-2.3514,-2.3313,-2.302,-2.3313,-2.3487,-2.3594,-2.3594,-2.3674,-2.3741,-2.3621,-2.3944,-2.4378,-2.4751,-2.541,-2.6085,-2.6328,-2.6692,-2.6983,-2.6983,-2.6983,-2.6837,-2.631,-2.6003,-2.5783,-2.5652,-2.5476,-2.5666,-2.6574,-2.6413,-2.6354,-2.6749,-2.6105,-2.5491,-2.5096,-2.3413,-2.2535,-2.2974,-2.1408,-2.1511,-2.3954,-2.4335,-2.5037,-2.6266,-2.7627,-2.8052,-2.7481,-2.8417,-2.8886,-2.8886,-2.8886,-2.8886,-2.8886,-2.8886,-2.8886,-2.8886,-2.8886,-2.8886,-2.8886,-2.8886,-2.8886,-2.8915,-2.9105,-2.9266,-2.9427,-2.9807,-3.0123,-3.0203,-2.6659,-2.6207,-2.5882,-2.6102,-2.5177,-2.449,-2.4916,-2.4373,-2.4301,-2.5236,-2.6209,-2.6533,-2.5891,-2.5816,-2.5193,-2.3657,-2.3271,-2.3111,-2.3003,-2.1935,-2.1498,-2.1793,-2.1108,-2.0909,-2.1416,-2.1655,-2.1416,-2.0869,-1.9706,-1.8597,-1.7555,-1.7128,-1.7609,-1.8878,-2.012,-2.0922,-2.1454,-2.2485,-2.2928,-2.2928,-2.2928,-2.2928,-2.2928,-2.2928,-2.306,-2.3327,-2.3327,-2.3514,-2.3781,-2.3875,-2.3754,-2.3621,-2.3834,-2.3901,-2.3973,-2.4031,-2.417,-2.4224,-2.4273,-2.4586,-2.4983,-2.5205,-2.5767,-2.6344,-2.6561,-2.6765,-2.6983,-2.6983,-2.6983,-2.6983,-2.6983,-2.6325,-2.5974,-2.6603,-2.6442,-2.6457,-2.71,-2.7378,-2.7452,-2.7188,-2.6661,-2.6193,-2.6032,-2.4423,-2.3486,-2.3749,-2.1862,-2.1759,-2.4232,-2.4364,-2.4905,-2.6061,-2.7642,-2.8154,-2.7481,-2.8417,-2.8886,-2.8886,-2.8886,-2.8886,-2.8886,-2.8886,-2.8886,-2.8886,-2.8886,-2.8886,-2.8886,-2.8886,-2.8944,-2.9061,-2.9281,-2.95,-2.972,-3.0269,-3.0407,-3.0525,-2.5665,-2.5439,-2.5026,-2.3827,-2.354,-2.3536,-2.3943,-2.3873,-2.383,-2.383,-2.4174,-2.479,-2.5676,-2.5816,-2.5236,-2.3932,-2.3007,-2.2401,-2.202,-2.1216,-2.0535,-2.0254,-2.0521,-2.0815,-2.1109,-2.1683,-2.2111,-2.2392,-2.1216,-2.0641,-2.0588,-1.9145,-1.9239,-2.0641,-2.0668,-2.1483,-2.2832,-2.2928,-2.2928,-2.2928,-2.2928,-2.2928,-2.2928,-2.2928,-2.306,-2.3327,-2.3327,-2.3514,-2.3808,-2.4102,-2.4195,-2.4195,-2.4195,-2.4195,-2.4268,-2.4688,-2.498,-2.5231,-2.5349,-2.5852,-2.6385,-2.6385,-2.6692,-2.6983,-2.6983,-2.6983,-2.6983,-2.6983,-2.6983,-2.6983,-2.6983,-2.7247,-2.713,-2.6179,-2.7086,-2.7523,-2.6647,-2.6515,-2.6281,-2.5637,-2.3603,-2.3237,-2.5769,-2.3413,-2.3047,-2.6222,-2.4949,-2.432,-2.5075,-2.5119,-2.5783,-2.7408,-2.7481,-2.7495,-2.7481,-2.8417,-2.8886,-2.8886,-2.8886,-2.8886,-2.8886,-2.8886,-2.8886,-2.8886,-2.8886,-2.8886,-2.8886,-2.8886,-2.9076,-2.9369,-2.9383,-2.9764,-3.0416,-3.0431,-3.0554,-3.0817,-2.4228,-2.4114,-2.4023,-2.3917,-2.3086,-2.2468,-2.2632,-2.2074,-2.2037,-2.2856,-2.3261,-2.361,-2.3932,-2.3978,-2.3353,-2.1807,-2.1402,-2.1245,-2.1135,-2.0862,-2.0722,-2.0828,-2.0922,-2.1109,-2.1403,-2.179,-2.2124,-2.2418,-2.1443,-2.0975,-2.0962,-2.0494,-2.0949,-2.2231,-2.2231,-2.2499,-2.2928,-2.2928,-2.2928,-2.2954,-2.31,-2.318,-2.3207,-2.3407,-2.3661,-2.3928,-2.3928,-2.4115,-2.4382,-2.4462,-2.4502,-2.4502,-2.4796,-2.4869,-2.4943,-2.5016,-2.529,-2.5639,-2.5688,-2.6022,-2.6399,-2.6399,-2.6692,-2.6983,-2.6983,-2.6983,-2.6983,-2.6983,-2.6983,-2.7056,-2.7276,-2.7408,-2.7452,-2.7349,-2.7861,-2.8169,-2.7861,-2.8008,-2.8052,-2.7847,-2.7188,-2.7071,-2.7891,-2.6149,-2.5125,-2.5491,-2.3823,-2.3354,-2.4723,-2.5564,-2.6076,-2.6149,-2.7642,-2.8125,-2.7481,-2.8417,-2.8886,-2.8886,-2.8886,-2.8886,-2.8886,-2.8886,-2.8886,-2.8886,-2.8886,-2.8886,-2.89,-2.9134,-2.9281,-2.9427,-2.9866,-3.0255,-3.046,-3.0598,-3.0744,-3.0817,-2.3021,-2.2956,-2.2831,-2.2511,-2.19,-2.153,-2.153,-2.1136,-2.1181,-2.2089,-2.2409,-2.2572,-2.2686,-2.26,-2.2083,-2.098,-2.0949,-2.0962,-2.0842,-2.0949,-2.1082,-2.1269,-2.1269,-2.1416,-2.171,-2.2004,-2.2231,-2.2418,-2.1977,-2.1764,-2.1764,-2.1764,-2.2151,-2.2928,-2.2928,-2.2928,-2.2941,-2.2993,-2.3033,-2.306,-2.3367,-2.3487,-2.3514,-2.3701,-2.3955,-2.4209,-2.4209,-2.4396,-2.4636,-2.4636,-2.4636,-2.4636,-2.5079,-2.5299,-2.5446,-2.5593,-2.5814,-2.6093,-2.6239,-2.6399,-2.6619,-2.6619,-2.6838,-2.6983,-2.6983,-2.6983,-2.7027,-2.7144,-2.7174,-2.7276,-2.7598,-2.7759,-2.7905,-2.802,-2.8403,-2.8608,-2.8608,-2.8769,-2.8666,-2.8066,-2.7993,-2.7993,-2.7993,-2.7086,-2.65,-2.65,-2.5374,-2.514,-2.6135,-2.593,-2.6091,-2.6764,-2.8154,-2.8608,-2.8008,-2.8593,-2.8886,-2.8886,-2.8886,-2.8886,-2.8886,-2.8886,-2.8886,-2.8886,-2.8886,-2.8886,-2.8915,-2.9237,-2.9442,-2.9617,-3.0225,-3.0422,-3.0554,-3.0744,-3.0817,-3.0817,-2.1846,-2.1876,-2.1606,-2.0104,-2.0321,-2.0708,-2.0708,-2.0935,-2.1203,-2.1547,-2.1601,-2.166,-2.1997,-2.1778,-2.1425,-2.1136,-2.1376,-2.1416,-2.1162,-2.1403,-2.1628,-2.1641,-2.1641,-2.171,-2.1977,-2.2271,-2.2432,-2.2445,-2.2726,-2.2928,-2.2928,-2.2928,-2.2928,-2.2928,-2.2954,-2.2968,-2.2913,-2.3233,-2.3354,-2.338,-2.3688,-2.3794,-2.3808,-2.3821,-2.3995,-2.4235,-2.4235,-2.4409,-2.4636,-2.4636,-2.4636,-2.471,-2.5079,-2.552,-2.5946,-2.6312,-2.6385,-2.6546,-2.691,-2.6983,-2.6983,-2.6983,-2.6983,-2.6998,-2.7013,-2.7027,-2.7115,-2.7437,-2.751,-2.7613,-2.7844,-2.8151,-2.8447,-2.8461,-2.871,-2.8886,-2.8886,-2.8886,-2.833,-2.6852,-2.6676,-2.6676,-2.6676,-2.6676,-2.7247,-2.8622,-2.8739,-2.8754,-2.8725,-2.6193,-2.6018,-2.8798,-2.8886,-2.8886,-2.8886,-2.8886,-2.8886,-2.8886,-2.8886,-2.8886,-2.8886,-2.8886,-2.8886,-2.8886,-2.8886,-2.89,-2.8944,-2.9281,-2.9603,-3.0005,-3.0343,-3.0568,-3.0817,-3.0817,-3.0817,-3.0817,-2.0089,-2.0342,-2.0563,-2.0194,-2.0615,-2.1002,-2.1002,-2.1069,-2.1136,-2.1203,-2.1212,-2.1262,-2.133,-2.1276,-2.1266,-2.1494,-2.1309,-2.1283,-2.1443,-2.1574,-2.1722,-2.1871,-2.1884,-2.1924,-2.1991,-2.2271,-2.2525,-2.2752,-2.2832,-2.2928,-2.2928,-2.2928,-2.2928,-2.2941,-2.3113,-2.322,-2.3233,-2.3541,-2.3661,-2.3688,-2.3981,-2.4102,-2.4128,-2.4342,-2.4476,-2.4529,-2.4529,-2.4583,-2.4636,-2.4636,-2.4784,-2.5152,-2.5506,-2.5946,-2.6239,-2.6399,-2.6619,-2.691,-2.6983,-2.6983,-2.6983,-2.6983,-2.6983,-2.7056,-2.7305,-2.7364,-2.7452,-2.7773,-2.7847,-2.7934,-2.818,-2.8388,-2.8505,-2.8739,-2.8842,-2.8886,-2.8886,-2.8886,-2.8754,-2.8373,-2.833,-2.833,-2.833,-2.833,-2.7978,-2.713,-2.7305,-2.7335,-2.7086,-2.6661,-2.7174,-2.8842,-2.8886,-2.8886,-2.8886,-2.8886,-2.8886,-2.8886,-2.8886,-2.8886,-2.8886,-2.8886,-2.8886,-2.8886,-2.8886,-2.9032,-2.9281,-2.9617,-2.9939,-3.0343,-3.0583,-3.0759,-3.0817,-3.0817,-3.0817,-3.0817,-1.9573,-2.004,-2.0441,-2.0441,-2.0922,-2.1269,-2.1136,-2.1109,-2.1203,-2.147,-2.1518,-2.1619,-2.1754,-2.1767,-2.1781,-2.1808,-2.1531,-2.1443,-2.1737,-2.175,-2.1884,-2.2164,-2.2178,-2.2245,-2.2378,-2.2539,-2.2699,-2.2928,-2.2928,-2.2939,-2.3073,-2.3073,-2.3153,-2.3356,-2.346,-2.3527,-2.3554,-2.3848,-2.3968,-2.3995,-2.4289,-2.4396,-2.4422,-2.4569,-2.4636,-2.4636,-2.4636,-2.4636,-2.4636,-2.4784,-2.5005,-2.5299,-2.5873,-2.6239,-2.6501,-2.6792,-2.6954,-2.6983,-2.6983,-2.6983,-2.7027,-2.7174,-2.7217,-2.7291,-2.7627,-2.77,-2.7788,-2.811,-2.8093,-2.8195,-2.8593,-2.8637,-2.8695,-2.8856,-2.8886,-2.8886,-2.8886,-2.8886,-2.8886,-2.8886,-2.8886,-2.8886,-2.8886,-2.8886,-2.8534,-2.7656,-2.7759,-2.7788,-2.7598,-2.7759,-2.8169,-2.8871,-2.8886,-2.8886,-2.8886,-2.8886,-2.8886,-2.8886,-2.8886,-2.8886,-2.8886,-2.8886,-2.8886,-2.89,-2.9047,-2.9208,-2.9412,-2.9895,-3.0269,-3.046,-3.07,-3.0817,-3.0817,-3.0817,-3.0817,-3.0817,-1.976,-2.0307,-2.0722,-2.0681,-2.1186,-2.1403,-2.1149,-2.1109,-2.1309,-2.1844,-2.1957,-2.211,-2.2411,-2.2438,-2.2356,-2.2151,-2.1878,-2.179,-2.2031,-2.2044,-2.2178,-2.2472,-2.2485,-2.2605,-2.2859,-2.2928,-2.2928,-2.2928,-2.2928,-2.302,-2.3327,-2.3327,-2.3487,-2.3768,-2.3821,-2.3834,-2.3848,-2.4142,-2.4262,-2.4289,-2.4529,-2.4636,-2.4636,-2.4636,-2.4636,-2.4636,-2.4636,-2.4636,-2.4636,-2.5005,-2.5152,-2.5387,-2.6149,-2.6457,-2.6675,-2.7377,-2.7349,-2.713,-2.713,-2.713,-2.7203,-2.7481,-2.7554,-2.7627,-2.7874,-2.7947,-2.8034,-2.8432,-2.8505,-2.8578,-2.8842,-2.8886,-2.8842,-2.8695,-2.8798,-2.8842,-2.8695,-2.8798,-2.8886,-2.8886,-2.8886,-2.8886,-2.8886,-2.8886,-2.8886,-2.8886,-2.8886,-2.8886,-2.8886,-2.8886,-2.8886,-2.8886,-2.8886,-2.8886,-2.8886,-2.8886,-2.8886,-2.8886,-2.8886,-2.8915,-2.8959,-2.8915,-2.8944,-2.9047,-2.9281,-2.9427,-2.9573,-3.0211,-3.046,-3.0451,-3.0715,-3.0817,-3.0817,-3.0817,-3.0817,-3.0817,-1.984,-2.0468,-2.0962,-2.0722,-2.0949,-2.1162,-2.1122,-2.1109,-2.1229,-2.1641,-2.1641,-2.18,-2.2016,-2.2057,-2.2137,-2.2338,-2.2285,-2.2298,-2.2352,-2.2352,-2.2485,-2.2779,-2.2792,-2.2887,-2.2928,-2.2928,-2.2928,-2.2928,-2.2928,-2.302,-2.3327,-2.3327,-2.3487,-2.3781,-2.4022,-2.4142,-2.4155,-2.4449,-2.4569,-2.4569,-2.4549,-2.4636,-2.4636,-2.4636,-2.4636,-2.4636,-2.4636,-2.4636,-2.4636,-2.4636,-2.5139,-2.5768,-2.6182,-2.68,-2.7392,-2.7713,-2.7771,-2.7728,-2.7728,-2.7728,-2.7742,-2.7786,-2.7876,-2.7888,-2.8286,-2.8282,-2.8447,-2.8754,-2.8812,-2.8827,-2.8886,-2.8886,-2.8622,-2.7832,-2.8373,-2.8608,-2.7803,-2.8388,-2.8886,-2.8886,-2.8886,-2.8886,-2.8886,-2.8886,-2.8886,-2.8886,-2.8886,-2.8886,-2.8886,-2.8886,-2.8886,-2.8886,-2.8886,-2.8886,-2.8886,-2.8886,-2.8886,-2.8886,-2.8886,-2.9032,-2.9295,-2.9017,-2.9193,-2.9705,-2.9471,-2.969,-3.0284,-3.0387,-3.051,-3.0759,-3.0803,-3.0817,-3.0817,-3.0817,-3.0817,-3.0817,-2.0508,-2.0828,-2.1069,-2.0935,-2.1149,-2.1296,-2.1136,-2.1109,-2.1269,-2.1724,-2.179,-2.1897,-2.2191,-2.2365,-2.2445,-2.2418,-2.2726,-2.2913,-2.2913,-2.2752,-2.2712,-2.2928,-2.2928,-2.2939,-2.3113,-2.3113,-2.3193,-2.3354,-2.3354,-2.35,-2.3794,-2.3794,-2.3955,-2.4249,-2.4382,-2.4436,-2.4449,-2.4583,-2.4636,-2.4636,-2.4636,-2.4636,-2.4636,-2.4636,-2.4636,-2.4636,-2.4636,-2.4636,-2.4636,-2.4857,-2.5409,-2.6154,-2.6517,-2.7136,-2.7788,-2.8049,-2.8005,-2.7874,-2.7874,-2.7874,-2.7917,-2.8093,-2.8136,-2.83,-2.8608,-2.8681,-2.8725,-2.8856,-2.8886,-2.8886,-2.8886,-2.8886,-2.8754,-2.8315,-2.8608,-2.8739,-2.83,-2.8622,-2.8886,-2.8886,-2.8886,-2.8886,-2.8886,-2.8886,-2.8886,-2.8886,-2.8886,-2.8886,-2.8886,-2.8886,-2.8886,-2.8886,-2.8886,-2.8886,-2.8886,-2.8886,-2.8886,-2.89,-2.9061,-2.9237,-2.9383,-2.9398,-2.9573,-2.9866,-2.9895,-3.0071,-3.0446,-3.0539,-3.07,-3.0817,-3.0817,-3.0817,-3.0817,-3.0817,-3.0817,-3.0749,-2.0975,-2.1122,-2.1189,-2.1122,-2.1296,-2.1376,-2.1149,-2.1162,-2.1403,-2.1911,-2.2111,-2.2298,-2.2592,-2.2899,-2.2979,-2.2752,-2.3166,-2.3434,-2.3434,-2.3207,-2.3142,-2.3142,-2.3142,-2.318,-2.342,-2.3434,-2.3541,-2.3768,-2.3768,-2.3915,-2.4209,-2.4209,-2.4356,-2.4636,-2.4636,-2.4636,-2.4636,-2.4636,-2.4636,-2.4636,-2.4636,-2.4636,-2.4636,-2.4636,-2.4636,-2.4636,-2.4636,-2.4676,-2.4743,-2.5039,-2.5676,-2.6313,-2.6833,-2.7409,-2.7973,-2.837,-2.8359,-2.8154,-2.8005,-2.8034,-2.8227,-2.8476,-2.8549,-2.8608,-2.8842,-2.8886,-2.8886,-2.8886,-2.8886,-2.8886,-2.8886,-2.8886,-2.8812,-2.8593,-2.8739,-2.8812,-2.8593,-2.8754,-2.8886,-2.8886,-2.8886,-2.8886,-2.8886,-2.8886,-2.8886,-2.8886,-2.8886,-2.8886,-2.8886,-2.8886,-2.8886,-2.8886,-2.8886,-2.8886,-2.8886,-2.8886,-2.893,-2.9003,-2.9251,-2.9456,-2.9603,-2.9778,-2.9939,-3.01,-3.0357,-3.0475,-3.0481,-3.0729,-3.0749,-3.0665,-3.0749,-3.0749,-3.0665,-3.0749,-3.0749,-3.0596,-2.0762,-2.1212,-2.1494,-2.1162,-2.1122,-2.1136,-2.1109,-2.1336,-2.1695,-2.1951,-2.2458,-2.2913,-2.322,-2.3527,-2.3688,-2.3674,-2.3714,-2.3741,-2.3741,-2.3714,-2.3701,-2.3701,-2.3701,-2.3714,-2.3741,-2.3741,-2.3754,-2.3768,-2.3768,-2.3915,-2.4209,-2.4209,-2.4356,-2.4636,-2.4636,-2.4636,-2.4636,-2.4636,-2.4636,-2.4636,-2.4636,-2.4636,-2.4636,-2.4636,-2.4636,-2.4636,-2.4636,-2.481,-2.505,-2.5125,-2.554,-2.6219,-2.6955,-2.7438,-2.7908,-2.8691,-2.8842,-2.8754,-2.8476,-2.8608,-2.8827,-2.8856,-2.8856,-2.8856,-2.8886,-2.8886,-2.8886,-2.8886,-2.8886,-2.8886,-2.8886,-2.8886,-2.8608,-2.773,-2.8315,-2.8578,-2.77,-2.833,-2.8886,-2.8886,-2.8886,-2.8886,-2.8886,-2.8886,-2.8886,-2.8886,-2.8886,-2.8886,-2.8886,-2.8886,-2.8886,-2.8886,-2.8886,-2.8886,-2.8886,-2.8886,-2.9047,-2.9339,-2.9369,-2.969,-3.0357,-3.0064,-3.0188,-3.0729,-3.0466,-3.051,-3.0788,-3.0817,-3.0582,-3.0263,-3.0665,-3.0582,-3.0263,-3.0665,-3.0582,-3.0306,-2.1306,-2.1256,-2.1243,-2.1122,-2.1109,-2.1176,-2.1363,-2.163,-2.1991,-2.2472,-2.2886,-2.326,-2.3567,-2.3701,-2.3768,-2.3768,-2.3941,-2.4035,-2.4035,-2.4209,-2.4142,-2.3781,-2.3768,-2.3848,-2.4035,-2.4035,-2.4128,-2.4302,-2.4302,-2.4369,-2.4476,-2.4476,-2.4529,-2.4636,-2.4636,-2.4636,-2.4636,-2.4636,-2.4636,-2.4636,-2.4636,-2.4636,-2.4636,-2.4636,-2.4756,-2.4917,-2.4917,-2.5104,-2.5344,-2.5344,-2.5851,-2.6507,-2.6989,-2.7622,-2.8195,-2.8778,-2.8886,-2.8871,-2.8754,-2.8798,-2.8886,-2.8886,-2.8886,-2.8886,-2.8886,-2.8886,-2.8886,-2.8886,-2.8886,-2.8886,-2.8886,-2.8886,-2.8769,-2.8417,-2.8651,-2.8769,-2.8403,-2.8666,-2.8886,-2.8886,-2.8886,-2.8886,-2.8886,-2.8886,-2.8886,-2.8886,-2.8886,-2.8886,-2.8886,-2.8886,-2.8886,-2.8886,-2.8886,-2.8886,-2.8886,-2.909,-2.9251,-2.9383,-2.9793,-3.0115,-3.0431,-3.0422,-3.0598,-3.0817,-3.07,-3.0549,-3.0415,-3.0415,-3.0165,-2.983,-3.0248,-3.0165,-2.9859,-3.0464,-3.0367,-2.9987,-2.1416,-2.1256,-2.1109,-2.1109,-2.1269,-2.1456,-2.1722,-2.2098,-2.2552,-2.2953,-2.3354,-2.3674,-2.3888,-2.3981,-2.4035,-2.4035,-2.4222,-2.4342,-2.4342,-2.4529,-2.4462,-2.4062,-2.4035,-2.4142,-2.4329,-2.4342,-2.4436,-2.4636,-2.4636,-2.4636,-2.4636,-2.4636,-2.4636,-2.4636,-2.4636,-2.4636,-2.4636,-2.4636,-2.4636,-2.4636,-2.4636,-2.469,-2.4783,-2.4783,-2.4957,-2.5224,-2.5224,-2.5398,-2.5651,-2.5805,-2.6239,-2.6795,-2.7339,-2.7947,-2.851,-2.8808,-2.8886,-2.8886,-2.8886,-2.8886,-2.8886,-2.8886,-2.8886,-2.8886,-2.8886,-2.8886,-2.8886,-2.8886,-2.8886,-2.8886,-2.8886,-2.8886,-2.8886,-2.8886,-2.8886,-2.8886,-2.8886,-2.8886,-2.8886,-2.8886,-2.8886,-2.8886,-2.8886,-2.8886,-2.8886,-2.8886,-2.8988,-2.909,-2.9193,-2.9193,-2.9193,-2.9193,-2.9193,-2.9193,-2.9193,-2.931,-2.9486,-2.969,-3.0211,-3.0407,-3.051,-3.0729,-3.0734,-3.0582,-3.0582,-3.0332,-2.9998,-2.9998,-2.9663,-2.9314,-2.983,-2.9719,-2.9495,-3.0128,-3.0184,-2.9882,-2.1109,-2.1109,-2.1109,-2.1122,-2.1603,-2.1991,-2.1991,-2.2752,-2.3327,-2.334,-2.3848,-2.4209,-2.4209,-2.4462,-2.4636,-2.4636,-2.4636,-2.4636,-2.4636,-2.4636,-2.4636,-2.4636,-2.4636,-2.4636,-2.4636,-2.4636,-2.4636,-2.4636,-2.4636,-2.4636,-2.4636,-2.4636,-2.4636,-2.4636,-2.4562,-2.4562,-2.4562,-2.4649,-2.4649,-2.4649,-2.4649,-2.4823,-2.5077,-2.5077,-2.5264,-2.5518,-2.5518,-2.5705,-2.6037,-2.6439,-2.6785,-2.7189,-2.8054,-2.8588,-2.8886,-2.8886,-2.8886,-2.8886,-2.8886,-2.8886,-2.8886,-2.8886,-2.8886,-2.8886,-2.8886,-2.8886,-2.8886,-2.8886,-2.8886,-2.8886,-2.8886,-2.8886,-2.8886,-2.8886,-2.8886,-2.8886,-2.8886,-2.8886,-2.8886,-2.8886,-2.89,-2.89,-2.89,-2.89,-2.89,-2.89,-2.9193,-2.9529,-2.9851,-2.9866,-2.9866,-2.9866,-2.9866,-2.9866,-2.9866,-2.9544,-2.9705,-3.0431,-3.0431,-3.0525,-3.0817,-3.0817,-3.0582,-3.0179,-3.0179,-2.9914,-2.9481,-2.9481,-2.923,-2.8824,-2.9328,-2.9424,-2.936,-2.9773,-2.9796,-2.9768,-2.1376,-2.1416,-2.1483,-2.1697,-2.2044,-2.2365,-2.2565,-2.3193,-2.3714,-2.3915,-2.4275,-2.4502,-2.4502,-2.4583,-2.4636,-2.4636,-2.4636,-2.4636,-2.4636,-2.4636,-2.4636,-2.4636,-2.4636,-2.4636,-2.4636,-2.4636,-2.4636,-2.4636,-2.4636,-2.4636,-2.4636,-2.4636,-2.4636,-2.4649,-2.485,-2.4943,-2.4957,-2.5157,-2.5251,-2.5251,-2.5251,-2.5304,-2.5384,-2.5384,-2.5571,-2.5825,-2.5825,-2.6012,-2.6266,-2.6423,-2.6477,-2.6702,-2.7189,-2.7883,-2.851,-2.851,-2.8666,-2.8886,-2.8886,-2.8886,-2.8886,-2.8886,-2.8886,-2.8886,-2.8886,-2.8886,-2.8886,-2.8886,-2.8886,-2.8886,-2.8886,-2.8886,-2.8886,-2.8886,-2.8886,-2.8886,-2.8886,-2.8886,-2.8886,-2.8886,-2.909,-2.9237,-2.9237,-2.9442,-2.9573,-2.9573,-2.9661,-2.9764,-2.9851,-2.9866,-2.9866,-2.9866,-2.9866,-2.9968,-3.0284,-3.0181,-3.024,-3.0431,-3.0568,-3.0563,-3.0415,-3.0415,-3.0165,-2.9747,-2.9747,-2.9411,-2.8992,-2.8992,-2.8862,-2.8726,-2.9138,-2.9244,-2.9185,-2.9822,-2.9872,-2.9568,-2.167,-2.1789,-2.1777,-2.1951,-2.2418,-2.2832,-2.302,-2.3647,-2.4168,-2.4356,-2.4529,-2.4636,-2.4636,-2.4636,-2.4636,-2.4636,-2.4636,-2.4636,-2.4636,-2.4636,-2.4636,-2.4636,-2.4636,-2.4636,-2.4636,-2.4636,-2.4636,-2.4636,-2.4636,-2.4636,-2.4562,-2.4756,-2.481,-2.4823,-2.5117,-2.5251,-2.5264,-2.5438,-2.5518,-2.5518,-2.5518,-2.5585,-2.5692,-2.5692,-2.5865,-2.6132,-2.6132,-2.6239,-2.6386,-2.6544,-2.686,-2.7175,-2.7425,-2.7961,-2.851,-2.851,-2.8744,-2.8886,-2.8886,-2.8886,-2.8886,-2.8886,-2.8886,-2.8886,-2.8886,-2.8886,-2.8886,-2.8886,-2.8886,-2.8886,-2.8886,-2.8886,-2.8886,-2.8886,-2.8886,-2.8886,-2.8886,-2.9003,-2.9076,-2.9076,-2.9369,-2.9573,-2.9573,-2.9749,-2.991,-3.0123,-3.0137,-3.0115,-3.0232,-3.0246,-3.0246,-3.0246,-3.0246,-3.0252,-3.0292,-3.0292,-3.0292,-3.0306,-3.0495,-3.0332,-2.9914,-2.9914,-2.9663,-2.9244,-2.9369,-2.9171,-2.8761,-2.8883,-2.8875,-2.8778,-2.9036,-2.9212,-2.9232,-2.967,-2.9818,-2.9673,-2.1964,-2.2031,-2.2031,-2.2058,-2.2792,-2.3367,-2.3367,-2.4088,-2.4636,-2.4636,-2.4636,-2.4636,-2.4636,-2.4636,-2.4636,-2.4636,-2.4636,-2.4636,-2.4636,-2.4636,-2.4636,-2.4636,-2.4636,-2.4636,-2.4636,-2.4636,-2.4636,-2.4636,-2.4636,-2.4649,-2.4676,-2.4957,-2.509,-2.513,-2.5424,-2.5558,-2.5558,-2.5585,-2.5585,-2.5585,-2.5585,-2.5758,-2.6077,-2.6077,-2.6159,-2.6386,-2.6386,-2.6386,-2.6465,-2.6874,-2.7583,-2.8211,-2.8211,-2.851,-2.8808,-2.8808,-2.8886,-2.8886,-2.8886,-2.8886,-2.8886,-2.8886,-2.8886,-2.8886,-2.8886,-2.8886,-2.8886,-2.8886,-2.8886,-2.8886,-2.8886,-2.8915,-2.893,-2.893,-2.8959,-2.8973,-2.8973,-2.9237,-2.9427,-2.9427,-2.9705,-2.991,-2.991,-2.9939,-3.0071,-3.0364,-3.0475,-3.0525,-3.0803,-3.0817,-3.0734,-3.0749,-3.0749,-3.0582,-3.0179,-3.0179,-3.0179,-3.0179,-3.0179,-2.9928,-2.9439,-2.9439,-2.9201,-2.8835,-2.9108,-2.9073,-2.8671,-2.8938,-2.9058,-2.9085,-2.9085,-2.9259,-2.9526,-2.9526,-2.9686,-2.9913,-2.2271,-2.2325,-2.2405,-2.2632,-2.3233,-2.3674,-2.3674,-2.4222,-2.4636,-2.4636,-2.4636,-2.4636,-2.4636,-2.4636,-2.4636,-2.4636,-2.4636,-2.4636,-2.4636,-2.4636,-2.4636,-2.4636,-2.4636,-2.4636,-2.4636,-2.4636,-2.4636,-2.4636,-2.4636,-2.4756,-2.4983,-2.505,-2.5197,-2.5438,-2.5732,-2.5865,-2.5879,-2.6106,-2.6199,-2.6199,-2.6199,-2.6239,-2.6293,-2.6293,-2.6333,-2.6386,-2.6386,-2.6386,-2.6465,-2.6874,-2.7333,-2.7712,-2.7712,-2.804,-2.8431,-2.8431,-2.8666,-2.8886,-2.8886,-2.8886,-2.8886,-2.8886,-2.8886,-2.8886,-2.8886,-2.8886,-2.8886,-2.8886,-2.8886,-2.8886,-2.8886,-2.909,-2.9266,-2.9266,-2.9486,-2.9647,-2.9647,-2.972,-2.9764,-2.9764,-3.0123,-3.0328,-3.0328,-3.0466,-3.0642,-3.0715,-3.0715,-3.0759,-3.0817,-3.0817,-3.0665,-3.0346,-3.0332,-3.0081,-2.9663,-2.9663,-2.9663,-2.9663,-2.9663,-2.9537,-2.935,-2.935,-2.9217,-2.8931,-2.8998,-2.9025,-2.8951,-2.9018,-2.9179,-2.9392,-2.9392,-2.9566,-2.982,-2.982,-2.986,-2.9953,-2.2565,-2.2632,-2.2726,-2.3033,-2.346,-2.3821,-2.3955,-2.4356,-2.4636,-2.4636,-2.4636,-2.4636,-2.4636,-2.4636,-2.4636,-2.4636,-2.4636,-2.4636,-2.4636,-2.4636,-2.4636,-2.4636,-2.4636,-2.4636,-2.4636,-2.4636,-2.4703,-2.485,-2.485,-2.4997,-2.5291,-2.5438,-2.5585,-2.5732,-2.6026,-2.6159,-2.6172,-2.6319,-2.6386,-2.6386,-2.6386,-2.6386,-2.6386,-2.6386,-2.6386,-2.6386,-2.6386,-2.6386,-2.6465,-2.6623,-2.7097,-2.7555,-2.7412,-2.7805,-2.8289,-2.8289,-2.8547,-2.8819,-2.8819,-2.8921,-2.8957,-2.8798,-2.8704,-2.8712,-2.8881,-2.9017,-2.912,-2.912,-2.9251,-2.9354,-2.9354,-2.95,-2.9603,-2.9603,-2.9749,-2.9866,-2.9866,-3.0079,-3.0181,-3.0181,-3.0378,-3.0568,-3.0568,-3.0729,-3.0817,-3.0817,-3.0817,-3.0749,-3.0499,-3.0499,-3.0332,-2.9914,-2.983,-2.9663,-2.9146,-2.9146,-2.9076,-2.8894,-2.9062,-2.9074,-2.8815,-2.8879,-2.8942,-2.8845,-2.9125,-2.9245,-2.9259,-2.9406,-2.9553,-2.9686,-2.9686,-2.978,-2.9913,-2.9913,-2.9913,-2.994,-2.2887,-2.2928,-2.2953,-2.3273,-2.3581,-2.3875,-2.4155,-2.4449,-2.4636,-2.4636,-2.4636,-2.4636,-2.4636,-2.4636,-2.4636,-2.4636,-2.4636,-2.4636,-2.4636,-2.4636,-2.4636,-2.4636,-2.469,-2.4716,-2.4716,-2.4756,-2.4877,-2.5077,-2.5077,-2.5251,-2.5598,-2.5838,-2.5985,-2.6117,-2.6279,-2.6386,-2.6386,-2.6386,-2.6386,-2.6386,-2.6386,-2.6386,-2.6386,-2.6386,-2.6386,-2.6386,-2.6386,-2.6506,-2.6638,-2.6599,-2.7168,-2.7708,-2.7327,-2.7736,-2.8354,-2.8354,-2.8554,-2.8753,-2.8674,-2.8859,-2.8977,-2.8639,-2.8476,-2.8579,-2.8863,-2.9064,-2.9224,-2.9224,-2.9384,-2.9559,-2.9603,-2.9661,-2.9719,-2.9777,-2.9836,-2.9946,-2.9946,-3.0261,-3.0437,-3.0437,-3.0656,-3.0817,-3.0817,-3.0749,-3.0665,-3.0665,-3.0651,-3.0415,-3.0095,-3.0081,-2.983,-2.9398,-2.9398,-2.9146,-2.874,-2.874,-2.8514,-2.8301,-2.8653,-2.8595,-2.831,-2.8617,-2.8791,-2.8858,-2.9352,-2.9566,-2.9579,-2.982,-2.9913,-2.9913,-2.9913,-2.9913,-2.9913,-2.9913,-2.9913,-2.9927,-2.2928,-2.2928,-2.2953,-2.3273,-2.3581,-2.3875,-2.4155,-2.4449,-2.4636,-2.4636,-2.4636,-2.4636,-2.4636,-2.4636,-2.4636,-2.4636,-2.4636,-2.4636,-2.4636,-2.4636,-2.4636,-2.4636,-2.489,-2.5024,-2.5024,-2.5264,-2.5291,-2.5077,-2.5077,-2.5358,-2.5892,-2.601,-2.6092,-2.6333,-2.6373,-2.6386,-2.6386,-2.6386,-2.6386,-2.6386,-2.6386,-2.6386,-2.6386,-2.6386,-2.6386,-2.6386,-2.6386,-2.6799,-2.7376,-2.7635,-2.8041,-2.8351,-2.8351,-2.8351,-2.8431,-2.8431,-2.854,-2.8568,-2.8487,-2.8529,-2.8557,-2.8557,-2.8476,-2.861,-2.9025,-2.8665,-2.8255,-2.8255,-2.8072,-2.8002,-2.8269,-2.8537,-2.8818,-2.9072,-2.9699,-3.0133,-3.0133,-3.0495,-3.0759,-3.0759,-3.0803,-3.0817,-3.0817,-3.0499,-3.0263,-3.0263,-2.9914,-2.9649,-2.9565,-2.9565,-2.9398,-2.8908,-2.8908,-2.874,-2.8318,-2.8305,-2.8368,-2.8537,-2.8636,-2.8757,-2.8925,-2.9232,-2.9499,-2.974,-2.982,-2.986,-2.986,-2.99,-2.9913,-2.9913,-2.9913,-2.9913,-2.9913,-2.9913,-2.9913,-2.9993,-2.2928,-2.2928,-2.302,-2.3487,-2.3688,-2.3928,-2.4382,-2.4556,-2.4636,-2.4636,-2.4636,-2.4636,-2.4636,-2.4636,-2.4636,-2.4636,-2.4636,-2.4636,-2.4636,-2.4636,-2.4716,-2.4877,-2.501,-2.5157,-2.5317,-2.5451,-2.5531,-2.5571,-2.5571,-2.5785,-2.6199,-2.6199,-2.6266,-2.6386,-2.6386,-2.6386,-2.64,-2.656,-2.6533,-2.6413,-2.6747,-2.6774,-2.6653,-2.6814,-2.6881,-2.6881,-2.6881,-2.7122,-2.7419,-2.7554,-2.7839,-2.8165,-2.7907,-2.7988,-2.8165,-2.8165,-2.8289,-2.8495,-2.8727,-2.8689,-2.8662,-2.8662,-2.8496,-2.8413,-2.8593,-2.8263,-2.8125,-2.8871,-2.8804,-2.8711,-2.8851,-2.8977,-2.9117,-2.9257,-2.9564,-2.983,-2.983,-3.0165,-3.0582,-3.0734,-3.0817,-3.0749,-3.0499,-3.0346,-3.0095,-2.983,-2.9663,-2.9398,-2.9146,-2.9076,-2.8908,-2.8487,-2.8487,-2.8403,-2.8221,-2.831,-2.847,-2.8604,-2.8938,-2.9072,-2.9045,-2.9352,-2.9553,-2.9686,-2.9847,-2.9913,-2.9913,-2.9913,-2.9913,-2.9913,-2.9913,-2.9913,-2.9913,-2.9913,-2.9913,-2.998]}]]